[[{"header":{"parameterUnit":"m.s-1","parameterCategory":1,"la1":30.6,"la2":29.2853,"lo1":-89.7004,"lo2":-87.6739,"dy":0.0162,"dx":0.0183,"nx":112,"ny":82,"refTime":"2026-03-08T00:00:00:Z","depth":0,"parameterNumber":2,"parameterNumberName":"U-component_of_WINDS"},"data":[0.0,0.0,0.0,0.0,0.0,0.0,0.0,0.0,0.0,0.0,0.0,0.0,0.0,0.0,0.0,0.0,0.0,0.0,0.0,0.0,0.0,0.0,0.0,0.0,0.0,0.0,0.0,0.0,0.0,0.0,0.0,0.0,0.0,0.0,0.0,0.0,0.0,0.0,0.0,0.0,0.0,0.0,0.0,0.0,0.0,0.0,0.0,0.0,0.0,0.0,0.0,0.0,0.0,0.0,0.0,0.0,0.0,0.0,0.0,0.0,0.0,0.0,0.0,0.0,0.0,0.0,0.0,0.0,0.0,0.0,0.0,0.0,0.0,0.0,0.0,0.0,0.0,0.0,0.0,0.0,0.0,0.0,0.0,0.0,0.0,0.0,0.0,0.0,0.0,0.0,0.0,-2.0567,-2.1298,-2.2063,-2.2703,-2.2075,-2.1554,-2.1298,0.0,0.0,0.0,0.0,0.0,0.0,0.0,0.0,0.0,0.0,0.0,0.0,0.0,0.0,0.0,0.0,0.0,0.0,0.0,0.0,0.0,0.0,0.0,0.0,0.0,0.0,0.0,0.0,0.0,0.0,0.0,0.0,0.0,0.0,0.0,0.0,0.0,0.0,0.0,0.0,0.0,0.0,0.0,0.0,0.0,0.0,0.0,0.0,0.0,0.0,0.0,0.0,0.0,0.0,0.0,0.0,0.0,0.0,0.0,0.0,0.0,0.0,0.0,0.0,0.0,0.0,0.0,0.0,0.0,0.0,0.0,0.0,0.0,0.0,0.0,0.0,0.0,0.0,0.0,0.0,0.0,0.0,0.0,0.0,0.0,0.0,0.0,0.0,0.0,0.0,0.0,0.0,0.0,0.0,0.0,0.0,0.0,0.0,0.0,0.0,0.0,0.0,0.0,0.0,-2.0165,-2.123,-2.1607,-2.1769,-2.1731,-2.1258,-2.078,-2.0355,0.0,0.0,0.0,0.0,0.0,0.0,0.0,0.0,0.0,0.0,0.0,0.0,0.0,0.0,0.0,0.0,0.0,0.0,0.0,0.0,0.0,0.0,0.0,0.0,0.0,0.0,0.0,0.0,0.0,0.0,0.0,0.0,0.0,0.0,0.0,0.0,0.0,0.0,0.0,0.0,0.0,0.0,0.0,0.0,0.0,0.0,0.0,0.0,0.0,0.0,0.0,0.0,0.0,0.0,0.0,0.0,0.0,0.0,0.0,0.0,0.0,0.0,0.0,0.0,0.0,0.0,0.0,0.0,0.0,0.0,0.0,0.0,0.0,0.0,0.0,0.0,0.0,0.0,0.0,0.0,0.0,0.0,0.0,0.0,0.0,0.0,0.0,0.0,0.0,0.0,0.0,0.0,0.0,0.0,0.0,0.0,0.0,0.0,0.0,0.0,0.0,0.0,0.0,-2.0054,-2.0114,-2.1064,-2.1359,-2.1436,-2.1359,-2.1128,-2.0751,-2.016,-1.9872,0.0,0.0,0.0,0.0,0.0,0.0,0.0,0.0,0.0,0.0,0.0,0.0,0.0,0.0,0.0,0.0,0.0,0.0,0.0,0.0,0.0,0.0,0.0,0.0,0.0,0.0,0.0,0.0,0.0,0.0,0.0,0.0,0.0,0.0,0.0,0.0,0.0,0.0,0.0,0.0,0.0,0.0,0.0,0.0,0.0,0.0,0.0,0.0,0.0,0.0,0.0,0.0,0.0,0.0,0.0,0.0,0.0,0.0,0.0,0.0,0.0,0.0,0.0,0.0,0.0,0.0,0.0,0.0,0.0,0.0,0.0,0.0,0.0,0.0,0.0,0.0,0.0,0.0,0.0,0.0,0.0,0.0,0.0,0.0,0.0,0.0,0.0,0.0,0.0,0.0,0.0,0.0,0.0,0.0,0.0,0.0,0.0,0.0,0.0,0.0,0.0,0.0,-2.0086,-2.0312,-2.0837,-2.1151,-2.1277,-2.1138,-2.1138,-2.0823,-2.0098,-1.9069,0.0,0.0,0.0,0.0,0.0,0.0,0.0,0.0,0.0,0.0,0.0,0.0,0.0,0.0,0.0,0.0,0.0,0.0,0.0,0.0,0.0,0.0,0.0,0.0,0.0,0.0,0.0,0.0,0.0,0.0,0.0,0.0,0.0,0.0,0.0,0.0,0.0,0.0,0.0,0.0,0.0,0.0,0.0,0.0,0.0,0.0,0.0,0.0,0.0,0.0,0.0,0.0,0.0,0.0,0.0,0.0,0.0,0.0,0.0,0.0,0.0,0.0,0.0,0.0,0.0,0.0,0.0,0.0,0.0,0.0,0.0,0.0,0.0,0.0,0.0,0.0,0.0,0.0,0.0,0.0,0.0,0.0,0.0,0.0,0.0,0.0,0.0,0.0,0.0,0.0,0.0,0.0,0.0,0.0,0.0,0.0,0.0,0.0,0.0,0.0,0.0,0.0,-2.0054,-2.0837,-2.0906,-2.141,-2.153,-2.0975,-2.0906,-2.0605,-1.9891,-1.847,0.0,0.0,0.0,0.0,0.0,0.0,0.0,0.0,0.0,0.0,0.0,0.0,0.0,0.0,0.0,0.0,0.0,0.0,0.0,0.0,0.0,0.0,0.0,0.0,0.0,0.0,0.0,0.0,0.0,0.0,0.0,0.0,0.0,0.0,0.0,0.0,0.0,0.0,0.0,0.0,0.0,0.0,0.0,0.0,0.0,0.0,0.0,0.0,0.0,0.0,0.0,0.0,0.0,0.0,0.0,0.0,0.0,0.0,0.0,0.0,0.0,0.0,0.0,0.0,0.0,0.0,0.0,0.0,0.0,0.0,0.0,0.0,0.0,0.0,0.0,0.0,0.0,0.0,0.0,0.0,0.0,0.0,0.0,0.0,0.0,0.0,0.0,0.0,0.0,0.0,0.0,0.0,0.0,0.0,0.0,0.0,0.0,0.0,0.0,0.0,0.0,0.0,-2.0249,-2.0879,0.0,-2.1292,-2.1322,-2.1125,-2.086,-2.0405,-1.972,0.0,0.0,0.0,0.0,0.0,0.0,0.0,0.0,0.0,0.0,0.0,0.0,0.0,0.0,0.0,0.0,0.0,0.0,0.0,0.0,0.0,0.0,0.0,0.0,0.0,0.0,0.0,0.0,0.0,0.0,0.0,0.0,0.0,0.0,0.0,0.0,0.0,0.0,0.0,0.0,0.0,0.0,0.0,0.0,0.0,0.0,0.0,0.0,0.0,0.0,0.0,0.0,0.0,0.0,0.0,0.0,0.0,0.0,0.0,0.0,0.0,0.0,0.0,0.0,0.0,0.0,0.0,0.0,0.0,0.0,0.0,0.0,0.0,0.0,0.0,0.0,0.0,0.0,0.0,0.0,0.0,0.0,0.0,0.0,0.0,0.0,0.0,0.0,0.0,0.0,0.0,0.0,0.0,0.0,0.0,0.0,0.0,0.0,0.0,0.0,0.0,0.0,-1.9553,-2.0374,-2.1017,0.0,-2.1317,-2.1346,-2.121,-2.082,-2.0261,-1.9413,0.0,0.0,0.0,0.0,0.0,0.0,0.0,0.0,0.0,0.0,0.0,0.0,0.0,0.0,0.0,0.0,0.0,0.0,0.0,0.0,0.0,0.0,0.0,0.0,0.0,0.0,0.0,0.0,0.0,0.0,0.0,0.0,0.0,0.0,0.0,0.0,0.0,0.0,0.0,0.0,0.0,0.0,0.0,0.0,0.0,0.0,0.0,0.0,0.0,0.0,0.0,0.0,0.0,0.0,0.0,0.0,0.0,0.0,0.0,0.0,0.0,0.0,0.0,0.0,0.0,0.0,0.0,0.0,0.0,0.0,0.0,0.0,0.0,0.0,0.0,0.0,0.0,0.0,0.0,0.0,0.0,0.0,0.0,0.0,0.0,0.0,0.0,0.0,0.0,0.0,0.0,0.0,0.0,0.0,0.0,0.0,0.0,0.0,0.0,0.0,0.0,0.0,-1.9252,-2.043,-2.121,-2.121,-2.1631,-2.1709,-2.1239,-2.083,-2.0123,0.0,0.0,0.0,0.0,0.0,0.0,0.0,0.0,0.0,0.0,0.0,0.0,0.0,0.0,0.0,0.0,0.0,0.0,0.0,0.0,0.0,0.0,0.0,0.0,0.0,0.0,0.0,0.0,0.0,0.0,0.0,0.0,0.0,0.0,0.0,0.0,0.0,0.0,0.0,0.0,0.0,0.0,0.0,0.0,0.0,0.0,0.0,0.0,0.0,0.0,0.0,0.0,0.0,0.0,0.0,0.0,0.0,0.0,0.0,0.0,0.0,0.0,0.0,0.0,0.0,0.0,0.0,0.0,0.0,0.0,0.0,0.0,0.0,0.0,0.0,0.0,0.0,0.0,0.0,0.0,0.0,0.0,0.0,0.0,0.0,0.0,0.0,0.0,0.0,0.0,0.0,0.0,0.0,0.0,0.0,0.0,0.0,0.0,0.0,0.0,0.0,0.0,0.0,-1.9617,-2.0879,-2.1807,-2.2109,-2.1982,-2.1836,-2.1709,-2.1036,-2.0048,-1.8782,0.0,0.0,0.0,0.0,0.0,0.0,0.0,0.0,0.0,0.0,0.0,0.0,0.0,0.0,0.0,0.0,0.0,0.0,0.0,0.0,0.0,0.0,0.0,0.0,0.0,0.0,0.0,0.0,0.0,0.0,0.0,0.0,0.0,0.0,0.0,0.0,0.0,0.0,0.0,0.0,0.0,0.0,0.0,0.0,0.0,0.0,0.0,0.0,0.0,0.0,0.0,0.0,0.0,0.0,0.0,0.0,0.0,0.0,0.0,0.0,0.0,0.0,0.0,0.0,0.0,0.0,0.0,0.0,0.0,0.0,0.0,0.0,0.0,0.0,0.0,0.0,0.0,0.0,0.0,0.0,0.0,0.0,0.0,0.0,0.0,0.0,0.0,0.0,0.0,0.0,0.0,0.0,0.0,0.0,0.0,0.0,0.0,0.0,0.0,0.0,0.0,0.0,-1.9849,-2.1086,-2.2067,-2.2645,-2.2481,-2.2202,-2.1874,-2.125,-2.0159,-1.8492,0.0,0.0,0.0,0.0,0.0,0.0,0.0,0.0,0.0,0.0,0.0,0.0,0.0,0.0,0.0,0.0,0.0,0.0,0.0,0.0,0.0,0.0,0.0,0.0,0.0,0.0,0.0,0.0,0.0,0.0,0.0,0.0,0.0,0.0,0.0,0.0,0.0,0.0,0.0,0.0,0.0,0.0,0.0,0.0,0.0,0.0,0.0,0.0,0.0,0.0,0.0,0.0,0.0,0.0,0.0,0.0,0.0,0.0,0.0,0.0,0.0,0.0,0.0,0.0,0.0,0.0,0.0,0.0,0.0,0.0,0.0,0.0,0.0,0.0,0.0,0.0,0.0,0.0,0.0,0.0,0.0,0.0,0.0,0.0,0.0,0.0,0.0,0.0,0.0,0.0,0.0,0.0,0.0,0.0,0.0,0.0,0.0,0.0,0.0,0.0,0.0,0.0,-2.0042,-2.1161,-2.2114,-2.2974,-2.3021,-2.27,-2.1962,-2.1452,-2.0358,-1.8322,0.0,0.0,0.0,0.0,0.0,0.0,0.0,0.0,0.0,0.0,0.0,0.0,0.0,0.0,0.0,0.0,0.0,0.0,0.0,0.0,0.0,0.0,0.0,0.0,0.0,0.0,0.0,0.0,0.0,0.0,0.0,0.0,0.0,0.0,0.0,0.0,0.0,0.0,0.0,0.0,0.0,0.0,0.0,0.0,0.0,0.0,0.0,0.0,0.0,0.0,0.0,0.0,0.0,0.0,0.0,0.0,0.0,0.0,0.0,0.0,-2.1042,0.0,0.0,0.0,0.0,0.0,0.0,0.0,0.0,0.0,0.0,0.0,0.0,0.0,0.0,0.0,0.0,0.0,0.0,0.0,0.0,0.0,0.0,0.0,0.0,0.0,0.0,0.0,0.0,0.0,0.0,0.0,0.0,0.0,0.0,0.0,0.0,0.0,0.0,0.0,0.0,0.0,-2.0426,-2.1341,-2.2236,-2.3455,-2.321,-2.2926,-2.2756,-2.1783,-2.0564,-1.9156,0.0,0.0,0.0,0.0,0.0,0.0,0.0,0.0,0.0,0.0,0.0,0.0,0.0,0.0,0.0,0.0,0.0,0.0,0.0,0.0,0.0,0.0,0.0,0.0,0.0,0.0,0.0,0.0,0.0,0.0,0.0,0.0,0.0,0.0,0.0,0.0,0.0,0.0,0.0,0.0,0.0,0.0,0.0,0.0,0.0,0.0,0.0,0.0,0.0,0.0,0.0,0.0,0.0,0.0,0.0,0.0,0.0,0.0,0.0,0.0,0.0,-2.2434,0.0,0.0,0.0,0.0,0.0,0.0,0.0,0.0,0.0,0.0,0.0,0.0,0.0,0.0,0.0,0.0,0.0,0.0,0.0,0.0,0.0,0.0,0.0,0.0,0.0,0.0,0.0,0.0,0.0,0.0,0.0,0.0,0.0,0.0,0.0,0.0,0.0,0.0,0.0,0.0,-2.0825,-2.1474,-2.2246,-2.3494,-2.3196,-2.2861,-2.2657,-2.1894,-2.0899,-1.9652,-1.8527,0.0,0.0,0.0,0.0,0.0,0.0,0.0,0.0,0.0,0.0,0.0,0.0,0.0,0.0,0.0,0.0,0.0,0.0,0.0,0.0,0.0,0.0,0.0,0.0,0.0,0.0,0.0,0.0,0.0,0.0,0.0,0.0,0.0,0.0,0.0,0.0,0.0,0.0,0.0,0.0,0.0,0.0,0.0,0.0,0.0,0.0,0.0,0.0,0.0,0.0,0.0,0.0,0.0,-2.5445,-2.5335,-2.3806,-2.4499,-2.3929,-2.2448,-2.2479,-2.2882,-2.3491,-2.318,0.0,0.0,0.0,0.0,0.0,0.0,0.0,0.0,0.0,0.0,0.0,0.0,0.0,0.0,0.0,0.0,0.0,0.0,0.0,0.0,0.0,0.0,0.0,0.0,-1.9339,-1.8805,0.0,0.0,0.0,0.0,0.0,0.0,0.0,0.0,0.0,0.0,0.0,0.0,-2.1033,-2.1526,-2.2126,-2.327,-2.3096,-2.2767,-2.2419,-2.1961,-2.1202,-2.0067,-1.8996,-1.8026,0.0,0.0,0.0,0.0,0.0,0.0,0.0,0.0,0.0,0.0,0.0,0.0,0.0,0.0,0.0,0.0,0.0,0.0,0.0,0.0,0.0,0.0,0.0,0.0,0.0,0.0,0.0,0.0,0.0,0.0,0.0,0.0,-2.1115,-2.1175,0.0,0.0,0.0,0.0,0.0,0.0,0.0,0.0,0.0,0.0,0.0,0.0,0.0,-2.4095,-2.4891,-2.5492,-2.5444,-2.4775,-2.5858,-2.5188,-2.2986,-2.4172,-2.4101,-2.2987,-2.2939,0.0,-2.3139,-2.2629,0.0,0.0,0.0,0.0,0.0,0.0,0.0,0.0,0.0,0.0,0.0,0.0,0.0,0.0,0.0,0.0,0.0,0.0,0.0,0.0,0.0,0.0,-1.9861,-2.0241,-2.0067,-1.9714,0.0,-1.8359,-1.72,-1.6727,-1.6689,0.0,0.0,0.0,0.0,0.0,0.0,0.0,-2.0652,-2.136,-2.2025,-2.2895,-2.294,-2.2885,-2.2831,-2.2126,-2.1321,-2.0493,-1.9301,-1.8303,-1.7485,-1.6606,0.0,0.0,0.0,0.0,0.0,0.0,0.0,0.0,0.0,0.0,0.0,0.0,0.0,0.0,0.0,0.0,0.0,0.0,0.0,0.0,0.0,0.0,0.0,0.0,0.0,0.0,0.0,0.0,0.0,-2.1565,-2.2173,-2.1885,-2.2113,-2.2053,0.0,0.0,0.0,0.0,0.0,0.0,0.0,0.0,0.0,-2.5047,-2.5083,-2.5409,-2.6018,-2.6556,-2.6591,-2.6132,-2.6888,-2.6161,-2.4179,-2.4712,-2.4135,-2.2702,-2.2669,-2.2701,-2.2709,-2.2682,-2.2826,-2.2967,0.0,0.0,0.0,0.0,-2.2622,-2.2496,-2.1928,-2.145,0.0,-2.0304,0.0,0.0,0.0,0.0,0.0,0.0,0.0,0.0,0.0,0.0,-2.064,-2.0805,-2.0714,-2.0552,-2.0552,-1.9835,-1.8804,0.0,-1.7543,-1.7265,-1.6401,0.0,0.0,0.0,0.0,0.0,-2.1121,-2.152,-2.1916,-2.2492,-2.2355,-2.2318,-2.2538,-2.2025,-2.154,-2.1183,-2.0484,-1.9595,-1.855,-1.7963,-1.7125,0.0,0.0,0.0,0.0,0.0,0.0,0.0,0.0,0.0,0.0,0.0,0.0,0.0,0.0,0.0,0.0,0.0,0.0,0.0,0.0,0.0,0.0,0.0,0.0,0.0,0.0,0.0,0.0,-2.2294,-2.3232,-2.2835,-2.3376,-2.3364,0.0,0.0,0.0,0.0,0.0,0.0,-2.4787,-2.4954,-2.5445,-2.6342,-2.6378,-2.6614,-2.7127,-2.7518,-2.7711,-2.7676,-2.7848,-2.7201,-2.5819,-2.5605,-2.4689,-2.3314,-2.3314,-2.3314,-2.332,-2.2991,-2.2678,-2.2418,-2.2694,-2.2626,-2.2387,-2.2556,-2.2708,-2.2786,-2.2434,-2.2146,-2.1803,-2.1216,-2.0509,-1.9817,-1.9668,0.0,0.0,0.0,0.0,-2.0058,-2.0159,-2.0668,-2.1135,-2.1245,-2.1273,-2.1273,-2.1273,-2.0952,-2.0255,0.0,-1.8548,-1.8228,-1.7257,0.0,0.0,0.0,0.0,-2.0397,-2.1403,-2.1623,-2.1806,-2.2099,-2.187,-2.1806,-2.2099,-2.1861,-2.165,-2.154,-2.1238,-2.0574,-1.9578,-1.907,-1.8082,-1.6545,0.0,0.0,0.0,0.0,0.0,0.0,0.0,0.0,0.0,0.0,0.0,0.0,0.0,0.0,0.0,0.0,0.0,0.0,0.0,0.0,0.0,0.0,0.0,0.0,0.0,0.0,0.0,0.0,0.0,-2.441,-2.5312,0.0,0.0,0.0,0.0,-2.4434,-2.536,-2.5901,-2.5753,-2.6229,-2.6688,-2.7062,-2.7035,-2.7505,-2.8492,-2.8539,-2.8809,-2.9284,-2.8416,-2.7841,-2.7524,-2.6642,-2.6086,-2.5841,-2.5841,-2.5841,-2.5644,-2.3383,-2.2626,-2.298,-2.3002,-2.3156,-2.3349,-2.2575,-2.2663,-2.3016,-2.1834,-2.1583,-2.1721,-2.1676,-2.1126,-2.0457,-2.0438,-2.0173,0.0,0.0,-2.0163,-2.0576,-2.0952,-2.1071,-2.1209,-2.1568,-2.1659,-2.1659,-2.1659,-2.133,-2.0833,0.0,-1.9802,-1.9655,-1.9228,0.0,-1.9356,-1.9738,-2.0209,-2.0649,-2.108,-2.1449,-2.1696,-2.1723,-2.1705,-2.1705,-2.1723,-2.1705,-2.1522,-2.1163,-2.0909,-2.0623,-2.0156,-1.9534,-1.8952,-1.8488,-1.6897,0.0,0.0,0.0,0.0,0.0,0.0,0.0,0.0,0.0,0.0,0.0,0.0,0.0,0.0,0.0,0.0,0.0,0.0,0.0,0.0,0.0,0.0,0.0,0.0,0.0,0.0,0.0,0.0,-2.4661,-2.5682,0.0,-2.4756,-2.523,-2.5504,-2.517,-2.5809,-2.6366,-2.6618,-2.6806,-2.725,-2.8057,-2.8092,-2.8339,-2.8862,-2.8862,-2.887,-2.8939,-2.8614,-2.8137,-2.7525,-2.7161,-2.6651,-2.5993,-2.5993,-2.5993,-2.5927,-2.507,-2.4251,-2.353,-2.2815,-2.2631,-2.2698,-2.241,-2.2601,-2.2934,-2.2529,-2.2217,-2.198,-2.1502,-2.1135,-2.0851,-2.0594,-2.0594,-2.0686,-2.0686,-2.0946,-2.1293,-2.1431,-2.1511,-2.1504,-2.1659,-2.1696,-2.1696,-2.1696,-2.1577,-2.1385,-2.1101,-2.0625,-2.014,-1.9778,-1.9916,-2.0136,-2.0241,-2.0649,-2.1044,-2.1412,-2.1595,-2.1696,-2.1696,-2.1696,-2.1651,-2.1526,-2.1526,-2.1364,-2.106,-2.1221,-2.115,-2.0722,-2.0713,-1.9965,-1.8302,-1.7347,-1.6005,0.0,0.0,0.0,0.0,0.0,0.0,0.0,0.0,0.0,0.0,0.0,0.0,0.0,0.0,0.0,0.0,0.0,0.0,0.0,0.0,0.0,0.0,0.0,0.0,0.0,0.0,-2.5434,-2.5258,-2.6314,-2.655,-2.5341,-2.5993,-2.6373,-2.6083,-2.6541,-2.7031,-2.749,-2.7514,-2.7859,-2.8605,-2.8629,-2.8788,-2.9193,-2.915,-2.9187,-2.9217,-2.9217,-2.8898,-2.8355,-2.8355,-2.7987,-2.7415,-2.7415,-2.7235,-2.6883,-2.6553,-2.5564,-2.4225,-2.3349,-2.3026,-2.2981,-2.2621,-2.2666,-2.2904,-2.2904,-2.2721,-2.24,-2.1861,-2.1731,-2.1614,-2.1255,-2.131,-2.1493,-2.1355,-2.1476,-2.1696,-2.1696,-2.1696,-2.1696,-2.1696,-2.1696,-2.1696,-2.1696,-2.1651,-2.1607,-2.1607,-2.1213,-2.0799,-2.0543,-2.0674,-2.0848,-2.0882,-2.1014,-2.12,-2.157,-2.1508,-2.1454,-2.1454,-2.1454,-2.1419,-2.1293,-2.1347,-2.1293,-2.0997,-2.113,-2.1058,-2.0712,-2.0773,-2.0042,-1.8482,-1.7196,-1.5606,-1.3635,0.0,0.0,0.0,0.0,0.0,0.0,0.0,0.0,0.0,0.0,0.0,0.0,0.0,0.0,0.0,0.0,0.0,0.0,0.0,0.0,0.0,0.0,0.0,-2.3874,-2.4847,-2.5728,-2.6221,-2.7246,-2.7481,-2.6447,-2.7293,-2.7705,-2.7172,-2.7606,-2.8029,-2.8282,-2.8305,-2.8441,-2.8712,-2.8723,-2.8976,-2.9515,-2.9538,-2.978,-3.0239,-3.0262,-3.0262,-3.0262,-3.0262,-3.0262,-3.0262,-3.0262,-2.9691,-2.8699,-2.7731,-2.6516,-2.5189,-2.4673,-2.447,-2.4322,-2.3289,-2.2931,-2.295,-2.2931,-2.2922,-2.2922,-2.2913,-2.2904,-2.2831,-2.2419,-2.23,-2.2217,-2.1833,-2.1733,-2.1733,-2.1733,-2.1723,-2.1733,-2.1733,-2.1733,-2.1733,-2.1733,-2.1544,-2.1419,-2.1419,-2.1526,-2.1696,-2.1696,-2.1526,-2.1437,-2.1651,-2.1275,0.0,-2.1347,-2.115,-2.0997,-2.0997,-2.0997,-2.0997,-2.0997,-2.1248,-2.1248,-2.0979,-2.0642,-2.036,-2.0114,-1.9488,-1.9161,-1.9101,-1.6451,-1.4351,-1.2896,0.0,0.0,0.0,0.0,0.0,0.0,0.0,0.0,0.0,0.0,0.0,0.0,0.0,0.0,0.0,0.0,0.0,0.0,0.0,0.0,0.0,0.0,-2.421,-2.4258,-2.5391,-2.629,-2.6429,-2.7127,-2.7429,-2.699,-2.769,-2.8057,-2.7782,-2.8191,-2.8526,-2.8579,-2.8591,-2.8789,-2.9263,-2.9274,-2.9515,-3.0009,-3.0399,-3.0663,-3.0801,-3.1099,-3.1318,-3.1341,-3.1341,-3.1341,-3.1341,-3.1341,-3.0982,-3.0372,-3.007,-2.9478,-2.8451,-2.5114,-2.3794,-2.3746,-2.3421,-2.3574,-2.3776,-2.3435,-2.3334,-2.3288,-2.2995,-2.2904,-2.2885,-2.2776,-2.2739,-2.2712,-2.2602,-2.2574,-2.2528,-2.2342,-2.2435,-2.2528,-2.2342,-2.2286,-2.2286,-2.2286,-2.1876,-2.1541,-2.1541,-2.1337,-2.1177,-2.1177,-2.1141,-2.1141,-2.1177,-2.1087,0.0,-2.1096,-2.1042,-2.0997,-2.0997,-2.0997,-2.0952,-2.0781,-2.0835,-2.0631,-2.0084,-1.9972,-2.0041,-2.0219,-1.9389,-1.8157,-1.6644,-1.5098,-1.3838,0.0,0.0,0.0,0.0,0.0,0.0,0.0,0.0,0.0,0.0,0.0,0.0,0.0,0.0,0.0,0.0,0.0,0.0,0.0,0.0,0.0,0.0,-2.452,-2.5281,-2.5281,-2.5977,-2.6582,-2.676,-2.7342,-2.7653,-2.7541,-2.8115,-2.8414,-2.8276,-2.854,-2.8792,-2.9022,-2.9033,-2.9274,-2.9791,-3.0021,-3.0273,-3.0549,-3.1065,-3.1329,-3.1329,-3.1616,-3.1754,-3.1813,-3.1813,-3.1813,-3.1813,-3.1754,-3.1344,-3.0633,-3.0633,-2.9958,0.0,0.0,0.0,0.0,0.0,-2.395,-2.4165,-2.3877,-2.3794,-2.3758,-2.3529,-2.3455,-2.3428,-2.3206,-2.3151,-2.3067,-2.2808,-2.2715,-2.2668,-2.2384,-2.2431,-2.2526,-2.2384,-2.2336,-2.2336,-2.2336,-2.2008,-2.1699,-2.1699,-2.1412,0.0,-2.1162,-2.0991,-2.0907,-2.0997,-2.0817,-2.0736,-2.0871,-2.0781,-2.069,-2.069,-2.069,-2.0645,-2.0518,-2.0654,0.0,0.0,0.0,-1.9858,-1.9821,-1.9007,0.0,0.0,0.0,0.0,0.0,0.0,0.0,0.0,-1.3625,-1.3665,0.0,0.0,0.0,0.0,0.0,0.0,0.0,0.0,0.0,0.0,0.0,0.0,0.0,0.0,0.0,0.0,-2.5658,-2.6547,-2.6651,-2.6674,-2.6806,-2.7254,-2.7713,-2.8,-2.8057,-2.8505,-2.8792,-2.8792,-2.8838,-2.9079,-2.955,0.0,0.0,0.0,0.0,-3.1042,-3.11,-3.1593,-3.1894,-3.1894,-3.1963,-3.1986,-3.1986,-3.1986,-3.1986,-3.1986,-3.1915,-3.1329,-3.0438,-3.0438,-2.9144,-2.7159,-2.7073,-2.701,-2.6769,-2.5005,-2.4339,-2.4339,-2.4339,0.0,0.0,-2.4275,-2.4238,-2.4137,-2.3721,-2.3563,-2.3393,-2.2799,-2.2613,-2.2566,-2.2279,-2.2223,-2.2223,-2.2231,-2.2175,-2.2175,-2.2175,-2.1987,-2.1809,-2.1809,-2.1583,-2.1413,-2.1413,-2.1043,-2.0821,-2.1039,-2.065,-2.0443,-2.067,-2.0499,-2.0292,-2.0292,0.0,0.0,-2.0292,-2.0518,-2.0546,-2.0232,-2.0004,-1.9537,-1.8764,-1.8197,-1.7311,-1.6072,-1.5497,-1.4648,-1.3562,-1.3592,-1.3622,-1.3628,-1.3446,-1.3685,0.0,0.0,0.0,0.0,0.0,0.0,0.0,0.0,0.0,0.0,0.0,0.0,0.0,0.0,0.0,-2.5294,-2.6042,-2.6789,-2.7617,-2.7732,-2.7725,-2.7828,-2.792,-2.8138,-2.8517,-2.9033,-2.9343,-2.9343,-2.9711,-2.9975,-3.0078,-3.0078,-3.0319,-3.0847,-3.0962,-3.1215,-3.1616,-3.2099,-3.2351,-3.2351,0.0,0.0,-3.2994,-3.2994,-3.2994,-3.2994,-3.2982,-3.2632,-3.2036,-3.2036,-3.0592,-2.8145,-2.6432,-2.5731,-2.568,-2.533,-2.5185,-2.5185,-2.5185,-2.4983,-2.4656,-2.4656,-2.4477,-2.4183,-2.411,-2.3934,0.0,-2.3597,-2.3372,-2.3175,-2.2877,-2.2976,-2.3076,-2.2877,-2.2828,-2.2828,-2.2828,-2.2386,-2.1982,-2.1982,-2.1676,-2.1413,-2.1413,-2.1333,-2.1285,-2.1333,-2.0998,-2.0809,-2.0855,-2.0534,-2.0292,-2.0292,-2.0292,-2.0292,-2.0292,-2.0337,-2.0208,-1.9828,-1.9051,-1.7799,-1.606,-1.6162,-1.5671,-1.4377,-1.4241,-1.4062,-1.3833,-1.4045,-1.4262,-1.4473,-1.4009,-1.3946,0.0,0.0,0.0,0.0,0.0,0.0,0.0,0.0,0.0,0.0,0.0,-2.304,-2.4014,0.0,-2.5199,-2.5968,-2.6766,-2.7444,-2.7908,-2.8184,-2.8344,-2.8344,-2.8586,-2.8838,-2.9079,-2.9561,-2.986,-2.986,-3.0078,-3.0216,-3.0216,-3.0468,-3.0732,-3.1008,-3.149,-3.1869,-3.2121,-3.2627,-3.2879,-3.2879,-3.3155,-3.3281,-3.3281,-3.3281,-3.3281,-3.3281,-3.3281,-3.3132,-3.283,-3.1689,-3.0416,-2.9044,-2.685,-2.5729,-2.5424,-2.5424,-2.5424,-2.5424,-2.5424,-2.5295,-2.5078,-2.5078,-2.4871,-2.4545,-2.4545,-2.4341,-2.4137,-2.3983,-2.3821,-2.3667,-2.3418,-2.3279,-2.3242,-2.3081,-2.2934,-2.2795,-2.2795,-2.2548,-2.2319,-2.2319,-2.2165,-2.1978,-2.1978,-2.1978,-2.185,-2.1465,-2.1259,-2.1148,-2.1148,-2.0968,-2.0848,-2.0848,-2.0848,-2.0848,-2.0848,-2.0686,-2.0506,-2.0317,-1.9271,-1.8357,-1.7545,-1.6642,-1.5888,-1.5274,-1.4746,-1.4509,-1.4509,-1.4642,-1.4775,-1.4908,-1.462,-1.4499,0.0,0.0,0.0,0.0,0.0,0.0,0.0,0.0,-2.2637,-2.3639,-2.3863,-2.4263,-2.561,-2.5872,-2.606,-2.6708,-2.749,-2.8057,-2.8253,-2.8609,-2.8884,-2.8976,-2.9297,-2.9538,-2.963,-2.9986,-3.0216,-3.0216,-3.0308,-3.0376,-3.0376,-3.087,-3.1192,-3.1295,-3.2076,-3.2535,-3.2638,-3.3063,-3.3281,-3.3281,-3.3281,-3.3281,-3.3281,-3.3281,-3.3281,-3.3281,-3.3069,-3.2958,-3.2807,-3.0764,-2.9765,-2.9398,-2.7628,-2.6384,-2.561,-2.561,-2.561,-2.561,-2.561,-2.5607,-2.5534,-2.5534,-2.527,-2.4988,-2.4927,-2.4718,-2.4456,-2.4193,-2.4088,-2.3982,-2.378,-2.3451,-2.322,-2.322,-2.2989,-2.2817,-2.2817,-2.2757,-2.2705,-2.2705,-2.2645,-2.2594,-2.2594,-2.2594,-2.2388,-2.1722,-2.1567,-2.1525,-2.1525,-2.1456,-2.1413,-2.1413,-2.1413,-2.1413,-2.1413,-2.1148,-2.093,-2.0742,-1.9851,-1.9295,-1.9244,-1.7584,-1.6543,-1.6293,-1.55,-1.5137,-1.5185,-1.5134,-1.5131,-1.5239,-1.5182,-1.5036,-2.4524,-2.3038,0.0,-2.238,-2.2177,-2.2383,0.0,0.0,-2.4212,-2.5252,-2.5455,-2.5635,-2.6304,-2.6414,-2.6731,-2.7697,-2.7908,-2.8299,-2.9206,-2.9378,-2.9573,-2.9998,-2.9722,-2.9665,-3.0089,-3.0181,-3.0216,-3.0216,-3.0663,-3.0928,-3.0928,-3.134,-3.1857,-3.2305,-3.2431,-3.2707,-3.3189,-3.3258,-3.3281,-3.3281,-3.3281,-3.3281,-3.3281,-3.3281,-3.3281,-3.3231,-3.2218,-3.179,-3.1688,-3.0442,-2.9282,-2.8382,-2.8126,-2.74,-2.6454,-2.6454,-2.6454,-2.6454,-2.6454,-2.6206,-2.5947,-2.5947,-2.5656,-2.531,-2.4979,-2.4718,-2.4456,-2.4193,-2.3929,-2.3718,-2.3691,-2.3648,-2.3658,-2.3658,-2.3624,-2.3589,-2.3589,-2.328,-2.3049,-2.3049,-2.2775,-2.2594,-2.2594,-2.2594,-2.2568,-2.2482,-2.2141,-2.1936,-2.1936,-2.1627,-2.1413,-2.1413,-2.1413,-2.1413,-2.1413,-2.1371,-2.0954,-2.0071,-1.987,-1.9002,-1.7229,-1.6887,-1.6293,-1.5303,-1.5157,-1.5221,-1.5457,-1.5243,-1.5323,-1.5728,-1.5479,-1.5358,-2.42,0.0,0.0,0.0,-2.3352,-2.3971,-2.5119,-2.5222,-2.5279,-2.6003,-2.6152,-2.6313,-2.6818,-2.6909,-2.7151,0.0,-2.8218,-2.8654,-2.9401,-2.9745,-2.9883,-2.9802,-2.9871,-2.9998,-3.0193,-3.0216,-3.0216,-3.0216,-3.0709,-3.1019,-3.1019,-3.1754,-3.2271,-3.2477,-3.2787,-3.3063,-3.3281,-3.3281,-3.3281,-3.3281,-3.3281,-3.3281,-3.3281,-3.3281,-3.3281,-3.3231,-3.2106,-3.1575,-3.1472,-2.965,-2.8648,-2.8116,-2.7511,-2.6999,-2.6591,-2.6591,-2.6591,-2.6591,-2.6591,-2.6472,-2.6325,-2.6325,-2.5991,-2.5523,-2.5416,-2.5038,-2.4659,-2.4559,-2.4442,-2.4342,-2.435,-2.4179,-2.3999,-2.3999,-2.3828,-2.3718,-2.3718,-2.3554,-2.3451,-2.3443,-2.3358,-2.3246,-2.3246,-2.3066,-2.2877,-2.2877,-2.2561,-2.2371,-2.2371,-2.2225,-2.2122,-2.2122,-2.2122,-2.1978,-2.1764,-2.1756,-2.1553,-2.1145,-1.9891,-1.8922,-1.8207,-1.6937,-1.6075,-1.5559,-1.5415,-1.544,-1.569,-1.5421,-1.5444,-1.5752,-1.5468,-1.5429,-2.4041,0.0,0.0,-2.3862,-2.4359,-2.5268,-2.5796,-2.5922,-2.606,-2.6577,-2.6668,-2.6795,-2.7121,-2.719,-2.7438,-2.808,-2.8471,-2.893,-2.9607,-2.9883,-2.9883,-2.9538,-2.9676,-2.9848,-2.9998,-3.0135,-3.0216,-3.0216,-3.0836,-3.1226,-3.1226,-3.2156,-3.2707,-3.2707,-3.3086,-3.3281,-3.3281,-3.3281,-3.3281,-3.3281,-3.3281,-3.3281,-3.3281,-3.3281,-3.3281,-3.3231,-3.1739,-3.1114,-3.0959,-2.8701,-2.7761,-2.7663,-2.6899,-2.6591,-2.6591,-2.6591,-2.6591,-2.6591,-2.6591,-2.6591,-2.6591,-2.6473,-2.619,-2.5798,-2.5624,-2.5247,-2.4868,-2.4812,-2.4821,-2.4821,-2.4821,-2.4552,-2.4393,-2.4393,-2.4187,-2.3982,-2.3982,-2.3913,-2.3845,-2.3828,-2.3734,-2.3718,-2.3718,-2.3443,-2.3263,-2.3263,-2.304,-2.2834,-2.2628,-2.2594,-2.2594,-2.2594,-2.2594,-2.2482,-2.2175,-2.215,-2.215,-2.215,-2.0353,-1.9286,-1.9213,-1.743,-1.6316,-1.6,-1.5808,-1.5781,-1.5902,-1.557,-1.5479,-1.5671,-1.5386,-1.5399,0.0,0.0,-2.4788,-2.4303,-2.4935,-2.5819,-2.6363,-2.6478,-2.6628,-2.7093,-2.7167,-2.7167,-2.719,-2.719,-2.75,-2.8528,-2.8689,-2.9045,-3.0055,-2.9802,-2.9515,-2.9504,-2.9056,-2.8941,0.0,-2.994,-3.0216,-3.0216,-3.1169,-3.179,-3.179,-3.2707,-3.3258,-3.3258,-3.3281,-3.3281,-3.3281,-3.3281,-3.3281,-3.3281,-3.3281,-3.3281,-3.3281,-3.3281,-3.3281,-3.3181,-3.0918,-2.9974,-2.9765,-2.7584,-2.6646,-2.6646,-2.6591,-2.6591,-2.6591,-2.6591,-2.6591,-2.6591,-2.6591,-2.6591,-2.6527,-2.6236,-2.6127,-2.5953,-2.5395,-2.5221,-2.5119,-2.4868,-2.4821,-2.4821,-2.4821,-2.4812,-2.4804,-2.4804,-2.4795,-2.4787,-2.4787,-2.4432,-2.4159,-2.4159,-2.3913,-2.3718,-2.3718,-2.3709,-2.3701,-2.3701,-2.3657,-2.3391,-2.2697,-2.2594,-2.2594,-2.2594,-2.2594,-2.2594,-2.2577,-2.2577,-2.2577,-2.2577,-2.1489,-2.0357,-1.9228,-1.8376,-1.7408,-1.6326,-1.6192,-1.616,-1.6165,-1.5609,-1.5454,-1.5687,-1.5351,-1.5365,0.0,0.0,-2.5028,-2.5584,-2.5996,-2.6439,-2.7318,-2.7208,-2.7024,-2.7156,-2.719,-2.719,-2.719,-2.719,-2.7511,-2.854,-2.87,-2.9056,-3.0078,-3.0078,-2.9722,-2.9045,-2.9125,0.0,0.0,0.0,0.0,-3.0193,-3.118,-3.1813,-3.1813,-3.273,-3.3281,-3.3281,-3.3281,-3.3281,-3.3281,-3.3281,-3.3281,-3.3281,-3.3281,-3.3281,-3.3281,-3.3281,-3.3281,-3.3181,-3.0867,-2.9922,-2.9713,-2.753,-2.6591,-2.6591,-2.6364,-2.6245,-2.6245,-2.6081,-2.6026,-2.6017,-2.619,-2.6245,-2.6236,-2.5907,-2.5679,-2.545,-2.5276,-2.5072,-2.4923,-2.4821,-2.4821,-2.4821,-2.4821,-2.4821,-2.4821,-2.4821,-2.4821,-2.4821,-2.4821,-2.4718,-2.4624,-2.4624,-2.4521,-2.4427,-2.4427,-2.4213,-2.3956,-2.3752,-2.3727,-2.3632,-2.3375,-2.334,-2.3349,-2.3314,-2.3349,-2.334,-2.334,-2.334,-2.334,-2.334,-2.2269,-2.1099,-1.9925,-1.8734,-1.7478,-1.6271,-1.58,-1.5699,-1.5863,-1.5467,-1.5362,-1.5654,-1.5542,-1.5607,0.0,-2.5395,-2.6019,-2.6919,-2.7144,-2.73,-2.7923,-2.7625,-2.7236,-2.7461,-2.7316,-2.7293,-2.7649,-2.761,-2.7828,-2.8827,-2.8987,-2.9274,-3.0101,-2.9906,-2.9504,-2.9045,-2.8964,0.0,0.0,0.0,0.0,-3.0181,-3.1169,-3.1754,-3.1754,-3.273,-3.3281,-3.3281,-3.3281,-3.3281,-3.3281,-3.3281,-3.3281,-3.3281,-3.3281,-3.3281,-3.3281,-3.3281,-3.3281,-3.3181,-3.0867,-2.9922,-2.9713,-2.7359,-2.6418,-2.6409,-2.6072,-2.5962,-2.5962,-2.5743,-2.5688,-2.5743,-2.5907,-2.5962,-2.5898,-2.5624,-2.5395,-2.5165,-2.5072,-2.4923,-2.4821,-2.4821,-2.4821,-2.4821,-2.4821,-2.4821,-2.4821,-2.4821,-2.4821,-2.4821,-2.4821,-2.4821,-2.4821,-2.4821,-2.4821,-2.4821,-2.4821,-2.4607,-2.4359,-2.4119,-2.4076,-2.3973,-2.3752,-2.3718,-2.3727,-2.3691,-2.3674,-2.3718,-2.3718,-2.3286,-2.3011,-2.3011,-2.1595,-2.0288,-1.9421,-1.8203,-1.7091,-1.6204,-1.5789,-1.5682,-1.5837,-1.5492,-1.5494,-1.5725,-1.5725,-1.5849,-2.6464,-2.7128,-2.7569,-2.8146,-2.8258,-2.8179,-2.8179,-2.7679,-2.7392,-2.7851,-2.7587,-2.75,0.0,0.0,-2.8276,-2.9297,-2.9458,-2.963,-3.0147,-2.9389,-2.8953,0.0,0.0,0.0,0.0,0.0,0.0,-3.0216,0.0,-3.1683,-3.1683,-3.2718,-3.3281,-3.3281,-3.3281,-3.3281,-3.3281,-3.3281,-3.3281,-3.3281,-3.3281,-3.3281,-3.3281,-3.3281,-3.3281,-3.3181,-3.097,-2.9974,-2.9713,-2.7232,-2.6118,-2.6072,-2.5798,-2.5679,-2.5679,-2.5688,-2.5633,-2.5633,-2.5633,-2.5688,-2.5624,-2.5284,-2.5174,-2.5119,-2.4868,-2.4821,-2.4821,-2.4821,-2.4821,-2.4821,-2.4821,-2.4821,-2.4821,-2.4821,-2.4838,-2.4847,-2.4847,-2.4864,-2.4881,-2.4881,-2.4864,-2.4838,-2.4821,-2.4821,-2.4821,-2.4821,-2.4821,-2.4556,-2.3873,-2.3778,-2.3778,-2.3778,-2.3778,-2.3717,-2.3672,-2.258,-2.182,-2.1758,-1.9745,-1.8373,-1.7971,-1.7118,-1.6523,-1.6131,-1.6077,-1.6087,-1.6087,-1.579,-1.5731,-1.6007,-1.6007,-1.6147,-2.7582,-2.7976,-2.8095,-2.8189,-2.8231,-2.8059,-2.7586,-2.7642,-2.7713,-2.7472,-2.7621,-2.7748,0.0,0.0,0.0,-2.8746,-2.8896,0.0,-3.0089,-2.9998,0.0,0.0,0.0,-2.9217,-2.9481,-2.9504,0.0,0.0,-3.1398,-3.1754,-3.1754,-3.273,-3.3281,-3.3281,-3.3281,-3.3281,-3.3281,-3.3281,-3.3281,-3.3281,-3.3281,-3.3281,-3.3281,-3.3281,-3.3281,-3.3231,-3.1801,-3.0587,-2.9493,-2.7999,-2.6744,-2.5789,-2.545,-2.534,-2.5284,-2.5081,-2.5034,-2.5034,-2.5034,-2.5191,-2.5284,-2.497,-2.4923,-2.4868,-2.4812,-2.4821,-2.4821,-2.4821,-2.4821,-2.4821,-2.4821,-2.4821,-2.4821,-2.4821,-2.5026,-2.5232,-2.5232,-2.5455,-2.5594,-2.5594,-2.542,-2.5146,-2.4864,-2.4821,-2.4821,-2.4821,-2.4821,-2.4744,-2.4547,-2.453,-2.453,-2.453,-2.453,-2.4183,-2.3267,-2.2879,-2.2306,-2.1339,-2.0719,-1.987,-1.8614,-1.8185,-1.7364,-1.6105,-1.5871,-1.572,-1.572,-1.5834,-1.5947,-1.6007,-1.6007,-1.6234,-2.8769,-2.9074,-2.9098,-2.9344,-2.9028,-2.8414,-2.783,-2.7673,-2.7506,-2.7001,-2.73,0.0,0.0,0.0,0.0,0.0,0.0,0.0,-2.9814,-2.9894,-2.9883,0.0,-2.963,0.0,-2.9791,-3.0021,-3.0399,0.0,-3.1479,-3.1905,-3.2124,-3.2845,-3.3281,-3.3281,-3.3281,-3.3281,-3.3281,-3.3281,-3.3281,-3.3281,-3.3281,-3.3281,-3.3281,-3.3281,-3.3281,-3.3231,0.0,-3.0598,-2.9377,-2.7849,-2.6518,-2.545,-2.5128,-2.5017,-2.5026,-2.4868,-2.4821,-2.4821,-2.4821,-2.4923,-2.5026,-2.4868,-2.4821,-2.4821,-2.4821,-2.4821,-2.4821,-2.4821,-2.4821,-2.4821,-2.4821,-2.4821,-2.4821,-2.4821,-2.4975,-2.5129,-2.5129,-2.5292,-2.5446,-2.5446,-2.5403,-2.53,-2.5095,-2.5206,-2.5258,-2.5086,-2.5061,-2.5001,-2.4838,-2.4821,-2.4821,-2.4821,-2.4821,-2.4303,-2.3095,-2.2515,-2.165,-2.0393,-1.9818,-1.9016,-1.7858,-1.7636,-1.7003,-1.5903,-1.5823,-1.5752,-1.5752,-1.5942,-1.612,-1.632,-1.6217,-1.6361,-2.9902,-3.0059,-3.0037,-3.071,-2.9922,-2.8841,-2.8376,-2.7715,-2.7082,-2.6605,0.0,0.0,-2.7128,0.0,-2.7816,-2.7966,0.0,-2.9343,-2.9481,-2.9504,-2.9676,-3.0158,-2.9848,-2.9757,-3.017,-3.0698,-3.1042,-3.1111,-3.157,-3.2041,-3.2466,-3.2994,-3.3281,-3.3281,-3.3281,-3.3281,-3.3281,-3.3281,-3.3281,-3.3281,-3.3281,-3.3281,-3.3281,-3.3231,-3.3119,-3.2908,-3.1403,-3.013,-2.9009,-2.7257,-2.5981,-2.5119,-2.4868,-2.4821,-2.4821,-2.4821,-2.4821,-2.4821,-2.4821,-2.4821,-2.4821,-2.4821,-2.4821,-2.4821,-2.4821,-2.4821,-2.4821,-2.4821,-2.4821,-2.4821,-2.4821,-2.4821,-2.4821,-2.4821,-2.4855,-2.4898,-2.4898,-2.4932,-2.4949,-2.4907,-2.5146,-2.5352,-2.53,-2.5566,-2.5677,-2.5343,-2.5292,-2.5181,-2.4864,-2.4821,-2.4821,-2.4821,-2.4821,-2.4303,-2.3095,-2.182,-2.0558,-1.9319,-1.8206,-1.7238,-1.6529,-1.6529,-1.6292,-1.5645,-1.5904,-1.6007,-1.6007,-1.6072,-1.632,-1.672,-1.6452,-1.6592,-3.0524,-3.0088,-2.9394,-3.0037,-2.9263,-2.8343,-2.8247,-2.7678,0.0,0.0,0.0,-2.6639,-2.6639,-2.6708,0.0,-2.7839,0.0,0.0,0.0,0.0,-2.9676,0.0,0.0,0.0,0.0,0.0,0.0,0.0,0.0,-3.2397,-3.2477,-3.2994,-3.3281,-3.3281,-3.3281,-3.3281,-3.3281,-3.3281,-3.3281,-3.3281,-3.3281,-3.3281,-3.3281,-3.2796,-3.2156,-3.1421,-3.0691,0.0,-2.7302,-2.6978,-2.6082,-2.4868,-2.4821,-2.4821,-2.4821,-2.4821,-2.4821,-2.4821,-2.4821,-2.4821,-2.4821,-2.4821,-2.4821,-2.4821,-2.4821,-2.4821,-2.4821,-2.4821,-2.4821,-2.4821,-2.4821,-2.4821,-2.4821,-2.4821,-2.5052,-2.5275,-2.5275,-2.5523,-2.5652,-2.5335,-2.5326,-2.5275,-2.4967,-2.4975,-2.4992,-2.4924,-2.4915,-2.4889,-2.483,-2.4821,-2.4821,-2.4821,-2.4821,-2.4303,-2.3095,-2.182,-2.0494,-1.8958,-1.8205,-1.7386,-1.643,-1.6665,-1.6545,-1.5947,-1.599,-1.6007,-1.6007,-1.6407,-1.6644,-1.6725,-1.6624,-1.6748,-3.0317,-2.9793,-2.916,-2.9445,-2.8651,-2.7691,-2.7445,0.0,0.0,0.0,0.0,-2.5911,-2.5421,0.0,0.0,0.0,0.0,0.0,0.0,0.0,0.0,0.0,0.0,0.0,0.0,0.0,0.0,0.0,0.0,-3.2902,-3.2902,-3.3143,-3.3281,-3.3281,-3.3281,-3.3281,-3.3281,-3.3281,-3.3281,-3.3281,-3.3281,-3.3281,-3.3281,-3.2218,-3.1524,-3.1051,-2.9744,0.0,-2.687,-2.6608,-2.5817,-2.4821,-2.4821,-2.4821,-2.4821,-2.4821,-2.4821,-2.4821,-2.4821,-2.4821,-2.4821,-2.4821,-2.4821,-2.4821,-2.4821,-2.4958,-2.5104,-2.5104,-2.5249,-2.5346,-2.5346,-2.5346,-2.5346,-2.5346,-2.554,-2.5609,-2.5412,-2.5515,-2.5532,-2.5155,-2.5241,-2.5318,-2.5138,-2.5275,-2.5335,-2.5138,-2.5104,-2.5035,-2.4847,-2.4821,-2.4821,-2.4821,-2.4821,-2.4303,-2.3095,-2.182,-2.0437,-1.8893,-1.7941,-1.7083,-1.6253,-1.649,-1.6431,-1.6007,-1.6255,-1.638,-1.638,-1.6612,-1.6727,-1.6834,-1.6721,-1.6786,-2.9998,-2.9367,-2.8779,-2.9042,-2.8156,-2.7132,-2.6847,-2.6142,0.0,0.0,0.0,0.0,0.0,0.0,0.0,0.0,0.0,0.0,0.0,0.0,0.0,0.0,0.0,0.0,0.0,0.0,0.0,0.0,0.0,0.0,-3.3281,-3.3281,-3.3281,-3.3281,-3.3281,-3.3281,-3.3281,-3.3281,-3.3281,-3.3281,-3.3281,-3.3231,-3.3069,-3.1575,-3.0732,-3.0369,-2.8532,0.0,0.0,-2.5981,-2.5404,-2.4821,-2.4821,-2.4821,-2.4821,-2.4821,-2.4821,-2.4821,-2.4821,-2.4821,-2.4838,-2.4907,-2.4941,-2.4941,-2.4941,-2.5198,-2.5489,-2.5489,-2.5703,-2.5876,-2.5876,-2.5876,-2.5876,-2.5876,-2.5876,-2.5857,-2.5557,-2.5489,-2.5403,-2.5121,-2.5292,-2.5489,-2.5489,-2.5737,-2.5814,-2.5429,-2.5426,-2.5232,-2.4864,-2.4821,-2.4821,-2.4821,-2.4821,-2.4303,-2.3095,-2.1888,-2.0485,-1.8868,-1.7838,-1.6968,-1.6254,-1.6431,-1.6469,-1.6163,-1.6536,-1.6725,-1.6725,-1.671,-1.6829,-1.6996,-1.6818,-1.6834,-2.9983,-2.8712,-2.7655,-2.8806,-2.7842,-2.6727,-2.7218,0.0,0.0,0.0,-2.4579,-2.4441,-2.4786,0.0,0.0,0.0,0.0,0.0,0.0,0.0,0.0,0.0,0.0,0.0,0.0,0.0,0.0,0.0,0.0,0.0,-3.3281,-3.3281,-3.3281,-3.3281,-3.3281,-3.3281,-3.3281,-3.3281,-3.3281,-3.3281,-3.3281,-3.3008,-3.2409,-3.1,-2.9692,-2.8382,-2.6943,0.0,0.0,-2.4923,-2.4876,-2.4821,-2.4821,-2.4821,-2.4821,-2.4821,-2.4821,-2.4821,-2.4821,-2.4821,-2.4872,-2.5215,-2.5318,-2.5318,-2.5318,-2.5583,-2.5825,-2.5825,-2.585,-2.5876,-2.5876,-2.5876,-2.5876,-2.5876,-2.5876,-2.5867,-2.5833,-2.5825,-2.5816,-2.5782,-2.5808,-2.5825,-2.5825,-2.5859,-2.5814,-2.5429,-2.5426,-2.5232,-2.4864,-2.4821,-2.4821,-2.4821,-2.4821,-2.4303,-2.3095,-2.2057,-2.07,-1.8811,-1.8337,-1.7685,-1.6691,-1.6954,-1.6965,-1.6661,-1.6704,-1.6725,-1.6725,-1.6872,-1.6985,-1.7001,-1.698,-1.6985,-2.9878,-2.8647,-2.7301,-2.7846,-2.6997,-2.6092,-2.6314,0.0,0.0,-2.4487,-2.4326,-2.4258,-2.4441,-2.4717,0.0,0.0,0.0,0.0,0.0,0.0,0.0,0.0,0.0,0.0,0.0,0.0,0.0,0.0,0.0,0.0,-3.3281,-3.3281,-3.3281,-3.3281,-3.3281,-3.3281,-3.3281,-3.3281,-3.3281,-3.3281,-3.2946,-3.237,-3.1575,-2.9849,-2.8426,-2.7356,-2.5926,0.0,0.0,-2.4821,-2.4821,-2.4821,-2.4821,-2.4821,-2.4821,-2.4821,-2.4821,-2.4821,-2.4821,-2.4821,-2.4881,-2.5249,-2.5523,-2.5711,-2.5711,-2.5977,-2.6268,-2.6268,-2.6439,-2.6619,-2.6619,-2.6619,-2.6619,-2.6619,-2.6619,-2.6559,-2.6319,-2.6268,-2.6199,-2.5927,-2.5876,-2.5876,-2.5876,-2.5876,-2.5825,-2.5737,-2.5711,-2.566,-2.5457,-2.5432,-2.5138,-2.4318,-2.4057,-2.3756,-2.3292,-2.1495,-1.9953,-1.8978,-1.7925,-1.7066,-1.6452,-1.6707,-1.6852,-1.6725,-1.6797,-1.6867,-1.6867,-1.6958,-1.7001,-1.7001,-1.7001,-1.7001,-2.9416,-2.8374,-2.719,-2.719,-2.6422,-2.5716,0.0,0.0,-2.42,-2.42,-2.42,-2.42,-2.42,-2.459,-2.5084,0.0,0.0,0.0,0.0,0.0,0.0,0.0,0.0,0.0,0.0,0.0,0.0,0.0,0.0,0.0,-3.3281,-3.3281,-3.3281,-3.3281,-3.3281,-3.3231,-3.3019,-3.3008,-3.2958,-3.2768,-3.2381,-3.1637,-3.0587,-2.8956,-2.7634,-2.6608,-2.5348,0.0,0.0,-2.4821,-2.4821,-2.4821,-2.4821,-2.4821,-2.4821,-2.4821,-2.4821,-2.4821,-2.4821,-2.4821,-2.4898,-2.5378,-2.572,-2.5927,-2.6208,-2.6456,-2.6662,-2.6662,-2.6859,-2.7073,-2.7073,-2.7073,-2.7073,-2.7073,-2.7073,-2.6996,-2.6722,-2.6662,-2.6585,-2.6328,-2.6277,-2.6277,-2.6277,-2.6277,-2.6234,-2.6122,-2.6105,-2.6004,-2.5893,-2.5577,-2.4977,-2.4023,-2.2999,-2.2341,-2.2302,-2.0683,-1.9343,-1.8539,-1.7581,-1.6888,-1.6522,-1.6673,-1.6764,-1.6764,-1.692,-1.7001,-1.7001,-1.7001,-1.7001,-1.7001,-1.7001,-1.7001,-2.8366,-2.7735,-2.719,-2.719,-2.6422,-2.5716,0.0,-2.4923,-2.42,-2.42,-2.42,-2.42,-2.42,-2.459,-2.5084,-2.5624,0.0,0.0,0.0,0.0,0.0,0.0,0.0,0.0,0.0,0.0,0.0,0.0,0.0,0.0,-3.3281,-3.3281,-3.3281,-3.3281,-3.3281,-3.3008,-3.242,-3.2409,-3.2167,-3.1629,-3.1618,-3.0888,-2.9471,-2.8605,-2.7419,0.0,0.0,0.0,0.0,-2.4821,-2.4821,-2.4821,-2.4821,-2.4821,-2.4821,-2.4821,-2.4821,-2.4821,-2.4821,-2.4821,-2.4941,-2.5637,-2.5876,-2.608,-2.6833,-2.7064,-2.7073,-2.7073,-2.7073,-2.7073,-2.7073,-2.7073,-2.7073,-2.7073,-2.7073,-2.7073,-2.7073,-2.7073,-2.7073,-2.7064,-2.7064,-2.7064,-2.7064,-2.7064,-2.6936,-2.6542,-2.6482,-2.6345,-2.5927,-2.4735,-2.3897,-2.3897,-2.1593,-1.9947,-1.9668,-1.984,-1.9144,-1.7232,-1.7326,-1.7324,-1.6996,-1.6996,-1.7001,-1.7001,-1.7001,-1.7001,-1.7001,-1.7001,-1.7001,-1.7001,-1.7001,-1.7001,-2.8297,-2.7801,-2.7076,-2.6357,-2.5957,-2.5612,-2.5245,-2.4659,-2.42,-2.42,-2.42,-2.42,-2.42,-2.4315,-2.4705,-2.5578,-2.5842,0.0,0.0,0.0,0.0,0.0,0.0,0.0,0.0,0.0,0.0,0.0,0.0,0.0,-3.3281,-3.3281,-3.3281,-3.3281,-3.2896,-3.2572,-3.2409,-3.2015,-3.1772,-3.1578,-3.063,-2.9618,-2.8552,-2.7321,-2.62,0.0,0.0,0.0,0.0,-2.4821,-2.4821,-2.4821,-2.4821,-2.4821,-2.4821,-2.4821,-2.4821,-2.4821,-2.4821,-2.4821,-2.4898,-2.5395,-2.5549,-2.5643,-2.6148,-2.6662,-2.7073,-2.7073,-2.7073,-2.7073,-2.7073,-2.7073,-2.7073,-2.7073,-2.7073,-2.7073,-2.7073,-2.7073,-2.7073,-2.7073,-2.7073,-2.7073,-2.7073,-2.7073,-2.703,-2.691,-2.6893,-2.685,-2.673,-2.554,-2.4366,-2.3444,-2.1562,-2.0253,-1.9898,-1.8896,-1.8047,-1.7418,-1.7227,-1.7136,-1.7001,-1.7001,-1.7001,-1.7001,-1.7001,-1.7001,-1.7001,-1.7001,-1.7001,-1.7001,-1.7001,-1.7001,0.0,-2.7533,-2.6683,-2.6648,-2.6035,-2.5371,-2.5245,-2.4682,-2.42,-2.42,-2.42,-2.42,-2.42,-2.4349,-2.4671,-2.5314,-2.5739,0.0,0.0,0.0,0.0,0.0,0.0,0.0,0.0,0.0,0.0,0.0,0.0,0.0,-3.3281,-3.3069,-3.2958,-3.2958,-3.2583,-3.2308,-3.2117,-3.1249,-3.0733,-3.0474,-2.9303,-2.8232,-2.7365,-2.6509,-2.5606,0.0,0.0,0.0,0.0,-2.4821,-2.4821,-2.4821,-2.4821,-2.4821,-2.4821,-2.4821,-2.4821,-2.4821,-2.4821,-2.4821,-2.4881,-2.5249,-2.5472,-2.5634,-2.5866,-2.6362,-2.685,-2.685,-2.6961,-2.7073,-2.7073,-2.7073,-2.7073,-2.7073,-2.7073,-2.7073,-2.7073,-2.7073,-2.7073,-2.7073,-2.7073,-2.7073,-2.7073,-2.7073,-2.7073,-2.7073,-2.7073,-2.7073,-2.7073,-2.5386,-2.3822,-2.3014,-2.0816,-1.93,-1.9065,-1.8076,-1.7464,-1.7335,-1.7136,-1.7001,-1.7001,-1.7001,-1.7001,-1.7001,-1.7001,-1.7001,-1.7001,-1.7001,-1.7001,-1.7001,-1.7001,-1.7001,0.0,-2.6964,-2.607,-2.7569,-2.641,-2.5038,-2.5497,-2.4877,0.0,-2.42,-2.42,-2.42,-2.4235,-2.4579,-2.49,-2.5015,0.0,0.0,0.0,0.0,0.0,0.0,0.0,0.0,0.0,0.0,0.0,0.0,0.0,0.0,-3.3281,-3.2745,-3.2359,-3.2308,-3.2207,-3.1953,-3.1465,-3.0047,-2.9102,-2.8581,-2.7716,-2.6898,-2.6082,-2.6036,-2.556,0.0,0.0,0.0,0.0,-2.4821,-2.4821,-2.4821,-2.4821,-2.4821,-2.4821,-2.4821,-2.4821,-2.4821,-2.4821,-2.4821,-2.4872,-2.5223,-2.5574,-2.5799,-2.5799,-2.6157,-2.6491,-2.6491,-2.6773,-2.7073,-2.7073,-2.7073,-2.7073,-2.7073,-2.7073,-2.7073,-2.7073,-2.7073,-2.7073,-2.7073,-2.7073,-2.7073,-2.7073,-2.7073,-2.7073,-2.7073,-2.7073,-2.7073,-2.7073,-2.4448,-2.2577,-2.2577,-1.9553,-1.747,-1.747,-1.7464,-1.7335,-1.7007,-1.7001,-1.7001,-1.7001,-1.7001,-1.7001,-1.7001,-1.7001,-1.7001,-1.7001,-1.7001,-1.7001,-1.7001,-1.7001,-1.7001,-2.6179,0.0,-2.5683,-2.5233,-2.5024,-2.4855,0.0,-2.4372,-2.42,0.0,0.0,0.0,0.0,0.0,0.0,0.0,0.0,0.0,0.0,0.0,0.0,0.0,0.0,0.0,0.0,0.0,0.0,0.0,0.0,-3.3281,-3.3281,-3.2745,-3.2095,-3.1421,-3.0608,-3.0099,-2.9995,-2.8615,-2.7814,-2.7716,-2.6844,-2.63,-2.6082,-2.5395,-2.4979,0.0,0.0,0.0,-2.4821,-2.4821,-2.4821,-2.4821,-2.4821,-2.4821,-2.4821,-2.4821,-2.4821,-2.4821,-2.4821,-2.4821,-2.4838,-2.4924,-2.5009,-2.5086,-2.5086,-2.5737,-2.6491,-2.6491,-2.6773,-2.7073,-2.7073,-2.7073,-2.7073,-2.7073,-2.7073,-2.7073,-2.7073,-2.7073,-2.7073,-2.7073,-2.7073,-2.7073,-2.7073,-2.7073,-2.7073,-2.7073,-2.7073,-2.7073,-2.7073,-2.4448,-2.2577,-2.2577,-1.9553,-1.747,-1.747,-1.7271,-1.7071,-1.7001,-1.7001,-1.7001,-1.7001,-1.7001,-1.7001,-1.7001,-1.7001,-1.7001,-1.7001,-1.7001,-1.7001,-1.7001,-1.7001,-1.7001,-2.4667,-2.4944,-2.5148,-2.5569,-2.5298,-2.4912,-2.49,0.0,0.0,0.0,0.0,0.0,0.0,0.0,0.0,0.0,0.0,0.0,0.0,0.0,0.0,0.0,0.0,0.0,0.0,0.0,0.0,0.0,0.0,-3.2695,-3.2319,-3.1483,-3.065,-2.9797,-2.8595,-2.8232,-2.888,-2.7482,-2.6789,-2.6789,-2.5935,-2.5505,-2.5505,-2.5034,-2.4821,0.0,0.0,0.0,-2.4821,-2.4821,-2.4821,-2.4821,-2.4821,-2.4821,-2.4821,-2.4821,-2.4821,-2.4821,-2.4821,-2.4821,-2.4821,-2.4821,-2.4821,-2.4821,-2.4821,-2.536,-2.6011,-2.6182,-2.6508,-2.6842,-2.703,-2.7073,-2.7073,-2.7073,-2.7073,-2.7073,-2.7073,-2.7073,-2.7073,-2.7073,-2.7073,-2.7073,-2.7073,-2.7073,-2.7073,-2.7073,-2.7073,-2.6822,-2.6059,-2.3799,-2.2055,-2.1245,-1.885,-1.7271,-1.7271,-1.7071,-1.7001,-1.7001,-1.7001,-1.7001,-1.7001,-1.7001,-1.7001,-1.7001,-1.7001,-1.7001,-1.7001,-1.7001,-1.7001,-1.7001,-1.7001,-1.7001,-2.3421,-2.384,-2.4634,-2.6344,-2.5832,-2.5015,-2.5394,0.0,0.0,0.0,0.0,0.0,0.0,0.0,0.0,0.0,0.0,0.0,0.0,0.0,0.0,0.0,0.0,0.0,0.0,0.0,0.0,0.0,0.0,-3.1626,-3.1,-2.9922,-2.888,-2.8009,-2.678,-2.6617,-2.7697,-2.6518,-2.5926,-2.5872,-2.5136,-2.4821,-2.4821,-2.4821,-2.4821,-2.4821,0.0,0.0,-2.4821,-2.4821,-2.4821,-2.4821,-2.4821,-2.4821,-2.4821,-2.4821,-2.4821,-2.4821,-2.4821,-2.4821,-2.4821,-2.4821,-2.4821,-2.4821,-2.4821,-2.5044,-2.5378,-2.5814,-2.6199,-2.6576,-2.697,-2.7073,-2.7073,-2.7073,-2.7073,-2.7073,-2.7073,-2.7073,-2.7073,-2.7073,-2.7012,-2.6952,-2.6952,-2.6882,-2.6761,-2.6579,-2.6571,-2.5998,-2.4409,-2.2721,-2.1092,-1.9661,-1.8016,-1.7001,-1.7001,-1.7001,-1.7001,-1.7001,-1.7001,-1.7001,-1.7001,-1.7001,-1.7001,-1.7001,-1.7001,-1.7001,-1.7001,-1.7001,-1.7001,-1.7001,-1.7001,-1.7001,-2.3178,-2.3788,-2.4179,-2.4067,-2.4455,-2.4832,0.0,0.0,0.0,0.0,0.0,0.0,0.0,0.0,0.0,0.0,0.0,0.0,0.0,0.0,0.0,0.0,0.0,0.0,0.0,0.0,0.0,0.0,0.0,-2.9766,-3.0369,-2.9114,-2.8009,-2.714,-2.6454,-2.5826,-2.5357,-2.509,-2.4979,-2.4979,-2.4868,-2.4821,-2.4821,-2.4821,-2.4821,-2.4821,0.0,-2.4821,-2.4821,-2.4821,-2.4821,-2.4821,-2.4821,-2.4821,-2.4821,-2.4821,-2.4821,-2.4821,-2.4821,-2.4821,-2.4821,-2.4821,-2.4821,-2.4821,-2.4821,-2.4864,-2.5052,-2.5688,-2.6199,-2.6576,-2.697,-2.7073,-2.7073,-2.7073,-2.7073,-2.7073,-2.7073,-2.7073,-2.7073,-2.7073,-2.6631,-2.6258,-2.6258,-2.5778,-2.5095,-2.4263,-2.4139,-2.3752,-2.2534,-2.0909,-1.9789,-1.9534,-1.8016,-1.7001,-1.7001,-1.7001,-1.7001,-1.7001,-1.7001,-1.7001,-1.7001,-1.7001,-1.7001,-1.7001,-1.7001,-1.7001,-1.7001,-1.7001,-1.7001,-1.7001,-1.7001,-1.7001,-2.2139,-2.2983,-2.3658,-2.3181,-2.4231,-2.5344,0.0,0.0,0.0,0.0,0.0,0.0,0.0,0.0,0.0,0.0,0.0,0.0,0.0,0.0,0.0,0.0,0.0,0.0,0.0,0.0,0.0,0.0,0.0,0.0,-2.9167,-2.7839,-2.6672,-2.5771,-2.5505,-2.5191,-2.4821,-2.4821,-2.4821,-2.4821,-2.4821,-2.4821,-2.4821,-2.4821,-2.4821,-2.4821,0.0,-2.4821,-2.4821,-2.4821,-2.4821,-2.4821,-2.4821,-2.4821,-2.4821,-2.4821,-2.4821,-2.4847,-2.5052,-2.4984,-2.4855,-2.5052,-2.4984,-2.4855,-2.5052,-2.5112,-2.5275,-2.6028,-2.6217,-2.6328,-2.6919,-2.7073,-2.7073,-2.7073,-2.7073,-2.7073,-2.7073,-2.7073,-2.7012,-2.664,-2.6327,-2.5953,-2.5594,-2.4841,-2.4147,-2.3698,-2.3124,-2.2236,-2.0846,-1.9973,-1.9158,-1.8273,-1.7448,-1.7001,-1.7001,-1.7001,-1.7001,-1.7001,-1.7001,-1.7001,-1.7001,-1.7001,-1.7001,-1.7001,-1.7001,-1.7001,-1.7001,-1.7001,-1.7001,-1.7001,-1.7001,-1.7077,-2.1758,-2.2547,-2.3359,-2.3217,0.0,-2.5469,-2.5461,0.0,0.0,0.0,0.0,0.0,0.0,0.0,0.0,0.0,0.0,0.0,0.0,0.0,0.0,0.0,0.0,0.0,0.0,0.0,0.0,0.0,0.0,0.0,-2.7688,-2.6518,-2.5505,-2.4821,-2.4821,-2.4821,-2.4821,-2.4821,-2.4821,-2.4821,-2.4821,-2.4821,-2.4821,-2.4821,-2.4821,-2.4821,-2.4821,-2.4821,-2.4821,-2.4821,-2.4821,-2.4821,-2.4821,-2.4821,-2.4821,-2.4821,-2.4821,-2.4872,-2.5241,-2.5189,-2.5009,-2.5386,-2.5309,-2.5138,-2.542,-2.5506,-2.5634,-2.6302,-2.6285,-2.6217,-2.6902,-2.7073,-2.7073,-2.7073,-2.7073,-2.7073,-2.7073,-2.6952,-2.6692,-2.6197,-2.5823,-2.5394,-2.4656,-2.3775,-2.2952,-2.25,-2.1734,-2.0657,-1.9088,-1.8902,-1.8396,-1.713,-1.7001,-1.7001,-1.7001,-1.7001,-1.7001,-1.7001,-1.7001,-1.7001,-1.7001,-1.7001,-1.7001,-1.7001,-1.7001,-1.7001,-1.7001,-1.7001,-1.7033,-1.7087,-1.7087,-1.7222,-2.2995,-2.3327,-2.3554,-2.4145,0.0,0.0,-2.4489,0.0,0.0,0.0,0.0,0.0,0.0,0.0,0.0,0.0,0.0,0.0,0.0,0.0,0.0,0.0,0.0,0.0,0.0,0.0,0.0,0.0,0.0,0.0,-2.6173,-2.5404,-2.4868,-2.4821,-2.4821,-2.4821,-2.4821,-2.4821,-2.4821,-2.4821,-2.4821,-2.4821,-2.4821,-2.4821,-2.4821,-2.4821,-2.4821,-2.4821,-2.4821,-2.4821,-2.4821,-2.4821,-2.4821,-2.4821,-2.4821,-2.4821,-2.4821,-2.4872,-2.5241,-2.5352,-2.5395,-2.5771,-2.5825,-2.5808,-2.5833,-2.5833,-2.5919,-2.6379,-2.6465,-2.6542,-2.697,-2.7073,-2.7073,-2.7073,-2.7073,-2.7073,-2.7073,-2.664,-2.6136,-2.6136,-2.5087,-2.3914,-2.2959,-2.2215,-2.1089,-1.917,-1.8786,-1.8343,-1.7324,-1.7195,-1.713,-1.7007,-1.7001,-1.7001,-1.7001,-1.7001,-1.7001,-1.7001,-1.7001,-1.7001,-1.7001,-1.7001,-1.7001,-1.7001,-1.7001,-1.7001,-1.7001,-1.7001,-1.7125,-1.7351,-1.7351,-1.7475,-2.2117,-2.2377,-2.2597,-2.2663,0.0,0.0,0.0,0.0,0.0,0.0,0.0,0.0,0.0,0.0,0.0,0.0,0.0,0.0,0.0,0.0,0.0,0.0,0.0,0.0,0.0,0.0,0.0,0.0,0.0,0.0,-2.5342,-2.4568,-2.4102,-2.4102,-2.4102,-2.4213,-2.4398,-2.4453,-2.4573,-2.4821,-2.4821,-2.4821,-2.4821,-2.4821,-2.4821,-2.4821,-2.4821,-2.4821,-2.4821,-2.4821,-2.4821,-2.4821,-2.4821,-2.4821,-2.4847,-2.5078,-2.5163,-2.5249,-2.5857,-2.5917,-2.578,-2.6157,-2.6122,-2.5927,-2.6208,-2.6277,-2.6362,-2.6747,-2.685,-2.6893,-2.7039,-2.7073,-2.7073,-2.7073,-2.7073,-2.7012,-2.6571,-2.6258,-2.5823,-2.5034,-2.3961,-2.2904,-2.2097,-2.0703,-1.9431,-1.86,-1.7963,-1.7453,-1.7066,-1.7001,-1.7001,-1.7001,-1.7001,-1.7001,-1.7001,-1.7001,-1.7001,-1.7001,-1.7001,-1.7001,-1.7001,-1.7001,-1.7001,-1.7001,-1.7001,-1.7001,-1.7001,-1.7157,-1.7287,-1.7383,-1.7523,-1.7723,-2.1722,-2.1866,-2.2042,0.0,0.0,0.0,0.0,0.0,0.0,0.0,0.0,0.0,0.0,0.0,0.0,0.0,0.0,0.0,0.0,0.0,0.0,0.0,0.0,0.0,0.0,0.0,0.0,0.0,0.0,0.0,0.0,-2.4026,-2.3718,-2.3674,-2.3718,-2.3785,-2.405,-2.417,-2.4313,-2.4633,-2.4761,-2.4821,-2.4821,-2.4821,-2.4821,-2.4821,-2.4821,-2.4821,-2.4821,-2.4821,-2.4821,-2.4821,-2.4821,-2.4821,-2.4847,-2.5104,-2.5198,-2.53,-2.6054,-2.6071,-2.584,-2.6328,-2.6319,-2.6157,-2.6414,-2.6576,-2.673,-2.7004,-2.7073,-2.7073,-2.7073,-2.7073,-2.7073,-2.7073,-2.6943,-2.664,-2.6197,-2.577,-2.5087,-2.3845,-2.2904,-2.1902,-2.0836,-1.9431,-1.8407,-1.8086,-1.7448,-1.7001,-1.7001,-1.7001,-1.7001,-1.7001,-1.7001,-1.7001,-1.7001,-1.7001,-1.7001,-1.7001,-1.7001,-1.7001,-1.7001,-1.7001,-1.7001,-1.7001,-1.7001,-1.7044,-1.712,-1.7297,-1.7459,-1.761,-1.7766,-1.797,-2.2214,-2.2121,-2.21,0.0,0.0,0.0,0.0,0.0,0.0,0.0,0.0,0.0,0.0,0.0,0.0,0.0,0.0,0.0,0.0,0.0,0.0,0.0,0.0,0.0,0.0,0.0,0.0,0.0,0.0,0.0,0.0,-2.3709,-2.3665,-2.3691,-2.3665,-2.3709,-2.3709,-2.4033,-2.4167,-2.4176,-2.4624,-2.4812,-2.4821,-2.4821,-2.4821,-2.4821,-2.4821,-2.4821,-2.4821,-2.4821,-2.4821,-2.4821,-2.4821,-2.4821,-2.4821,-2.4821,-2.483,-2.4932,-2.562,-2.5694,-2.5554,-2.6242,-2.6482,-2.6491,-2.6491,-2.6765,-2.7073,-2.7073,-2.7073,-2.7073,-2.7073,-2.7073,-2.7073,-2.7073,-2.6571,-2.6075,-2.6075,-2.5026,-2.379,-2.2764,-2.2034,-2.0906,-1.8856,-1.8472,-1.8156,-1.713,-1.7001,-1.7001,-1.7001,-1.7001,-1.7001,-1.7001,-1.7001,-1.7001,-1.7001,-1.7001,-1.7001,-1.7001,-1.7001,-1.7001,-1.7001,-1.7001,-1.7001,-1.7007,-1.7007,-1.713,-1.7383,-1.7383,-1.7631,-1.8094,-1.8094,-1.8218,-2.1507,-2.1487,0.0,0.0,0.0,0.0,0.0,0.0,0.0,0.0,0.0,0.0,0.0,0.0,0.0,0.0,0.0,0.0,0.0,0.0,0.0,0.0,0.0,0.0,0.0,0.0,0.0,0.0,0.0,0.0,0.0,-2.2929,-2.2929,-2.2937,-2.2929,-2.3057,-2.328,-2.3391,-2.358,-2.3836,-2.3948,-2.429,-2.4821,-2.4821,-2.4821,-2.4821,-2.4821,-2.4821,-2.4821,-2.4821,-2.4821,-2.4821,-2.4821,-2.4821,-2.4847,-2.5112,-2.5206,-2.5275,-2.5714,-2.5808,-2.5806,-2.6028,-2.6277,-2.6491,-2.6491,-2.6765,-2.7073,-2.7073,-2.7073,-2.7012,-2.651,-2.6388,-2.6388,-2.6388,-2.59,-2.5288,-2.4787,-2.3837,-2.2834,-2.2034,-2.0576,-1.924,-1.86,-1.7899,-1.7324,-1.7071,-1.7001,-1.7001,-1.7001,-1.7001,-1.7001,-1.7001,-1.7001,-1.7001,-1.7001,-1.7001,-1.7001,-1.7001,-1.7001,-1.7001,-1.7001,-1.7001,-1.7087,-1.7265,-1.7265,-1.7383,-1.762,-1.7798,-1.7954,-1.8094,-1.8261,-1.8369,-2.1435,0.0,0.0,0.0,0.0,0.0,0.0,0.0,0.0,0.0,0.0,0.0,0.0,0.0,0.0,0.0,0.0,0.0,0.0,0.0,0.0,0.0,0.0,0.0,0.0,0.0,0.0,0.0,0.0,0.0,0.0,-2.2594,-2.2594,-2.2594,-2.2594,-2.2705,-2.2886,-2.304,-2.3228,-2.3451,-2.3605,-2.3913,-2.4367,-2.4521,-2.4675,-2.4821,-2.4821,-2.4821,-2.4821,-2.4821,-2.4821,-2.4821,-2.4821,-2.4821,-2.4847,-2.5069,-2.5146,-2.5206,-2.5583,-2.5617,-2.5515,-2.5669,-2.5968,-2.6268,-2.6268,-2.6645,-2.7073,-2.7073,-2.6891,-2.664,-2.6197,-2.57,-2.5394,-2.5647,-2.4903,-2.3969,-2.3596,-2.2522,-2.1391,-2.0513,-1.9367,-1.8343,-1.7963,-1.7389,-1.7001,-1.7001,-1.7001,-1.7001,-1.7001,-1.7001,-1.7001,-1.7001,-1.7001,-1.7001,-1.7001,-1.7001,-1.7001,-1.7001,-1.7098,-1.7152,-1.7152,-1.7152,-1.7265,-1.7507,-1.7513,-1.7631,-1.7868,-1.8019,-1.8137,-1.8234,-1.8369,-1.8433,0.0,0.0,0.0,0.0,0.0,0.0,0.0,0.0,0.0,0.0,0.0,0.0,0.0,0.0,0.0,0.0,0.0,0.0,0.0,0.0,0.0,0.0,0.0,0.0,0.0,0.0,0.0,0.0,0.0,0.0,0.0,-2.2594,-2.2594,-2.2594,-2.2594,-2.2594,-2.2594,-2.2895,-2.3066,-2.3066,-2.3425,-2.3605,-2.3684,-2.4042,-2.439,-2.4821,-2.4821,-2.4821,-2.4821,-2.4821,-2.4821,-2.4821,-2.4821,-2.4821,-2.4821,-2.4821,-2.4821,-2.4872,-2.5206,-2.5104,-2.4872,-2.5215,-2.5574,-2.5833,-2.5867,-2.6389,-2.6969,-2.7004,-2.651,-2.6014,-2.5953,-2.5026,-2.4232,-2.4672,-2.3596,-2.2452,-2.2389,-2.1076,-1.9693,-1.8664,-1.8407,-1.8086,-1.713,-1.7001,-1.7001,-1.7001,-1.7001,-1.7001,-1.7001,-1.7001,-1.7001,-1.7001,-1.7001,-1.7001,-1.7001,-1.7023,-1.7039,-1.7039,-1.727,-1.7421,-1.7443,-1.7421,-1.7518,-1.7749,-1.7755,-1.7873,-1.8126,-1.8126,-1.8234,-1.8433,-1.8433,-1.8433,0.0,0.0,0.0,0.0,0.0,0.0,0.0,0.0,0.0,0.0,0.0,0.0,0.0,0.0,0.0,0.0,0.0,0.0,0.0,0.0,0.0,0.0,0.0,0.0,0.0,0.0,0.0,0.0,0.0,0.0,-2.2594,-2.2594,-2.2594,-2.2594,-2.2594,-2.2594,-2.2594,-2.268,-2.2723,-2.2723,-2.2808,-2.2946,-2.3254,-2.3931,-2.439,-2.4821,-2.4821,-2.4821,-2.4821,-2.4821,-2.4821,-2.4821,-2.4821,-2.4821,-2.4821,-2.4821,-2.4821,-2.483,-2.4907,-2.4889,-2.4838,-2.4915,-2.5189,-2.5549,-2.5848,-2.5848,-2.5901,-2.6244,-2.5839,-2.5165,-2.4664,-2.4293,-2.3798,-2.2613,-2.2104,-2.1594,-2.0829,-1.968,-1.8792,-1.8536,-1.7835,-1.726,-1.7071,-1.7001,-1.7001,-1.7001,-1.7001,-1.7001,-1.7001,-1.7001,-1.7001,-1.7001,-1.7001,-1.7001,-1.7001,-1.7184,-1.7297,-1.7297,-1.7518,-1.7733,-1.7933,-1.7749,-1.776,-1.8008,-1.8013,-1.8126,-1.8363,-1.8363,-1.8385,-1.8433,-1.8433,-1.8433,0.0,0.0,0.0,0.0,0.0,0.0,0.0,0.0,0.0,0.0,0.0,0.0,0.0,0.0,0.0,0.0,0.0,0.0,0.0,0.0,0.0,0.0,0.0,0.0,0.0,0.0,0.0,0.0,0.0,-2.2594,-2.2594,-2.2594,-2.2594,-2.2594,-2.2594,-2.2594,-2.2594,-2.2594,-2.2594,-2.2594,-2.2594,-2.2894,-2.3417,-2.3973,-2.439,-2.4821,-2.4821,-2.4821,-2.4821,-2.4821,-2.4821,-2.4821,-2.4821,-2.4821,-2.4821,-2.4821,-2.4821,-2.4821,-2.4821,-2.4821,-2.4821,-2.4821,-2.5069,-2.5437,-2.5476,-2.5486,-2.5501,-2.5611,-2.5165,-2.4417,-2.3596,-2.3161,-2.2418,-2.0576,-2.0526,-2.0589,-1.9565,-1.8536,-1.777,-1.777,-1.7389,-1.7001,-1.7001,-1.7001,-1.7001,-1.7001,-1.7001,-1.7001,-1.7001,-1.7001,-1.705,-1.7173,-1.7184,-1.7227,-1.7335,-1.7464,-1.754,-1.754,-1.7766,-1.7959,-1.8089,-1.8073,-1.8121,-1.8256,-1.8256,-1.8315,-1.8433,-1.8433,-1.8433,-1.8433,-1.8433,-1.8433,0.0,0.0,0.0,0.0,0.0,0.0,0.0,0.0,0.0,0.0,0.0,0.0,0.0,0.0,0.0,0.0,0.0,0.0,0.0,0.0,0.0,0.0,0.0,0.0,0.0,0.0,0.0,0.0,0.0,-2.2594,-2.2594,-2.2594,-2.2594,-2.2594,-2.2594,-2.2594,-2.2594,-2.2594,-2.2594,-2.2594,-2.2594,-2.2972,-2.3614,-2.3973,-2.4384,-2.4821,-2.4821,-2.4821,-2.4821,-2.4821,-2.4821,-2.4821,-2.4821,-2.4821,-2.4821,-2.4821,-2.4821,-2.4821,-2.4821,-2.4821,-2.4821,-2.4821,-2.497,-2.5125,-2.5044,-2.5031,-2.506,-2.4992,-2.4417,-2.3728,-2.2709,-2.2034,-2.1096,-1.8984,-1.9176,-1.9501,-1.8472,-1.7577,-1.7001,-1.7001,-1.7001,-1.7001,-1.7001,-1.7001,-1.7001,-1.7001,-1.7001,-1.7001,-1.7001,-1.7001,-1.7098,-1.7351,-1.7378,-1.747,-1.7701,-1.776,-1.7782,-1.7782,-1.8013,-1.8153,-1.8153,-1.8336,-1.8433,-1.8433,-1.8433,-1.8433,-1.8433,-1.8433,-1.8433,-1.8433,-1.8433,-1.8433,0.0,0.0,0.0,0.0,0.0,0.0,0.0,0.0,0.0,0.0,0.0,0.0,0.0,0.0,0.0,0.0,0.0,0.0,0.0,0.0,0.0,0.0,0.0,0.0,0.0,0.0,0.0,0.0,-2.2594,-2.2594,-2.2594,-2.2594,-2.2594,-2.2594,-2.2594,-2.2594,-2.2594,-2.2594,-2.2594,-2.2594,-2.2594,-2.2826,-2.3203,-2.3571,-2.4136,-2.4821,-2.4821,-2.4821,-2.4821,-2.4821,-2.4821,-2.4821,-2.4821,-2.4821,-2.4821,-2.4821,-2.4821,-2.4821,-2.4821,-2.4821,-2.4821,-2.4821,-2.4457,-2.4232,-2.4845,-2.4271,-2.3561,-2.4063,-2.3736,-2.2981,-2.1978,-2.167,-2.1096,-1.8984,-1.86,-1.8413,-1.7453,-1.7066,-1.7001,-1.7001,-1.7001,-1.7001,-1.7001,-1.7001,-1.7001,-1.7001,-1.7001,-1.7001,-1.7001,-1.7001,-1.7098,-1.7351,-1.7378,-1.747,-1.7701,-1.7916,-1.8046,-1.8046,-1.8261,-1.839,-1.839,-1.8417,-1.8433,-1.8433,-1.8433,-1.8433,-1.8433,-1.8433,-1.8433,-1.8433,-1.8433,-1.8433,0.0,0.0,0.0,0.0,0.0,0.0,0.0,0.0,0.0,0.0,0.0,0.0,0.0,0.0,0.0,0.0,0.0,0.0,0.0,0.0,0.0,0.0,0.0,0.0,0.0,0.0,0.0,0.0,-2.2594,-2.2594,-2.2594,-2.2594,-2.2594,-2.2594,-2.2594,-2.2594,-2.2594,-2.2594,-2.2594,-2.2594,-2.2594,-2.28,-2.3117,-2.328,-2.3768,-2.4504,-2.4727,-2.4821,-2.4821,-2.4821,-2.4821,-2.4821,-2.4821,-2.4821,-2.4765,-2.4423,-2.4312,-2.4256,-2.3921,-2.3809,-2.3809,-2.3809,-2.3632,-2.3489,-2.3848,-2.3539,-2.3141,-2.3494,-2.2918,-2.2041,-2.1032,-2.0329,-1.9495,-1.8028,-1.7641,-1.7512,-1.7066,-1.7001,-1.7001,-1.7001,-1.7001,-1.7001,-1.7001,-1.7001,-1.7001,-1.7001,-1.7001,-1.7001,-1.7001,-1.7125,-1.7308,-1.7545,-1.7696,-1.7873,-1.8099,-1.8223,-1.8282,-1.8282,-1.8379,-1.8433,-1.8433,-1.8433,-1.8433,-1.8433,-1.8433,-1.8433,-1.8433,-1.8433,-1.8433,-1.8433,-1.8433,-1.8433,0.0,0.0,0.0,0.0,0.0,0.0,0.0,0.0,0.0,0.0,0.0,0.0,0.0,0.0,0.0,0.0,0.0,0.0,0.0,0.0,0.0,0.0,0.0,0.0,0.0,0.0,0.0,0.0,-2.2594,-2.2594,-2.2594,-2.2594,-2.2594,-2.2594,-2.2594,-2.2594,-2.2594,-2.2594,-2.2594,-2.2594,-2.2594,-2.274,-2.2972,-2.3074,-2.3468,-2.411,-2.4504,-2.4727,-2.4821,-2.4821,-2.4821,-2.4821,-2.4821,-2.4821,-2.471,-2.4144,-2.3921,-2.3809,-2.3183,-2.3014,-2.3014,-2.3014,-2.2964,-2.2926,-2.3066,-2.3065,-2.3007,-2.3076,-2.2362,-2.1355,-2.0329,-1.9304,-1.8279,-1.726,-1.7001,-1.7001,-1.7001,-1.7001,-1.7001,-1.7001,-1.7001,-1.7001,-1.7001,-1.7001,-1.7001,-1.7001,-1.7001,-1.7028,-1.7087,-1.7265,-1.7491,-1.7782,-1.7981,-1.8186,-1.8417,-1.8433,-1.8433,-1.8433,-1.8433,-1.8433,-1.8433,-1.8433,-1.8433,-1.8433,-1.8433,-1.8433,-1.8433,-1.8433,-1.8433,-1.8433,-1.8433,-1.8433,0.0,0.0,0.0,0.0,0.0,0.0,0.0,0.0,0.0,0.0,0.0,0.0,0.0,0.0,0.0,0.0,0.0,0.0,0.0,0.0,0.0,0.0,0.0,0.0,0.0,0.0,0.0,0.0,-2.2594,-2.2594,-2.2594,-2.2594,-2.2594,-2.2594,-2.2594,-2.2594,-2.2594,-2.2594,-2.2594,-2.2594,-2.2594,-2.2603,-2.2637,-2.2946,-2.3331,-2.3717,-2.4093,-2.4424,-2.4821,-2.4821,-2.4821,-2.4821,-2.4821,-2.4821,-2.471,-2.4144,-2.3921,-2.3809,-2.3183,-2.3014,-2.3014,-2.3014,-2.2845,-2.2665,-2.3016,-2.2856,-2.2667,-2.301,-2.2362,-2.1355,-2.0329,-1.9304,-1.8279,-1.726,-1.7001,-1.7001,-1.7001,-1.7001,-1.7001,-1.7001,-1.7001,-1.7001,-1.7001,-1.7001,-1.7001,-1.7001,-1.7001,-1.7087,-1.733,-1.7367,-1.7556,-1.8024,-1.8083,-1.8186,-1.8417,-1.8433,-1.8433,-1.8433,-1.8433,-1.8433,-1.8433,-1.8433,-1.8433,-1.8433,-1.8433,-1.8433,-1.8433,-1.8433,-1.8433,-1.8433,-1.8433,-1.8433,0.0,0.0,0.0,0.0,0.0,0.0,0.0,0.0,0.0,0.0,0.0,0.0,0.0,0.0,0.0,0.0,0.0,0.0,0.0,0.0,0.0,0.0,0.0,0.0,0.0,0.0,0.0,0.0,0.0,-2.2594,-2.2594,-2.2594,-2.2594,-2.2594,-2.2594,-2.2594,-2.2594,-2.2594,-2.2594,-2.2594,-2.2594,-2.2594,-2.2603,-2.274,-2.3135,-2.3727,-2.3811,-2.423,-2.4821,-2.4821,-2.4821,-2.4765,-2.4368,-2.42,-2.4089,-2.3127,-2.2732,-2.2675,-2.2059,-2.1831,-2.1869,-2.2088,-2.2115,-2.2141,-2.2609,-2.2717,-2.2566,-2.2208,-2.1411,-2.0399,-1.9367,-1.8285,-1.7453,-1.7066,-1.7001,-1.7001,-1.7001,-1.7001,-1.7001,-1.7001,-1.7001,-1.7001,-1.7001,-1.7001,-1.7001,-1.7001,-1.7141,-1.7276,-1.7367,-1.7647,-1.79,-1.8078,-1.8223,-1.8347,-1.8358,-1.8433,-1.8433,-1.8433,-1.8433,-1.8433,-1.8433,-1.8433,-1.8433,-1.8433,-1.8433,-1.8433,-1.8433,-1.8433,-1.8433,-1.8433,-1.8433,-1.8433,0.0,0.0,0.0,0.0,0.0,0.0,0.0,0.0,0.0,0.0,0.0,0.0,0.0,0.0,0.0,0.0,0.0,0.0,0.0,0.0,0.0,0.0,0.0,0.0,0.0,0.0,0.0,0.0,0.0,0.0,-2.2585,-2.2594,-2.2594,-2.2594,-2.2594,-2.2594,-2.2594,-2.2594,-2.2594,-2.2594,-2.2594,-2.2594,-2.2594,-2.2594,-2.3006,-2.3718,-2.3718,-2.4102,-2.4821,-2.4821,-2.4821,-2.4765,-2.4144,-2.3921,-2.3745,-2.2562,-2.2116,-2.2002,-2.1439,-2.1284,-2.1408,-2.1628,-2.184,-2.2081,-2.2498,-2.2451,-2.2148,-2.1741,-2.0646,-1.9374,-1.8664,-1.777,-1.7001,-1.7001,-1.7001,-1.7001,-1.7001,-1.7001,-1.7001,-1.7001,-1.7001,-1.7001,-1.7001,-1.7001,-1.7033,-1.7114,-1.727,-1.7437,-1.7599,-1.7895,-1.8121,-1.8196,-1.8342,-1.8433,-1.8433,-1.8433,-1.8433,-1.8433,-1.8433,-1.8433,-1.8433,-1.8433,-1.8433,-1.8433,-1.8433,-1.8433,-1.8433,-1.8433,-1.8433,-1.8433,-1.8433,-1.8433,0.0,0.0,0.0,0.0,0.0,0.0,0.0,0.0,0.0,0.0,0.0,0.0,0.0,0.0,0.0,0.0,0.0,0.0,0.0,0.0,0.0,0.0,0.0,0.0,0.0,0.0,0.0,0.0,-2.1469,-2.157,-2.2492,-2.2577,-2.2585,-2.2594,-2.2594,-2.2594,-2.2594,-2.2594,-2.2594,-2.2594,-2.2594,-2.2594,-2.2594,-2.2594,-2.3006,-2.3718,-2.3718,-2.4102,-2.4821,-2.4821,-2.4765,-2.471,-2.4089,-2.3865,-2.3689,-2.2505,-2.2051,-2.2002,-2.139,-2.143,-2.1701,-2.1715,-2.2132,-2.2623,-2.2569,-2.2114,-2.1607,-2.1544,-2.0075,-1.8472,-1.8472,-1.7706,-1.7001,-1.7001,-1.7001,-1.7001,-1.7001,-1.7001,-1.7001,-1.7001,-1.7001,-1.7001,-1.7001,-1.7012,-1.7098,-1.734,-1.7389,-1.7566,-1.8035,-1.8099,-1.8186,-1.8412,-1.8433,-1.8433,-1.8433,-1.8433,-1.8433,-1.8433,-1.8433,-1.8433,-1.8433,-1.8433,-1.8433,-1.8433,-1.8433,-1.8433,-1.8433,-1.8433,-1.8433,-1.8433,-1.8433,-1.8433,-2.1052,0.0,0.0,0.0,0.0,0.0,0.0,0.0,0.0,0.0,0.0,0.0,0.0,0.0,0.0,0.0,0.0,0.0,0.0,0.0,0.0,0.0,0.0,0.0,0.0,0.0,0.0,0.0,-2.0703,-2.0948,-2.1202,-2.1799,-2.2319,-2.2585,-2.2594,-2.2594,-2.2594,-2.2594,-2.2594,-2.2594,-2.2594,-2.2594,-2.2594,-2.2594,-2.3006,-2.3718,-2.3682,-2.4119,-2.4821,-2.4821,-2.4535,-2.4089,-2.3464,-2.2958,-2.2505,-2.1717,-2.1432,-2.1469,-2.1539,-2.162,-2.1767,-2.222,-2.2484,-2.2483,-2.2039,-2.1727,-2.1292,-1.975,-1.892,-1.8343,-1.7577,-1.7195,-1.7001,-1.7001,-1.7001,-1.7001,-1.7001,-1.7001,-1.7001,-1.7001,-1.7001,-1.7001,-1.7001,-1.7152,-1.7297,-1.7367,-1.7674,-1.7943,-1.8078,-1.8239,-1.8363,-1.8358,-1.8433,-1.8433,-1.8433,-1.8433,-1.8433,-1.8433,-1.8433,-1.8433,-1.8433,-1.8433,-1.8433,-1.8433,-1.8433,-1.8433,-1.8433,-1.8433,-1.8433,-1.8433,-1.8433,-1.8433,0.0,0.0,0.0,0.0,0.0,0.0,0.0,-2.2919,0.0,0.0,0.0,0.0,0.0,0.0,0.0,0.0,0.0,0.0,0.0,0.0,0.0,0.0,0.0,0.0,0.0,-1.8463,-1.8839,-1.9614,-1.975,-2.0063,-2.0652,-2.1546,-2.2098,-2.2362,-2.2517,-2.2594,-2.2594,-2.2594,-2.2594,-2.2594,-2.2594,-2.2594,-2.2594,-2.2594,-2.3006,-2.3718,-2.3691,-2.3965,-2.4423,-2.4423,-2.42,-2.3809,-2.2958,-2.2392,-2.2059,-2.1432,-2.1211,-2.1262,-2.1584,-2.1789,-2.1979,-2.2462,-2.2718,-2.2672,-2.1867,-2.1292,-2.0652,-1.8984,-1.8215,-1.777,-1.713,-1.7001,-1.7001,-1.7001,-1.7001,-1.7001,-1.7001,-1.7001,-1.7001,-1.7001,-1.7001,-1.7039,-1.7141,-1.7281,-1.7448,-1.7647,-1.7911,-1.8126,-1.8223,-1.8352,-1.8433,-1.8433,-1.8433,-1.8433,-1.8433,-1.8433,-1.8433,-1.8433,-1.8433,-1.8433,-1.8433,-1.8433,-1.8433,-1.8433,-1.8433,-1.8433,-1.8433,-1.8433,-1.8433,-1.8433,-1.8433,-1.8433,0.0,0.0,0.0,0.0,0.0,0.0,-2.3821,-2.3034,-2.2269,0.0,0.0,0.0,0.0,0.0,0.0,0.0,0.0,0.0,0.0,0.0,0.0,0.0,0.0,0.0,-1.7939,-1.7567,-1.7819,-1.906,-1.8767,-1.9113,-2.0482,-2.1389,-2.1855,-2.1897,-2.2355,-2.2594,-2.2594,-2.2594,-2.2594,-2.2594,-2.2594,-2.2594,-2.2594,-2.2594,-2.3006,-2.3718,-2.3638,-2.3686,-2.3913,-2.3745,-2.3689,-2.3576,-2.2505,-2.2059,-2.1945,-2.1375,-2.1211,-2.1262,-2.1584,-2.1913,-2.2228,-2.2528,-2.278,-2.2731,-2.1734,-2.0716,-1.9693,-1.86,-1.7706,-1.7001,-1.7001,-1.7001,-1.7001,-1.7001,-1.7001,-1.7001,-1.7001,-1.7001,-1.7001,-1.7001,-1.7001,-1.7087,-1.7335,-1.74,-1.7572,-1.8024,-1.8116,-1.8207,-1.8412,-1.8433,-1.8433,-1.8433,-1.8433,-1.8433,-1.8433,-1.8433,-1.8433,-1.8433,-1.8433,-1.8433,-1.8433,-1.8433,-1.8433,-1.8433,-1.8433,-1.8433,-1.8433,-1.8433,-1.8433,-1.8433,-1.8433,-1.8433,-2.1663,-2.2214,-2.273,0.0,0.0,0.0,0.0,-2.2382,-2.2137,0.0,0.0,0.0,0.0,0.0,0.0,0.0,0.0,0.0,0.0,0.0,0.0,0.0,0.0,0.0,-1.7473,-1.738,-1.7402,-1.7695,-1.7991,-1.8605,-1.9613,-2.0465,-2.1095,-2.137,-2.2146,-2.2594,-2.2594,-2.2594,-2.2594,-2.2594,-2.2594,-2.2594,-2.2594,-2.2594,-2.3006,-2.3665,-2.3204,-2.3307,-2.3801,-2.2845,-2.2449,-2.2449,-2.2173,-2.1774,-2.1382,-2.1268,-2.1211,-2.1262,-2.1584,-2.1913,-2.2228,-2.2528,-2.2286,-2.1734,-2.0716,-1.9629,-1.86,-1.7577,-1.713,-1.7001,-1.7001,-1.7001,-1.7001,-1.7001,-1.7001,-1.7001,-1.7001,-1.7001,-1.7001,-1.7001,-1.7001,-1.7087,-1.7335,-1.7529,-1.7749,-1.8051,-1.825,-1.8385,-1.8358,-1.8433,-1.8433,-1.8433,-1.8433,-1.8433,-1.8433,-1.8433,-1.8433,-1.8433,-1.8433,-1.8433,-1.8433,-1.8433,-1.8433,-1.8433,-1.8433,-1.8433,-1.8433,-1.8433,-1.8433,-1.8433,-1.8433,-1.8433,-2.2326,-2.273,-2.3064,-2.3064,0.0,0.0,0.0,0.0,0.0,0.0,0.0,0.0,0.0,0.0,0.0,0.0,0.0,0.0,0.0,0.0,0.0,0.0,0.0,0.0,-1.7326,-1.7279,-1.7279,-1.7279,-1.78,-1.8295,-1.8746,-1.9558,-2.02,-2.0557,-2.1412,-2.1996,-2.2131,-2.2131,-2.2291,-2.2594,-2.2291,-2.2291,-2.2594,-2.2594,-2.2852,-2.3249,-2.2946,-2.2871,-2.2958,-2.2335,-2.1945,-2.166,-2.166,-2.1489,-2.1211,-2.1211,-2.1211,-2.1262,-2.1584,-2.1913,-2.2168,-2.1918,-2.1735,-2.1285,-1.9756,-1.86,-1.7641,-1.713,-1.7001,-1.7001,-1.7001,-1.7001,-1.7001,-1.7001,-1.7001,-1.7001,-1.7001,-1.7001,-1.7001,-1.7001,-1.7001,-1.712,-1.7486,-1.7642,-1.7841,-1.8207,-1.8363,-1.8433,-1.8433,-1.8433,-1.8433,-1.8433,-1.8433,-1.8433,-1.8433,-1.8433,-1.8433,-1.8433,-1.8433,-1.8433,-1.8433,-1.8433,-1.8433,-1.8433,-1.8433,-1.8433,-1.8433,-1.8433,-1.8433,-1.8433,-1.8433,-1.8433,0.0,0.0,0.0,0.0,0.0,-2.3645,0.0,0.0,0.0,0.0,0.0,0.0,0.0,0.0,0.0,0.0,0.0,0.0,0.0,0.0,0.0,0.0,0.0,0.0,-1.7326,-1.7279,-1.7279,-1.7279,-1.7707,-1.7947,-1.7947,-1.8777,-1.9407,-1.9755,-2.0597,-2.1204,-2.1522,-2.1522,-2.1776,-2.2291,-2.1878,-2.1979,-2.2443,-2.2443,-2.2551,-2.2786,-2.2572,-2.2316,-2.2108,-2.1945,-2.166,-2.1211,-2.1211,-2.1211,-2.1211,-2.1211,-2.1211,-2.1247,-2.1511,-2.1736,-2.1792,-2.1175,-2.0995,-2.0652,-1.8792,-1.7641,-1.7001,-1.7001,-1.7001,-1.7001,-1.7001,-1.7001,-1.7001,-1.7001,-1.7001,-1.7001,-1.7001,-1.7001,-1.7001,-1.7001,-1.7001,-1.7157,-1.7636,-1.7717,-1.7884,-1.8363,-1.8433,-1.8433,-1.8433,-1.8433,-1.8433,-1.8433,-1.8433,-1.8433,-1.8433,-1.8433,-1.8433,-1.8433,-1.8433,-1.8433,-1.8433,-1.8433,-1.8433,-1.8433,-1.8433,-1.8433,-1.8433,-1.8433,-1.8433,-1.8433,-1.8433,-1.8293,0.0,0.0,0.0,0.0,-2.4061,0.0,0.0,0.0,0.0,0.0,0.0,0.0,0.0,0.0,0.0,0.0,0.0,0.0,0.0,0.0,0.0,0.0,0.0,0.0,0.0,-1.7279,-1.7279,-1.7279,-1.738,-1.738,-1.738,-1.821,-1.8831,-1.9203,-2.0053,-2.066,-2.0968,-2.0968,-2.1027,-2.1078,-2.1522,-2.1725,-2.1827,-2.1827,-2.219,-2.2733,-2.175,-2.1593,-2.2059,-2.1489,-2.1268,-2.1211,-2.1211,-2.1211,-2.1211,-2.1211,-2.1211,-2.1218,-2.1247,-2.1064,-2.0765,-2.0678,-1.9829,-1.8664,-1.7512,-1.7066,-1.7001,-1.7001,-1.7001,-1.7001,-1.7001,-1.7001,-1.7001,-1.7001,-1.7001,-1.7001,-1.7001,-1.7001,-1.7001,-1.7001,-1.7001,-1.7157,-1.7636,-1.7717,-1.7884,-1.8363,-1.8433,-1.8433,-1.8433,-1.8433,-1.8433,-1.8433,-1.8433,-1.8433,-1.8433,-1.8433,-1.8433,-1.8433,-1.8433,-1.8433,-1.8433,-1.8433,-1.8433,-1.8433,-1.8433,-1.8433,-1.8433,-1.8433,-1.8433,-1.8433,-1.8433,-1.8082,0.0,0.0,0.0,0.0,0.0,0.0,0.0,0.0,-2.2402,0.0,0.0,0.0,0.0,0.0,0.0,0.0,0.0,0.0,0.0,0.0,0.0,0.0,0.0,0.0,0.0,0.0,0.0,0.0,-1.7279,-1.7279,-1.7279,-1.7646,-1.8107,-1.8622,-1.9315,-1.9895,-2.0439,-2.0447,-2.0609,-2.0925,-2.0806,-2.0909,-2.1224,-2.1224,-2.1454,-2.1804,-2.131,-2.1262,-2.1546,-2.1318,-2.1211,-2.1211,-2.1211,-2.1211,-2.1211,-2.1211,-2.1211,-2.1096,-2.0572,-2.0375,-2.0306,-1.9498,-1.8494,-1.7577,-1.713,-1.7001,-1.7001,-1.7001,-1.7001,-1.7001,-1.7001,-1.7001,-1.7001,-1.7001,-1.7001,-1.7001,-1.7001,-1.7001,-1.7001,-1.7001,-1.7001,-1.7114,-1.7464,-1.7631,-1.7836,-1.8186,-1.8352,-1.8433,-1.8433,-1.8433,-1.8433,-1.8433,-1.8433,-1.8433,-1.8433,-1.8433,-1.8433,-1.8433,-1.8433,-1.8433,-1.8433,-1.8433,-1.8433,-1.8433,-1.8433,-1.8433,-1.8433,-1.8433,-1.8433,-1.8433,-1.8433,-1.8012,-2.4033,0.0,0.0,0.0,0.0,0.0,0.0,0.0,0.0,0.0,0.0,0.0,0.0,0.0,0.0,0.0,0.0,0.0,0.0,0.0,0.0,0.0,0.0,0.0,0.0,0.0,0.0,0.0,0.0,-1.7279,-1.7279,-1.7279,-1.7625,-1.8284,-1.8686,-1.92,-1.9872,-1.9879,-2.0094,-2.0454,-2.0241,-2.0292,-2.066,-2.0762,-2.0921,-2.1101,-2.1029,-2.1074,-2.1211,-2.1211,-2.1211,-2.1211,-2.1211,-2.1211,-2.1153,-2.0917,-2.0802,-2.0687,-1.9751,-1.9521,-1.938,-1.822,-1.7502,-1.7001,-1.7001,-1.7001,-1.7001,-1.7001,-1.7001,-1.7001,-1.7001,-1.7001,-1.7001,-1.7001,-1.7001,-1.7001,-1.7001,-1.7001,-1.7001,-1.7001,-1.7001,-1.706,-1.7243,-1.7523,-1.7803,-1.8056,-1.8288,-1.8433,-1.8433,-1.8433,-1.8433,-1.8433,-1.8433,-1.8433,-1.8433,-1.8433,-1.8433,-1.8433,-1.8433,-1.8433,-1.8433,-1.8433,-1.8433,-1.8433,-1.8433,-1.8433,-1.8433,-1.8433,-1.8433,-1.8433,-1.8433,-1.7872,0.0,0.0,0.0,-2.3201,0.0,0.0,0.0,0.0,-2.2638,0.0,0.0,0.0,0.0,0.0,0.0,0.0,0.0,0.0,0.0,0.0,0.0,0.0,0.0,0.0,0.0,0.0,0.0,0.0,-1.7461,-1.7279,-1.7279,-1.7279,-1.7625,-1.8284,-1.8299,-1.8663,-1.9324,-1.9331,-1.9324,-1.9376,-1.9879,-2.0138,-2.0145,-2.0474,-2.0765,-2.1116,-2.0844,-2.0896,-2.1211,-2.1211,-2.1211,-2.1211,-2.1211,-2.1211,-2.1096,-2.0162,-1.9815,-1.9693,-1.8745,-1.8163,-1.7725,-1.7218,-1.6996,-1.7001,-1.7001,-1.7001,-1.7001,-1.7001,-1.7001,-1.7001,-1.7001,-1.7001,-1.7001,-1.7001,-1.7001,-1.7001,-1.7001,-1.7001,-1.7001,-1.7001,-1.7001,-1.7007,-1.7017,-1.7405,-1.7803,-1.8056,-1.8288,-1.8433,-1.8433,-1.8433,-1.8433,-1.8433,-1.8433,-1.8433,-1.8433,-1.8433,-1.8433,-1.8433,-1.8433,-1.8433,-1.8433,-1.8433,-1.8433,-1.8433,-1.8433,-1.8433,-1.8433,-1.8433,-1.8433,-1.8433,-1.8433,-1.759,0.0,0.0,-2.5807,-2.4108,0.0,0.0,0.0,0.0,0.0,0.0,0.0,0.0,0.0,0.0,0.0,0.0,0.0,0.0,0.0,0.0,0.0,0.0,0.0,0.0,0.0,0.0,0.0,0.0,-1.7472,0.0,-1.7293,-1.7279,-1.7625,-1.8284,-1.8299,-1.8613,-1.9264,-1.9279,-1.9279,-1.9279,-1.948,-1.9576,-1.9591,-1.9925,-2.0253,-2.0518,-2.0637,-2.0911,-2.1211,-2.1211,-2.1211,-2.1211,-2.1211,-2.0802,-2.022,-1.9931,-1.9815,-1.9604,-1.8211,-1.7309,-1.6796,-1.6805,-1.6883,-1.7001,-1.7001,-1.7001,-1.7001,-1.7001,-1.7001,-1.7001,-1.7001,-1.7001,-1.7001,-1.7001,-1.7001,-1.7001,-1.7001,-1.7001,-1.7001,-1.7001,-1.7001,-1.7001,-1.7001,-1.7276,-1.7577,-1.7814,-1.8186,-1.8433,-1.8433,-1.8433,-1.8433,-1.8433,-1.8433,-1.8433,-1.8433,-1.8433,-1.8433,-1.8433,-1.8433,-1.8433,-1.8433,-1.8433,-1.8433,-1.8433,-1.8433,-1.8433,-1.8433,-1.8433,-1.8153,-1.7661,-1.7661,-1.7168,-2.6037,-2.626,0.0,-2.4786,-2.4453,0.0,-2.2702,0.0,0.0,0.0,0.0,0.0,0.0,0.0,0.0,0.0,0.0,0.0,0.0,0.0,0.0,0.0,0.0,0.0,0.0,0.0,-1.8361,-1.7446,-1.7435,0.0,0.0,-1.7344,-1.7625,-1.8284,-1.8299,-1.8613,-1.9264,-1.9279,-1.9279,-1.9279,-1.9279,-1.9338,-1.9514,-1.9784,-2.0106,-2.0428,-2.0757,-2.1013,-2.1211,-2.1211,-2.1211,-2.1153,-2.0802,-2.0335,-1.9758,-1.9455,-1.8933,-1.8298,-1.7328,-1.673,-1.6479,-1.671,-1.6883,-1.7001,-1.7001,-1.7001,-1.7001,-1.7001,-1.7001,-1.7001,-1.7001,-1.7001,-1.7001,-1.7001,-1.7001,-1.7001,-1.7001,-1.7001,-1.7001,-1.7001,-1.7001,-1.7001,-1.7001,-1.7211,-1.7432,-1.7577,-1.8008,-1.8315,-1.8315,-1.8385,-1.8433,-1.8433,-1.8433,-1.8433,-1.8433,-1.8433,-1.8433,-1.8433,-1.8433,-1.8433,-1.8433,-1.8433,-1.8433,-1.8433,-1.8433,-1.8433,-1.8433,-1.8433,-1.8012,-1.7308,-1.7308,-1.6739]},{"header":{"parameterUnit":"m.s-1","parameterCategory":1,"la1":30.6,"la2":29.2853,"lo1":-89.7004,"lo2":-87.6739,"dy":0.0162,"dx":0.0183,"nx":112,"ny":82,"refTime":"2026-03-08T00:00:00:Z","depth":0,"parameterNumber":3,"parameterNumberName":"V-component_of_WINDS"},"data":[0.0,0.0,0.0,0.0,0.0,0.0,0.0,0.0,0.0,0.0,0.0,0.0,0.0,0.0,0.0,0.0,0.0,0.0,0.0,0.0,0.0,0.0,0.0,0.0,0.0,0.0,0.0,0.0,0.0,0.0,0.0,0.0,0.0,0.0,0.0,0.0,0.0,0.0,0.0,0.0,0.0,0.0,0.0,0.0,0.0,0.0,0.0,0.0,0.0,0.0,0.0,0.0,0.0,0.0,0.0,0.0,0.0,0.0,0.0,0.0,0.0,0.0,0.0,0.0,0.0,0.0,0.0,0.0,0.0,0.0,0.0,0.0,0.0,0.0,0.0,0.0,0.0,0.0,0.0,0.0,0.0,0.0,0.0,0.0,0.0,0.0,0.0,0.0,0.0,0.0,0.0,3.1823,3.3674,3.4715,3.43,3.4568,3.3997,3.2255,0.0,0.0,0.0,0.0,0.0,0.0,0.0,0.0,0.0,0.0,0.0,0.0,0.0,0.0,0.0,0.0,0.0,0.0,0.0,0.0,0.0,0.0,0.0,0.0,0.0,0.0,0.0,0.0,0.0,0.0,0.0,0.0,0.0,0.0,0.0,0.0,0.0,0.0,0.0,0.0,0.0,0.0,0.0,0.0,0.0,0.0,0.0,0.0,0.0,0.0,0.0,0.0,0.0,0.0,0.0,0.0,0.0,0.0,0.0,0.0,0.0,0.0,0.0,0.0,0.0,0.0,0.0,0.0,0.0,0.0,0.0,0.0,0.0,0.0,0.0,0.0,0.0,0.0,0.0,0.0,0.0,0.0,0.0,0.0,0.0,0.0,0.0,0.0,0.0,0.0,0.0,0.0,0.0,0.0,0.0,0.0,0.0,0.0,0.0,0.0,0.0,0.0,0.0,0.0,3.1501,3.4223,3.4748,3.4923,3.4947,3.4436,3.3744,3.2813,0.0,0.0,0.0,0.0,0.0,0.0,0.0,0.0,0.0,0.0,0.0,0.0,0.0,0.0,0.0,0.0,0.0,0.0,0.0,0.0,0.0,0.0,0.0,0.0,0.0,0.0,0.0,0.0,0.0,0.0,0.0,0.0,0.0,0.0,0.0,0.0,0.0,0.0,0.0,0.0,0.0,0.0,0.0,0.0,0.0,0.0,0.0,0.0,0.0,0.0,0.0,0.0,0.0,0.0,0.0,0.0,0.0,0.0,0.0,0.0,0.0,0.0,0.0,0.0,0.0,0.0,0.0,0.0,0.0,0.0,0.0,0.0,0.0,0.0,0.0,0.0,0.0,0.0,0.0,0.0,0.0,0.0,0.0,0.0,0.0,0.0,0.0,0.0,0.0,0.0,0.0,0.0,0.0,0.0,0.0,0.0,0.0,0.0,0.0,0.0,0.0,0.0,0.0,3.1178,3.2663,3.5057,3.5198,3.5152,3.5198,3.4904,3.4196,3.2978,3.1571,0.0,0.0,0.0,0.0,0.0,0.0,0.0,0.0,0.0,0.0,0.0,0.0,0.0,0.0,0.0,0.0,0.0,0.0,0.0,0.0,0.0,0.0,0.0,0.0,0.0,0.0,0.0,0.0,0.0,0.0,0.0,0.0,0.0,0.0,0.0,0.0,0.0,0.0,0.0,0.0,0.0,0.0,0.0,0.0,0.0,0.0,0.0,0.0,0.0,0.0,0.0,0.0,0.0,0.0,0.0,0.0,0.0,0.0,0.0,0.0,0.0,0.0,0.0,0.0,0.0,0.0,0.0,0.0,0.0,0.0,0.0,0.0,0.0,0.0,0.0,0.0,0.0,0.0,0.0,0.0,0.0,0.0,0.0,0.0,0.0,0.0,0.0,0.0,0.0,0.0,0.0,0.0,0.0,0.0,0.0,0.0,0.0,0.0,0.0,0.0,0.0,0.0,3.3183,3.4141,3.5374,3.5551,3.5498,3.5354,3.5354,3.4655,3.3039,3.1425,0.0,0.0,0.0,0.0,0.0,0.0,0.0,0.0,0.0,0.0,0.0,0.0,0.0,0.0,0.0,0.0,0.0,0.0,0.0,0.0,0.0,0.0,0.0,0.0,0.0,0.0,0.0,0.0,0.0,0.0,0.0,0.0,0.0,0.0,0.0,0.0,0.0,0.0,0.0,0.0,0.0,0.0,0.0,0.0,0.0,0.0,0.0,0.0,0.0,0.0,0.0,0.0,0.0,0.0,0.0,0.0,0.0,0.0,0.0,0.0,0.0,0.0,0.0,0.0,0.0,0.0,0.0,0.0,0.0,0.0,0.0,0.0,0.0,0.0,0.0,0.0,0.0,0.0,0.0,0.0,0.0,0.0,0.0,0.0,0.0,0.0,0.0,0.0,0.0,0.0,0.0,0.0,0.0,0.0,0.0,0.0,0.0,0.0,0.0,0.0,0.0,0.0,3.4044,3.5374,3.5492,3.5988,3.6098,3.5519,3.5492,3.4807,3.3187,3.1123,0.0,0.0,0.0,0.0,0.0,0.0,0.0,0.0,0.0,0.0,0.0,0.0,0.0,0.0,0.0,0.0,0.0,0.0,0.0,0.0,0.0,0.0,0.0,0.0,0.0,0.0,0.0,0.0,0.0,0.0,0.0,0.0,0.0,0.0,0.0,0.0,0.0,0.0,0.0,0.0,0.0,0.0,0.0,0.0,0.0,0.0,0.0,0.0,0.0,0.0,0.0,0.0,0.0,0.0,0.0,0.0,0.0,0.0,0.0,0.0,0.0,0.0,0.0,0.0,0.0,0.0,0.0,0.0,0.0,0.0,0.0,0.0,0.0,0.0,0.0,0.0,0.0,0.0,0.0,0.0,0.0,0.0,0.0,0.0,0.0,0.0,0.0,0.0,0.0,0.0,0.0,0.0,0.0,0.0,0.0,0.0,0.0,0.0,0.0,0.0,0.0,0.0,3.3951,3.5712,0.0,3.651,3.6561,3.6314,3.5858,3.4902,3.3311,0.0,0.0,0.0,0.0,0.0,0.0,0.0,0.0,0.0,0.0,0.0,0.0,0.0,0.0,0.0,0.0,0.0,0.0,0.0,0.0,0.0,0.0,0.0,0.0,0.0,0.0,0.0,0.0,0.0,0.0,0.0,0.0,0.0,0.0,0.0,0.0,0.0,0.0,0.0,0.0,0.0,0.0,0.0,0.0,0.0,0.0,0.0,0.0,0.0,0.0,0.0,0.0,0.0,0.0,0.0,0.0,0.0,0.0,0.0,0.0,0.0,0.0,0.0,0.0,0.0,0.0,0.0,0.0,0.0,0.0,0.0,0.0,0.0,0.0,0.0,0.0,0.0,0.0,0.0,0.0,0.0,0.0,0.0,0.0,0.0,0.0,0.0,0.0,0.0,0.0,0.0,0.0,0.0,0.0,0.0,0.0,0.0,0.0,0.0,0.0,0.0,0.0,3.1907,3.4331,3.6128,0.0,3.7015,3.7066,3.6829,3.6062,3.4829,3.3039,0.0,0.0,0.0,0.0,0.0,0.0,0.0,0.0,0.0,0.0,0.0,0.0,0.0,0.0,0.0,0.0,0.0,0.0,0.0,0.0,0.0,0.0,0.0,0.0,0.0,0.0,0.0,0.0,0.0,0.0,0.0,0.0,0.0,0.0,0.0,0.0,0.0,0.0,0.0,0.0,0.0,0.0,0.0,0.0,0.0,0.0,0.0,0.0,0.0,0.0,0.0,0.0,0.0,0.0,0.0,0.0,0.0,0.0,0.0,0.0,0.0,0.0,0.0,0.0,0.0,0.0,0.0,0.0,0.0,0.0,0.0,0.0,0.0,0.0,0.0,0.0,0.0,0.0,0.0,0.0,0.0,0.0,0.0,0.0,0.0,0.0,0.0,0.0,0.0,0.0,0.0,0.0,0.0,0.0,0.0,0.0,0.0,0.0,0.0,0.0,0.0,0.0,3.3178,3.5385,3.6829,3.6829,3.7466,3.7601,3.688,3.6079,3.4592,0.0,0.0,0.0,0.0,0.0,0.0,0.0,0.0,0.0,0.0,0.0,0.0,0.0,0.0,0.0,0.0,0.0,0.0,0.0,0.0,0.0,0.0,0.0,0.0,0.0,0.0,0.0,0.0,0.0,0.0,0.0,0.0,0.0,0.0,0.0,0.0,0.0,0.0,0.0,0.0,0.0,0.0,0.0,0.0,0.0,0.0,0.0,0.0,0.0,0.0,0.0,0.0,0.0,0.0,0.0,0.0,0.0,0.0,0.0,0.0,0.0,0.0,0.0,0.0,0.0,0.0,0.0,0.0,0.0,0.0,0.0,0.0,0.0,0.0,0.0,0.0,0.0,0.0,0.0,0.0,0.0,0.0,0.0,0.0,0.0,0.0,0.0,0.0,0.0,0.0,0.0,0.0,0.0,0.0,0.0,0.0,0.0,0.0,0.0,0.0,0.0,0.0,0.0,3.3892,3.6163,3.777,3.8294,3.8075,3.7821,3.7601,3.6343,3.4636,3.2367,0.0,0.0,0.0,0.0,0.0,0.0,0.0,0.0,0.0,0.0,0.0,0.0,0.0,0.0,0.0,0.0,0.0,0.0,0.0,0.0,0.0,0.0,0.0,0.0,0.0,0.0,0.0,0.0,0.0,0.0,0.0,0.0,0.0,0.0,0.0,0.0,0.0,0.0,0.0,0.0,0.0,0.0,0.0,0.0,0.0,0.0,0.0,0.0,0.0,0.0,0.0,0.0,0.0,0.0,0.0,0.0,0.0,0.0,0.0,0.0,0.0,0.0,0.0,0.0,0.0,0.0,0.0,0.0,0.0,0.0,0.0,0.0,0.0,0.0,0.0,0.0,0.0,0.0,0.0,0.0,0.0,0.0,0.0,0.0,0.0,0.0,0.0,0.0,0.0,0.0,0.0,0.0,0.0,0.0,0.0,0.0,0.0,0.0,0.0,0.0,0.0,0.0,3.4728,3.708,3.8904,3.9923,3.9634,3.9142,3.8564,3.7369,3.545,3.2601,0.0,0.0,0.0,0.0,0.0,0.0,0.0,0.0,0.0,0.0,0.0,0.0,0.0,0.0,0.0,0.0,0.0,0.0,0.0,0.0,0.0,0.0,0.0,0.0,0.0,0.0,0.0,0.0,0.0,0.0,0.0,0.0,0.0,0.0,0.0,0.0,0.0,0.0,0.0,0.0,0.0,0.0,0.0,0.0,0.0,0.0,0.0,0.0,0.0,0.0,0.0,0.0,0.0,0.0,0.0,0.0,0.0,0.0,0.0,0.0,0.0,0.0,0.0,0.0,0.0,0.0,0.0,0.0,0.0,0.0,0.0,0.0,0.0,0.0,0.0,0.0,0.0,0.0,0.0,0.0,0.0,0.0,0.0,0.0,0.0,0.0,0.0,0.0,0.0,0.0,0.0,0.0,0.0,0.0,0.0,0.0,0.0,0.0,0.0,0.0,0.0,0.0,3.5606,3.7979,3.9997,4.1552,4.1638,4.1057,3.9723,3.88,3.6727,3.3054,0.0,0.0,0.0,0.0,0.0,0.0,0.0,0.0,0.0,0.0,0.0,0.0,0.0,0.0,0.0,0.0,0.0,0.0,0.0,0.0,0.0,0.0,0.0,0.0,0.0,0.0,0.0,0.0,0.0,0.0,0.0,0.0,0.0,0.0,0.0,0.0,0.0,0.0,0.0,0.0,0.0,0.0,0.0,0.0,0.0,0.0,0.0,0.0,0.0,0.0,0.0,0.0,0.0,0.0,0.0,0.0,0.0,0.0,0.0,0.0,2.9229,0.0,0.0,0.0,0.0,0.0,0.0,0.0,0.0,0.0,0.0,0.0,0.0,0.0,0.0,0.0,0.0,0.0,0.0,0.0,0.0,0.0,0.0,0.0,0.0,0.0,0.0,0.0,0.0,0.0,0.0,0.0,0.0,0.0,0.0,0.0,0.0,0.0,0.0,0.0,0.0,0.0,3.6287,3.8303,4.0219,4.2313,4.198,4.1467,4.1159,3.9399,3.7194,3.4558,0.0,0.0,0.0,0.0,0.0,0.0,0.0,0.0,0.0,0.0,0.0,0.0,0.0,0.0,0.0,0.0,0.0,0.0,0.0,0.0,0.0,0.0,0.0,0.0,0.0,0.0,0.0,0.0,0.0,0.0,0.0,0.0,0.0,0.0,0.0,0.0,0.0,0.0,0.0,0.0,0.0,0.0,0.0,0.0,0.0,0.0,0.0,0.0,0.0,0.0,0.0,0.0,0.0,0.0,0.0,0.0,0.0,0.0,0.0,0.0,0.0,3.1091,0.0,0.0,0.0,0.0,0.0,0.0,0.0,0.0,0.0,0.0,0.0,0.0,0.0,0.0,0.0,0.0,0.0,0.0,0.0,0.0,0.0,0.0,0.0,0.0,0.0,0.0,0.0,0.0,0.0,0.0,0.0,0.0,0.0,0.0,0.0,0.0,0.0,0.0,0.0,0.0,3.7763,3.9345,4.0971,4.3271,4.2833,4.2215,4.1837,4.0429,3.8591,3.629,3.3945,0.0,0.0,0.0,0.0,0.0,0.0,0.0,0.0,0.0,0.0,0.0,0.0,0.0,0.0,0.0,0.0,0.0,0.0,0.0,0.0,0.0,0.0,0.0,0.0,0.0,0.0,0.0,0.0,0.0,0.0,0.0,0.0,0.0,0.0,0.0,0.0,0.0,0.0,0.0,0.0,0.0,0.0,0.0,0.0,0.0,0.0,0.0,0.0,0.0,0.0,0.0,0.0,0.0,3.3011,3.3928,3.3998,3.4585,3.5477,3.6364,3.3722,3.3686,3.5324,3.3648,0.0,0.0,0.0,0.0,0.0,0.0,0.0,0.0,0.0,0.0,0.0,0.0,0.0,0.0,0.0,0.0,0.0,0.0,0.0,0.0,0.0,0.0,0.0,0.0,3.5526,3.4816,0.0,0.0,0.0,0.0,0.0,0.0,0.0,0.0,0.0,0.0,0.0,0.0,3.894,4.0272,4.1723,4.388,4.3552,4.293,4.2275,4.1412,3.998,3.784,3.5446,3.3461,0.0,0.0,0.0,0.0,0.0,0.0,0.0,0.0,0.0,0.0,0.0,0.0,0.0,0.0,0.0,0.0,0.0,0.0,0.0,0.0,0.0,0.0,0.0,0.0,0.0,0.0,0.0,0.0,0.0,0.0,0.0,0.0,2.7026,2.7103,0.0,0.0,0.0,0.0,0.0,0.0,0.0,0.0,0.0,0.0,0.0,0.0,0.0,3.0771,3.1859,3.2628,3.3234,3.3711,3.5266,3.6224,3.6696,3.6957,3.7469,3.8162,3.7803,0.0,3.6761,3.5952,0.0,0.0,0.0,0.0,0.0,0.0,0.0,0.0,0.0,0.0,0.0,0.0,0.0,0.0,0.0,0.0,0.0,0.0,0.0,0.0,0.0,0.0,3.7353,3.7969,3.7641,3.7077,0.0,3.3814,3.1109,3.0254,3.0186,0.0,0.0,0.0,0.0,0.0,0.0,0.0,3.8236,3.9962,4.1533,4.3172,4.3258,4.3155,4.3051,4.1723,4.0204,3.8543,3.6301,3.4332,3.2798,3.1231,0.0,0.0,0.0,0.0,0.0,0.0,0.0,0.0,0.0,0.0,0.0,0.0,0.0,0.0,0.0,0.0,0.0,0.0,0.0,0.0,0.0,0.0,0.0,0.0,0.0,0.0,0.0,0.0,0.0,2.7294,2.8381,2.8011,2.8304,2.8227,0.0,0.0,0.0,0.0,0.0,0.0,0.0,0.0,0.0,3.2059,3.2105,3.2595,3.3679,3.4374,3.4889,3.5234,3.6254,3.7189,3.8045,3.8144,3.8718,3.9621,3.9662,3.9419,3.894,3.7936,3.6796,3.562,0.0,0.0,0.0,0.0,3.426,3.5227,3.6315,3.678,0.0,3.6913,0.0,0.0,0.0,0.0,0.0,0.0,0.0,0.0,0.0,0.0,3.8819,3.9129,3.8957,3.8755,3.8755,3.7012,3.4905,0.0,3.2479,3.1963,3.0365,0.0,0.0,0.0,0.0,0.0,3.9514,4.0474,4.1326,4.2413,4.2154,4.2085,4.2499,4.1533,4.0618,3.9945,3.8525,3.6853,3.4887,3.3783,3.2723,0.0,0.0,0.0,0.0,0.0,0.0,0.0,0.0,0.0,0.0,0.0,0.0,0.0,0.0,0.0,0.0,0.0,0.0,0.0,0.0,0.0,0.0,0.0,0.0,0.0,0.0,0.0,0.0,2.8535,2.9735,2.9227,2.992,2.9904,0.0,0.0,0.0,0.0,0.0,0.0,3.194,3.2156,3.2789,3.4021,3.4068,3.4527,3.5512,3.6024,3.6442,3.6811,3.7463,3.8223,3.91,3.924,3.98,4.0688,4.0688,4.0688,4.0595,3.9522,3.8596,3.7774,3.6763,3.5861,3.5226,3.5836,3.634,3.6912,3.8468,3.8747,3.8537,3.8974,3.8069,3.6689,3.6037,0.0,0.0,0.0,0.0,3.7823,3.8013,3.887,3.975,3.9957,4.0008,4.0008,4.0008,3.9405,3.8094,0.0,3.4976,3.4372,3.2455,0.0,0.0,0.0,0.0,3.8461,4.0359,4.0774,4.1119,4.1671,4.124,4.1119,4.1671,4.1222,4.0825,4.0618,4.0049,3.8898,3.7016,3.6246,3.5109,3.3457,0.0,0.0,0.0,0.0,0.0,0.0,0.0,0.0,0.0,0.0,0.0,0.0,0.0,0.0,0.0,0.0,0.0,0.0,0.0,0.0,0.0,0.0,0.0,0.0,0.0,0.0,0.0,0.0,0.0,3.1243,3.2398,0.0,0.0,0.0,0.0,3.1274,3.2459,3.3301,3.3562,3.4182,3.4938,3.5831,3.5876,3.65,3.781,3.7873,3.8231,3.895,3.9563,3.9946,4.0142,4.0733,4.1045,4.1153,4.1153,4.1153,4.1138,4.0603,3.9687,3.8531,3.8472,3.7694,3.6651,3.7202,3.8378,3.9665,3.9593,4.0064,4.0744,4.0767,3.9733,3.8474,3.8439,3.7939,0.0,0.0,3.7922,3.8698,3.9405,3.9629,3.9888,4.067,4.0843,4.0843,4.0843,4.0221,3.9181,0.0,3.734,3.7064,3.6163,0.0,3.6404,3.7219,3.8008,3.8836,3.9646,4.0446,4.0912,4.0963,4.0929,4.0929,4.0963,4.0929,4.0584,3.9802,3.9847,3.9512,3.872,3.803,3.7297,3.6481,3.5327,0.0,0.0,0.0,0.0,0.0,0.0,0.0,0.0,0.0,0.0,0.0,0.0,0.0,0.0,0.0,0.0,0.0,0.0,0.0,0.0,0.0,0.0,0.0,0.0,0.0,0.0,0.0,0.0,3.2431,3.347,0.0,3.2482,3.2881,3.3163,3.3025,3.3864,3.4594,3.5163,3.5412,3.608,3.7233,3.728,3.7779,3.8827,3.8827,3.9015,3.9377,3.9565,3.9906,4.0331,4.0553,4.0843,4.1196,4.1196,4.1196,4.1191,4.1011,4.0661,4.0247,4.0635,4.0514,4.0118,4.0324,4.1089,4.202,4.1928,4.1785,4.1447,4.044,3.975,3.9215,3.8732,3.8732,3.8905,3.8905,3.9497,4.0152,4.0411,4.0457,4.0549,4.0843,4.0912,4.0912,4.0912,4.0687,4.0325,3.979,3.8893,3.7978,3.7198,3.7456,3.787,3.8168,3.8836,3.9577,4.0377,4.0722,4.0912,4.0912,4.0912,4.0935,4.1023,4.1023,4.0932,4.0672,4.1204,4.1175,4.045,4.0652,3.9826,3.7837,3.6886,3.5119,0.0,0.0,0.0,0.0,0.0,0.0,0.0,0.0,0.0,0.0,0.0,0.0,0.0,0.0,0.0,0.0,0.0,0.0,0.0,0.0,0.0,0.0,0.0,0.0,0.0,0.0,3.3829,3.3595,3.4683,3.4994,3.3704,3.4338,3.4761,3.4613,3.5221,3.5952,3.6731,3.6762,3.7308,3.8482,3.8513,3.8905,3.9723,3.9755,3.9897,4.0214,4.0214,4.042,4.0779,4.0779,4.1008,4.1322,4.1322,4.1442,4.1694,4.1882,4.1922,4.1854,4.2014,4.2081,4.2106,4.2322,4.2741,4.3189,4.3189,4.2844,4.224,4.1222,4.0871,4.0756,3.9974,4.0077,4.0422,4.0164,4.0498,4.0912,4.0912,4.0912,4.0912,4.0912,4.0912,4.0912,4.0912,4.0935,4.0959,4.0959,4.0107,3.9221,3.8738,3.9088,3.9416,3.9376,3.9836,4.0401,4.089,4.0989,4.0995,4.0995,4.0995,4.1035,4.1123,4.1117,4.1123,4.1209,4.147,4.1441,4.0981,4.1213,4.053,3.8748,3.7624,3.6107,3.4177,0.0,0.0,0.0,0.0,0.0,0.0,0.0,0.0,0.0,0.0,0.0,0.0,0.0,0.0,0.0,0.0,0.0,0.0,0.0,0.0,0.0,0.0,0.0,3.1972,3.3123,3.422,3.4875,3.6157,3.6469,3.5096,3.6219,3.6765,3.614,3.6717,3.745,3.8308,3.834,3.87,3.9518,3.9534,3.9882,4.0625,4.0656,4.0988,4.162,4.1652,4.1652,4.1652,4.1652,4.1652,4.1652,4.1652,4.2012,4.2649,4.3216,4.3377,4.3192,4.252,4.2277,4.2339,4.3005,4.3241,4.3276,4.3241,4.3224,4.3224,4.3207,4.3189,4.3051,4.2275,4.205,4.1895,4.117,4.0981,4.0981,4.0981,4.0963,4.0981,4.0981,4.0981,4.0981,4.0981,4.1058,4.1145,4.1145,4.1023,4.0912,4.0912,4.1023,4.107,4.0935,4.1088,0.0,4.1117,4.1175,4.1209,4.1209,4.1209,4.1209,4.1209,4.1146,4.1146,4.1174,4.0513,4.0175,4.0342,3.9736,3.9396,3.9381,3.7721,3.6667,3.6292,0.0,0.0,0.0,0.0,0.0,0.0,0.0,0.0,0.0,0.0,0.0,0.0,0.0,0.0,0.0,0.0,0.0,0.0,0.0,0.0,0.0,0.0,3.2793,3.2782,3.4471,3.5773,3.5962,3.666,3.7068,3.681,3.7507,3.7916,3.7803,3.8448,3.8905,3.9156,3.9172,3.9535,4.0277,4.0293,4.0625,4.1304,4.1841,4.2205,4.2394,4.2902,4.3105,4.3137,4.3137,4.3137,4.3137,4.3137,4.2938,4.2679,4.2845,4.2591,4.218,4.328,4.3709,4.3735,4.3932,4.4337,4.4716,4.419,4.4,4.3914,4.3362,4.3189,4.3155,4.2948,4.2879,4.2827,4.262,4.2568,4.2593,4.2691,4.2642,4.2593,4.2691,4.2698,4.2698,4.2698,4.2361,4.205,4.205,4.154,4.1117,4.1117,4.1157,4.1157,4.1117,4.1163,0.0,4.118,4.1186,4.1209,4.1209,4.1209,4.1232,4.134,4.1335,4.1153,4.0727,4.0499,4.0639,4.1227,4.1343,4.1388,4.1325,3.9205,3.7509,0.0,0.0,0.0,0.0,0.0,0.0,0.0,0.0,0.0,0.0,0.0,0.0,0.0,0.0,0.0,0.0,0.0,0.0,0.0,0.0,0.0,0.0,3.3365,3.4479,3.4479,3.5591,3.6503,3.6832,3.7375,3.7801,3.7907,3.8431,3.8841,3.8918,3.9281,3.9629,3.9945,3.9961,4.0293,4.1004,4.132,4.1667,4.2047,4.2758,4.3121,4.3121,4.3516,4.3706,4.3687,4.3687,4.3687,4.3687,4.3706,4.364,4.3547,4.3547,4.3588,0.0,0.0,0.0,0.0,0.0,4.5044,4.5328,4.4906,4.4751,4.4682,4.4251,4.4113,4.4061,4.3759,4.3655,4.3611,4.335,4.3289,4.3314,4.3461,4.3437,4.3388,4.3461,4.3485,4.3485,4.3485,4.3193,4.2933,4.2933,4.2597,0.0,4.2329,4.1759,4.1255,4.1209,4.13,4.1363,4.1295,4.134,4.1386,4.1386,4.1386,4.1408,4.1493,4.1426,0.0,0.0,0.0,4.049,4.0639,4.1348,0.0,0.0,0.0,0.0,0.0,0.0,0.0,0.0,3.7691,3.7801,0.0,0.0,0.0,0.0,0.0,0.0,0.0,0.0,0.0,0.0,0.0,0.0,0.0,0.0,0.0,0.0,3.5074,3.6456,3.6598,3.6629,3.6896,3.7512,3.8144,3.8539,3.8618,3.9234,3.9629,3.9629,3.9692,4.0024,4.0672,0.0,0.0,0.0,0.0,4.2726,4.2805,4.3485,4.3797,4.3797,4.3892,4.3924,4.3924,4.3924,4.3924,4.3924,4.3927,4.4227,4.4704,4.4704,4.5418,4.6338,4.4616,4.3968,4.4115,4.5227,4.5656,4.5656,4.5656,0.0,0.0,4.5535,4.5466,4.5276,4.4613,4.4432,4.4345,4.3796,4.3672,4.3697,4.3844,4.3851,4.3851,4.3868,4.3875,4.3875,4.3875,4.386,4.3862,4.3862,4.3886,4.3904,4.3904,4.2671,4.1648,4.1516,4.1646,4.1683,4.1571,4.1568,4.1604,4.1604,0.0,0.0,4.1604,4.1493,4.1436,4.1481,4.0788,4.0169,3.9673,4.0751,4.1156,4.067,4.1727,4.2094,4.1739,4.1832,4.1924,4.1943,3.9327,3.8914,0.0,0.0,0.0,0.0,0.0,0.0,0.0,0.0,0.0,0.0,0.0,0.0,0.0,0.0,0.0,3.4735,3.5761,3.6787,3.7924,3.8082,3.816,3.8302,3.8428,3.8728,3.925,3.9961,4.0388,4.0388,4.0893,4.1257,4.1399,4.1399,4.1731,4.2457,4.2616,4.2963,4.3516,4.418,4.4527,4.4527,0.0,0.0,4.5412,4.5412,4.5412,4.5412,4.5396,4.512,4.4706,4.4706,4.5142,4.5929,4.66,4.6901,4.6929,4.7141,4.7241,4.7241,4.7241,4.6862,4.6372,4.6372,4.5914,4.5363,4.5225,4.5252,0.0,4.5208,4.5259,4.536,4.5511,4.5461,4.5411,4.5511,4.5536,4.5536,4.5536,4.5145,4.4822,4.4822,4.4319,4.3904,4.3904,4.3617,4.3401,4.3378,4.2933,4.2547,4.2524,4.1986,4.1604,4.1604,4.1604,4.1604,4.1604,4.1582,4.1319,4.0766,4.0855,4.1181,4.1702,4.252,4.2766,4.2353,4.2563,4.2644,4.2575,4.3225,4.3893,4.4544,4.264,4.2291,0.0,0.0,0.0,0.0,0.0,0.0,0.0,0.0,0.0,0.0,0.0,3.1423,3.2306,0.0,3.4683,3.5742,3.6756,3.7687,3.8412,3.8792,3.9013,3.9013,3.9345,3.9692,4.0024,4.0688,4.1099,4.1099,4.1399,4.1588,4.1588,4.1936,4.2299,4.2679,4.3342,4.3864,4.4211,4.4907,4.5254,4.5254,4.5634,4.5807,4.5807,4.5807,4.5807,4.5807,4.5807,4.5602,4.529,4.6001,4.6503,4.6935,4.8314,4.839,4.7689,4.7689,4.7689,4.7689,4.7689,4.7448,4.7165,4.7165,4.6899,4.6652,4.6652,4.6759,4.6864,4.6943,4.7004,4.7082,4.7227,4.6947,4.6617,4.6675,4.6378,4.6097,4.6097,4.5849,4.5635,4.5635,4.5319,4.5062,4.5062,4.5062,4.4799,4.4009,4.3588,4.336,4.336,4.2991,4.2745,4.2745,4.2745,4.2745,4.2745,4.2412,4.2043,4.1657,4.2044,4.26,4.3425,4.4218,4.4557,4.4358,4.4557,4.4655,4.4655,4.5064,4.5472,4.5881,4.5502,4.5294,0.0,0.0,0.0,0.0,0.0,0.0,0.0,0.0,3.0944,3.1441,3.2248,3.3166,3.4063,3.4965,3.5868,3.6677,3.775,3.8618,3.8886,3.9376,3.9756,3.9882,4.0324,4.0656,4.0783,4.1272,4.1588,4.1588,4.1715,4.181,4.181,4.2489,4.2932,4.3074,4.4148,4.478,4.4922,4.5507,4.5807,4.5807,4.5807,4.5807,4.5807,4.5807,4.5807,4.5807,4.5936,4.5992,4.61,4.7372,4.7982,4.8208,4.9333,4.9103,4.8165,4.8165,4.8165,4.8165,4.8165,4.8034,4.7896,4.7896,4.7903,4.7875,4.7885,4.7993,4.8127,4.826,4.8312,4.8365,4.8487,4.8082,4.7608,4.7608,4.7134,4.6653,4.6653,4.653,4.6425,4.6425,4.6302,4.6196,4.6196,4.6196,4.5775,4.4536,4.422,4.4132,4.4132,4.3992,4.3904,4.3904,4.3904,4.3904,4.3904,4.336,4.3031,4.3122,4.3432,4.3981,4.4791,4.551,4.5919,4.6009,4.6323,4.6587,4.6735,4.6752,4.6917,4.7252,4.7967,4.787,2.7118,2.6737,0.0,2.8839,2.9632,3.0597,0.0,0.0,3.3324,3.4597,3.4956,3.5284,3.5956,3.619,3.6708,3.8035,3.8412,3.895,4.0198,4.0435,4.0704,4.1288,4.0909,4.083,4.1415,4.1541,4.1588,4.1588,4.2205,4.2568,4.2568,4.3234,4.3848,4.4464,4.4638,4.5017,4.5681,4.5776,4.5807,4.5807,4.5807,4.5807,4.5807,4.5807,4.5807,4.5844,4.6442,4.6689,4.6759,4.7556,4.8256,4.879,4.8961,4.9304,4.9752,4.9752,4.9752,4.9752,4.9752,4.9286,4.8672,4.8672,4.8252,4.7727,4.7857,4.7993,4.8127,4.826,4.8391,4.8495,4.8573,4.8486,4.8372,4.8372,4.8302,4.8232,4.8232,4.7731,4.7257,4.7257,4.6695,4.6196,4.6196,4.6196,4.6144,4.5968,4.5396,4.4975,4.4975,4.4343,4.3904,4.3904,4.3904,4.3904,4.3904,4.3816,4.393,4.4298,4.4367,4.4767,4.5625,4.5773,4.6009,4.6409,4.6477,4.6847,4.7571,4.762,4.8414,4.9884,5.0043,4.9652,2.821,0.0,0.0,0.0,3.1921,3.2993,3.4573,3.4715,3.4794,3.5789,3.5995,3.6216,3.6911,3.7038,3.737,0.0,3.8839,3.9439,4.0467,4.0941,4.113,4.102,4.1114,4.1288,4.1557,4.1588,4.1588,4.1588,4.2268,4.2695,4.2695,4.3706,4.4417,4.4701,4.5128,4.5507,4.5807,4.5807,4.5807,4.5807,4.5807,4.5807,4.5807,4.5807,4.5807,4.5844,4.6496,4.6811,4.688,4.8031,4.8635,4.8944,4.9376,4.9725,5.0011,5.0011,5.0011,5.0011,5.0011,4.9786,4.951,4.951,4.94,4.9292,4.9347,4.954,4.973,4.9801,4.9837,4.9908,4.9925,4.9574,4.9205,4.9205,4.8854,4.8495,4.8495,4.8293,4.8082,4.8064,4.7758,4.753,4.753,4.7161,4.6906,4.6906,4.6256,4.574,4.574,4.5442,4.5231,4.5231,4.5231,4.5062,4.4624,4.4606,4.4683,4.4834,4.534,4.5965,4.6819,4.7335,4.7696,4.7887,4.7975,4.8418,4.9199,4.9284,4.9931,5.1124,5.1191,5.1264,2.9034,0.0,0.0,3.2322,3.3604,3.4778,3.5505,3.5679,3.5868,3.6579,3.6706,3.688,3.7415,3.751,3.7765,3.8649,3.9187,3.9819,4.0751,4.113,4.113,4.0656,4.0846,4.1083,4.1288,4.1478,4.1588,4.1588,4.2442,4.2979,4.2979,4.4259,4.5017,4.5017,4.5539,4.5807,4.5807,4.5807,4.5807,4.5807,4.5807,4.5807,4.5807,4.5807,4.5807,4.5844,4.6724,4.7119,4.7221,4.8604,4.9192,4.9269,4.9801,5.0011,5.0011,5.0011,5.0011,5.0011,5.0011,5.0011,5.0011,5.0051,5.0178,5.0359,5.0425,5.0637,5.0846,5.0873,5.0891,5.0891,5.0891,5.0479,5.0013,5.0013,4.9592,4.917,4.917,4.903,4.8889,4.8854,4.8661,4.8495,4.8495,4.8064,4.7696,4.7696,4.7239,4.6688,4.6267,4.6196,4.6196,4.6196,4.6196,4.5968,4.5466,4.5414,4.5414,4.5414,4.6119,4.685,4.7554,4.8548,4.9119,4.9243,4.9572,5.0051,5.0628,5.0731,5.1228,5.2068,5.2153,5.2617,0.0,0.0,3.1443,3.2919,3.432,3.5537,3.6203,3.6361,3.6566,3.7291,3.7478,3.7478,3.751,3.751,3.7937,3.9266,3.9487,3.9977,4.1367,4.102,4.0625,4.0609,3.9993,3.9835,0.0,4.1209,4.1588,4.1588,4.29,4.3655,4.3655,4.5017,4.5776,4.5776,4.5807,4.5807,4.5807,4.5807,4.5807,4.5807,4.5807,4.5807,4.5807,4.5807,4.5807,4.588,4.7271,4.7852,4.7982,4.9381,4.9982,4.9982,5.0011,5.0011,5.0011,5.0011,5.0011,5.0011,5.0011,5.0011,5.0022,5.0132,5.0189,5.0257,5.0519,5.0585,5.0657,5.0846,5.0891,5.0891,5.0891,5.0873,5.0855,5.0855,5.0838,5.082,5.082,5.0233,4.9671,4.9671,4.903,4.8495,4.8495,4.8477,4.846,4.846,4.8503,4.7959,4.6407,4.6196,4.6196,4.6196,4.6196,4.6196,4.6161,4.6161,4.6161,4.6161,4.6613,4.7097,4.7591,4.8824,4.9675,5.0061,5.0966,5.1447,5.1466,5.1658,5.2173,5.296,5.3099,5.3583,0.0,0.0,3.2691,3.4813,3.5698,3.639,3.7514,3.7449,3.7196,3.7462,3.751,3.751,3.751,3.751,3.7953,3.9281,3.9503,3.9993,4.1399,4.1399,4.0909,3.9977,4.0087,0.0,0.0,0.0,0.0,4.1557,4.2916,4.3687,4.3687,4.5049,4.5807,4.5807,4.5807,4.5807,4.5807,4.5807,4.5807,4.5807,4.5807,4.5807,4.5807,4.5807,4.5807,4.588,4.7304,4.7885,4.8015,4.9411,5.0011,5.0011,5.0109,5.0149,5.0149,5.0235,5.0263,5.0246,5.0178,5.0149,5.0132,5.0302,5.0397,5.0492,5.0557,5.0702,5.0819,5.0891,5.0891,5.0891,5.0891,5.0891,5.0891,5.0891,5.0891,5.0891,5.0891,5.068,5.0487,5.0487,5.0276,5.0083,5.0083,4.9644,4.9118,4.8565,4.8512,4.8319,4.7793,4.7723,4.774,4.7801,4.774,4.7723,4.7723,4.7723,4.7723,4.7723,4.8168,4.867,4.9162,4.9941,5.0581,5.1023,5.1477,5.1957,5.2499,5.2638,5.3136,5.3926,5.3979,5.4428,0.0,3.1784,3.3604,3.54,3.6185,3.6726,3.765,3.7676,3.7573,3.7796,3.7684,3.7652,3.8142,3.8002,3.8302,3.9677,3.9898,4.0293,4.143,4.1162,4.0609,3.9977,3.9866,0.0,0.0,0.0,0.0,4.1541,4.29,4.3706,4.3706,4.5049,4.5807,4.5807,4.5807,4.5807,4.5807,4.5807,4.5807,4.5807,4.5807,4.5807,4.5807,4.5807,4.5807,4.588,4.7304,4.7885,4.8015,4.9483,5.008,5.0063,5.0217,5.0274,5.0274,5.0387,5.0415,5.0387,5.0302,5.0274,5.0285,5.0425,5.0519,5.0612,5.0702,5.0819,5.0891,5.0891,5.0891,5.0891,5.0891,5.0891,5.0891,5.0891,5.0891,5.0891,5.0891,5.0891,5.0891,5.0891,5.0891,5.0891,5.0891,5.0452,4.9943,4.9451,4.9363,4.9153,4.8565,4.8495,4.8512,4.8573,4.8538,4.8495,4.8495,4.8682,4.8791,4.8791,4.937,4.9901,5.0265,5.1051,5.164,5.1986,5.2461,5.2941,5.3465,5.3587,5.4033,5.4841,5.4841,5.5272,3.1054,3.269,3.4197,3.4835,3.5845,3.6723,3.6723,3.7151,3.7701,3.8333,3.797,3.7937,0.0,0.0,3.8918,4.0324,4.0546,4.0783,4.1494,4.0451,3.985,0.0,0.0,0.0,0.0,0.0,0.0,4.1588,0.0,4.3709,4.3709,4.5033,4.5807,4.5807,4.5807,4.5807,4.5807,4.5807,4.5807,4.5807,4.5807,4.5807,4.5807,4.5807,4.5807,4.588,4.7237,4.7852,4.8015,4.9509,5.0171,5.0217,5.0359,5.0397,5.0397,5.0415,5.0443,5.0443,5.0443,5.0415,5.0425,5.0575,5.063,5.0657,5.0846,5.0891,5.0891,5.0891,5.0891,5.0891,5.0891,5.0891,5.0891,5.0891,5.0926,5.0943,5.0943,5.0978,5.1013,5.1013,5.0978,5.0926,5.0891,5.0891,5.0891,5.0891,5.0891,5.0346,4.8811,4.8618,4.8618,4.8618,4.8618,4.8626,4.8669,4.9121,4.9442,4.9448,5.0286,5.0824,5.0926,5.2104,5.2807,5.2969,5.3842,5.4308,5.4308,5.4395,5.4859,5.5593,5.5593,5.6081,3.2437,3.3712,3.4927,3.5999,3.6461,3.6816,3.7195,3.7785,3.8144,3.7812,3.8017,3.8191,0.0,0.0,0.0,3.9566,3.9771,0.0,4.1415,4.1288,0.0,0.0,0.0,4.0214,4.0577,4.0609,0.0,0.0,4.3216,4.3706,4.3706,4.5049,4.5807,4.5807,4.5807,4.5807,4.5807,4.5807,4.5807,4.5807,4.5807,4.5807,4.5807,4.5807,4.5807,4.5844,4.6705,4.7439,4.8127,4.8989,4.9774,5.0341,5.0492,5.0547,5.0575,5.0719,5.0764,5.0764,5.0764,5.0665,5.0575,5.0774,5.0819,5.0846,5.0873,5.0891,5.0891,5.0891,5.0891,5.0891,5.0891,5.0891,5.0891,5.0891,5.1312,5.1733,5.1733,5.219,5.2621,5.2621,5.2119,5.1558,5.0978,5.0891,5.0891,5.0891,5.0891,5.0733,5.0329,5.0294,5.0294,5.0294,5.0294,5.0418,5.0761,5.0938,5.1148,5.1517,5.1769,5.2101,5.2563,5.3002,5.3441,5.3936,5.4229,5.4375,5.4375,5.4992,5.5386,5.5593,5.5593,5.6381,3.3168,3.4193,3.5142,3.5597,3.6006,3.6368,3.6351,3.7228,3.7859,3.7164,3.7575,0.0,0.0,0.0,0.0,0.0,0.0,0.0,4.1035,4.1146,4.113,0.0,4.0783,0.0,4.1004,4.132,4.1841,0.0,4.3327,4.3813,4.4113,4.5207,4.5807,4.5807,4.5807,4.5807,4.5807,4.5807,4.5807,4.5807,4.5807,4.5807,4.5807,4.5807,4.5807,4.5844,0.0,4.7456,4.8175,4.9097,4.9873,5.0492,5.0675,5.0729,5.0747,5.0846,5.0891,5.0891,5.0891,5.0819,5.0747,5.0846,5.0891,5.0891,5.0891,5.0891,5.0891,5.0891,5.0891,5.0891,5.0891,5.0891,5.0891,5.0891,5.1207,5.1523,5.1523,5.1856,5.2172,5.2172,5.2084,5.1874,5.1452,5.1681,5.1786,5.1435,5.1382,5.1259,5.0926,5.0891,5.0891,5.0891,5.0891,5.1097,5.1569,5.1782,5.2107,5.2611,5.2831,5.3146,5.3566,5.3681,5.3926,5.4342,5.4731,5.4934,5.4934,5.5368,5.5987,5.6682,5.6325,5.7056,3.3576,3.4427,3.5169,3.4635,3.5267,3.5855,3.5277,3.6365,3.7275,3.6535,0.0,0.0,3.7338,0.0,3.8286,3.8491,0.0,4.0388,4.0577,4.0609,4.0846,4.1509,4.1083,4.0956,4.1525,4.2252,4.2726,4.2821,4.3453,4.4101,4.4685,4.5412,4.5807,4.5807,4.5807,4.5807,4.5807,4.5807,4.5807,4.5807,4.5807,4.5807,4.5807,4.5844,4.59,4.6028,4.6997,4.7754,4.8398,4.9428,5.0176,5.0657,5.0846,5.0891,5.0891,5.0891,5.0891,5.0891,5.0891,5.0891,5.0891,5.0891,5.0891,5.0891,5.0891,5.0891,5.0891,5.0891,5.0891,5.0891,5.0891,5.0891,5.0891,5.0891,5.0961,5.1049,5.1049,5.1119,5.1154,5.1066,5.1558,5.1979,5.1874,5.2418,5.2646,5.1961,5.1856,5.1628,5.0978,5.0891,5.0891,5.0891,5.0891,5.1097,5.1569,5.2036,5.2526,5.3078,5.3635,5.4056,5.4277,5.4277,5.4349,5.4559,5.5236,5.5593,5.5593,5.5818,5.6682,5.807,5.7375,5.7863,3.4199,3.4996,3.5657,3.5169,3.5816,3.6523,3.64,3.6981,0.0,0.0,0.0,3.6582,3.6582,3.6677,0.0,3.8318,0.0,0.0,0.0,0.0,4.0846,0.0,0.0,0.0,0.0,0.0,0.0,0.0,0.0,4.4591,4.4701,4.5412,4.5807,4.5807,4.5807,4.5807,4.5807,4.5807,4.5807,4.5807,4.5807,4.5807,4.5807,4.6084,4.6461,4.6914,4.7372,0.0,4.9381,4.9558,5.0102,5.0846,5.0891,5.0891,5.0891,5.0891,5.0891,5.0891,5.0891,5.0891,5.0891,5.0891,5.0891,5.0891,5.0891,5.0891,5.0891,5.0891,5.0891,5.0891,5.0891,5.0891,5.0891,5.0891,5.1365,5.1821,5.1821,5.233,5.2593,5.1944,5.1926,5.1821,5.1189,5.1207,5.1242,5.1101,5.1084,5.1031,5.0908,5.0891,5.0891,5.0891,5.0891,5.1097,5.1569,5.2036,5.253,5.3166,5.4212,5.4931,5.5245,5.5154,5.5191,5.5386,5.5537,5.5593,5.5593,5.6982,5.7808,5.8089,5.7976,5.8408,3.4798,3.535,3.5849,3.564,3.5858,3.6088,3.5686,0.0,0.0,0.0,0.0,3.5663,3.4908,0.0,0.0,0.0,0.0,0.0,0.0,0.0,0.0,0.0,0.0,0.0,0.0,0.0,0.0,0.0,0.0,4.5286,4.5286,4.5618,4.5807,4.5807,4.5807,4.5807,4.5807,4.5807,4.5807,4.5807,4.5807,4.5807,4.5807,4.6442,4.6846,4.7137,4.7949,0.0,4.9617,4.978,5.0261,5.0891,5.0891,5.0891,5.0891,5.0891,5.0891,5.0891,5.0891,5.0891,5.0891,5.0891,5.0891,5.0891,5.0891,5.1171,5.147,5.147,5.1768,5.2112,5.2112,5.2112,5.2112,5.2112,5.2365,5.2506,5.2102,5.2312,5.2348,5.1575,5.1751,5.1909,5.154,5.1821,5.1944,5.154,5.147,5.1329,5.0943,5.0891,5.0891,5.0891,5.0891,5.1097,5.1569,5.2036,5.2553,5.3169,5.4012,5.4597,5.487,5.5227,5.5469,5.5593,5.6456,5.6888,5.6888,5.7695,5.8333,5.8708,5.8314,5.8539,3.5279,3.5705,3.618,3.5944,3.5876,3.568,3.4988,3.5008,0.0,0.0,0.0,0.0,0.0,0.0,0.0,0.0,0.0,0.0,0.0,0.0,0.0,0.0,0.0,0.0,0.0,0.0,0.0,0.0,0.0,0.0,4.5807,4.5807,4.5807,4.5807,4.5807,4.5807,4.5807,4.5807,4.5807,4.5807,4.5807,4.5844,4.5936,4.6811,4.7323,4.7556,4.868,0.0,0.0,5.0176,5.0537,5.0891,5.0891,5.0891,5.0891,5.0891,5.0891,5.0891,5.0891,5.0891,5.0926,5.1066,5.1136,5.1136,5.1136,5.1663,5.226,5.226,5.2699,5.3201,5.3201,5.3201,5.3201,5.3201,5.3201,5.3015,5.24,5.226,5.2084,5.1505,5.1856,5.226,5.226,5.2769,5.2927,5.2137,5.1986,5.1733,5.0978,5.0891,5.0891,5.0891,5.0891,5.1097,5.1569,5.2198,5.2848,5.3468,5.4293,5.4857,5.5094,5.5693,5.6048,5.6137,5.7432,5.8089,5.8089,5.8276,5.8689,5.9271,5.8652,5.8708,3.5496,3.6258,3.7119,3.6134,3.6121,3.6203,3.5713,0.0,0.0,0.0,3.383,3.364,3.4115,0.0,0.0,0.0,0.0,0.0,0.0,0.0,0.0,0.0,0.0,0.0,0.0,0.0,0.0,0.0,0.0,0.0,4.5807,4.5807,4.5807,4.5807,4.5807,4.5807,4.5807,4.5807,4.5807,4.5807,4.5807,4.5956,4.6285,4.7171,4.7982,4.879,4.9622,0.0,0.0,5.0819,5.0863,5.0891,5.0891,5.0891,5.0891,5.0891,5.0891,5.0891,5.0891,5.0891,5.0996,5.1698,5.1909,5.1909,5.1909,5.2453,5.3096,5.3096,5.3148,5.3201,5.3201,5.3201,5.3201,5.3201,5.3201,5.3183,5.3113,5.3096,5.3078,5.3008,5.306,5.3096,5.3096,5.3166,5.2927,5.2137,5.1986,5.1733,5.0978,5.0891,5.0891,5.0891,5.0891,5.1097,5.1569,5.2762,5.3749,5.4439,5.6226,5.7396,5.7733,5.7697,5.7735,5.7864,5.8014,5.8089,5.8089,5.884,5.9234,5.929,5.9215,5.9234,3.6245,3.6831,3.7405,3.6952,3.6319,3.5748,3.5561,0.0,0.0,3.3704,3.3482,3.3388,3.364,3.402,0.0,0.0,0.0,0.0,0.0,0.0,0.0,0.0,0.0,0.0,0.0,0.0,0.0,0.0,0.0,0.0,4.5807,4.5807,4.5807,4.5807,4.5807,4.5807,4.5807,4.5807,4.5807,4.5807,4.5977,4.6337,4.6811,4.7884,4.8742,4.9351,5.0205,0.0,0.0,5.0891,5.0891,5.0891,5.0891,5.0891,5.0891,5.0891,5.0891,5.0891,5.0891,5.0891,5.1013,5.1768,5.233,5.2716,5.2716,5.326,5.3857,5.3857,5.4208,5.4577,5.4577,5.4577,5.4577,5.4577,5.4577,5.4454,5.3963,5.3857,5.3717,5.3306,5.3201,5.3201,5.3201,5.3201,5.3096,5.2769,5.2716,5.2611,5.234,5.2288,5.2408,5.275,5.2333,5.2127,5.2315,5.3878,5.5008,5.5311,5.642,5.7155,5.7375,5.7789,5.8053,5.8089,5.8577,5.8821,5.8821,5.914,5.929,5.929,5.929,5.929,3.6245,3.6894,3.751,3.751,3.645,3.5394,0.0,0.0,3.3309,3.3309,3.3309,3.3309,3.3309,3.3846,3.4525,0.0,0.0,0.0,0.0,0.0,0.0,0.0,0.0,0.0,0.0,0.0,0.0,0.0,0.0,0.0,4.5807,4.5807,4.5807,4.5807,4.5807,4.5844,4.5972,4.5956,4.5992,4.6152,4.6353,4.6793,4.7439,4.843,4.9218,4.978,5.0564,0.0,0.0,5.0891,5.0891,5.0891,5.0891,5.0891,5.0891,5.0891,5.0891,5.0891,5.0891,5.0891,5.1049,5.2032,5.2734,5.3306,5.3734,5.4244,5.4665,5.4665,5.5069,5.5507,5.5507,5.5507,5.5507,5.5507,5.5507,5.5349,5.4788,5.4665,5.4507,5.398,5.3875,5.3875,5.3875,5.3875,5.3787,5.3559,5.3524,5.3464,5.3236,5.3324,5.3564,5.3956,5.4019,5.3935,5.3676,5.5135,5.6177,5.6427,5.706,5.7472,5.7619,5.8145,5.8464,5.8464,5.9009,5.929,5.929,5.929,5.929,5.929,5.929,5.929,3.5185,3.6227,3.751,3.751,3.645,3.5394,0.0,3.4304,3.3309,3.3309,3.3309,3.3309,3.3309,3.3846,3.4525,3.5268,0.0,0.0,0.0,0.0,0.0,0.0,0.0,0.0,0.0,0.0,0.0,0.0,0.0,0.0,4.5807,4.5807,4.5807,4.5807,4.5807,4.5956,4.6301,4.6285,4.6477,4.6892,4.6876,4.7337,4.821,4.8683,4.9338,0.0,0.0,0.0,0.0,5.0891,5.0891,5.0891,5.0891,5.0891,5.0891,5.0891,5.0891,5.0891,5.0891,5.0891,5.1136,5.2709,5.3201,5.3471,5.5016,5.549,5.5507,5.5507,5.5507,5.5507,5.5507,5.5507,5.5507,5.5507,5.5507,5.5507,5.5507,5.5507,5.5507,5.549,5.549,5.549,5.549,5.549,5.5227,5.4419,5.4296,5.4015,5.3306,5.3655,5.3991,5.3991,5.5707,5.6525,5.5733,5.6418,5.7214,5.7941,5.8728,5.9197,5.9271,5.9271,5.929,5.929,5.929,5.929,5.929,5.929,5.929,5.929,5.929,5.929,3.4788,3.5584,3.626,3.6111,3.5726,3.5252,3.4747,3.3941,3.3309,3.3309,3.3309,3.3309,3.3309,3.3467,3.4004,3.5205,3.5568,0.0,0.0,0.0,0.0,0.0,0.0,0.0,0.0,0.0,0.0,0.0,0.0,0.0,4.5807,4.5807,4.5807,4.5807,4.6012,4.6195,4.6285,4.6582,4.6772,4.6927,4.7505,4.8096,4.8714,4.9415,5.0062,0.0,0.0,0.0,0.0,5.0891,5.0891,5.0891,5.0891,5.0891,5.0891,5.0891,5.0891,5.0891,5.0891,5.0891,5.1049,5.2067,5.2383,5.2576,5.3612,5.4665,5.5507,5.5507,5.5507,5.5507,5.5507,5.5507,5.5507,5.5507,5.5507,5.5507,5.5507,5.5507,5.5507,5.5507,5.5507,5.5507,5.5507,5.5507,5.542,5.5174,5.5139,5.5051,5.4805,5.5241,5.5705,5.6078,5.71,5.7391,5.6583,5.7728,5.8572,5.8802,5.9103,5.9272,5.929,5.929,5.929,5.929,5.929,5.929,5.929,5.929,5.929,5.929,5.929,5.929,0.0,3.4925,3.5652,3.5849,3.5427,3.492,3.4747,3.3972,3.3309,3.3309,3.3309,3.3309,3.3309,3.3514,3.3957,3.4841,3.5426,0.0,0.0,0.0,0.0,0.0,0.0,0.0,0.0,0.0,0.0,0.0,0.0,0.0,4.5807,4.5936,4.5992,4.5992,4.6211,4.6356,4.6512,4.71,4.7438,4.7605,4.8289,4.89,4.9368,4.9855,5.0391,0.0,0.0,0.0,0.0,5.0891,5.0891,5.0891,5.0891,5.0891,5.0891,5.0891,5.0891,5.0891,5.0891,5.0891,5.1013,5.1768,5.2225,5.2558,5.3032,5.405,5.5051,5.5051,5.5279,5.5507,5.5507,5.5507,5.5507,5.5507,5.5507,5.5507,5.5507,5.5507,5.5507,5.5507,5.5507,5.5507,5.5507,5.5507,5.5507,5.5507,5.5507,5.5507,5.5507,5.6192,5.6809,5.7141,5.7978,5.8315,5.7817,5.8665,5.9196,5.9234,5.9272,5.929,5.929,5.929,5.929,5.929,5.929,5.929,5.929,5.929,5.929,5.929,5.929,5.929,0.0,3.4204,3.5474,3.6255,3.5368,3.4462,3.5094,3.4241,0.0,3.3309,3.3309,3.3309,3.3356,3.383,3.4273,3.4431,0.0,0.0,0.0,0.0,0.0,0.0,0.0,0.0,0.0,0.0,0.0,0.0,0.0,0.0,4.5807,4.612,4.6321,4.6356,4.6426,4.6601,4.6979,4.7852,4.8433,4.8765,4.9239,4.9669,5.0102,5.0148,5.0436,0.0,0.0,0.0,0.0,5.0891,5.0891,5.0891,5.0891,5.0891,5.0891,5.0891,5.0891,5.0891,5.0891,5.0891,5.0996,5.1716,5.2435,5.3043,5.3043,5.3629,5.4314,5.4314,5.4893,5.5507,5.5507,5.5507,5.5507,5.5507,5.5507,5.5507,5.5507,5.5507,5.5507,5.5507,5.5507,5.5507,5.5507,5.5507,5.5507,5.5507,5.5507,5.5507,5.5507,5.6564,5.7315,5.7315,5.8437,5.9215,5.9215,5.9196,5.9234,5.9309,5.929,5.929,5.929,5.929,5.929,5.929,5.929,5.929,5.929,5.929,5.929,5.929,5.929,5.929,3.1828,0.0,3.4082,3.4101,3.4207,3.4209,0.0,3.3546,3.3309,0.0,0.0,0.0,0.0,0.0,0.0,0.0,0.0,0.0,0.0,0.0,0.0,0.0,0.0,0.0,0.0,0.0,0.0,0.0,0.0,4.5807,4.5807,4.612,4.648,4.6914,4.7472,4.782,4.7885,4.87,4.9161,4.9239,4.9698,4.9988,5.0102,5.0519,5.0792,0.0,0.0,0.0,5.0891,5.0891,5.0891,5.0891,5.0891,5.0891,5.0891,5.0891,5.0891,5.0891,5.0891,5.0891,5.0926,5.1101,5.1277,5.1435,5.1435,5.2769,5.4314,5.4314,5.4893,5.5507,5.5507,5.5507,5.5507,5.5507,5.5507,5.5507,5.5507,5.5507,5.5507,5.5507,5.5507,5.5507,5.5507,5.5507,5.5507,5.5507,5.5507,5.5507,5.5507,5.6564,5.7315,5.7315,5.8437,5.9215,5.9215,5.9253,5.929,5.929,5.929,5.929,5.929,5.929,5.929,5.929,5.929,5.929,5.929,5.929,5.929,5.929,5.929,5.929,3.0941,3.2362,3.3678,3.4241,3.4345,3.4288,3.4273,0.0,0.0,0.0,0.0,0.0,0.0,0.0,0.0,0.0,0.0,0.0,0.0,0.0,0.0,0.0,0.0,0.0,0.0,0.0,0.0,0.0,0.0,4.6156,4.6372,4.6896,4.7422,4.7917,4.8666,4.89,4.8543,4.9325,4.9727,4.9727,5.0222,5.0464,5.0464,5.0764,5.0891,0.0,0.0,0.0,5.0891,5.0891,5.0891,5.0891,5.0891,5.0891,5.0891,5.0891,5.0891,5.0891,5.0891,5.0891,5.0891,5.0891,5.0891,5.0891,5.0891,5.1997,5.3331,5.3682,5.4349,5.5033,5.542,5.5507,5.5507,5.5507,5.5507,5.5507,5.5507,5.5507,5.5507,5.5507,5.5507,5.5507,5.5507,5.5507,5.5507,5.5507,5.5507,5.5607,5.5883,5.6755,5.7455,5.778,5.8667,5.9253,5.9253,5.929,5.929,5.929,5.929,5.929,5.929,5.929,5.929,5.929,5.929,5.929,5.929,5.929,5.929,5.929,5.929,5.929,3.0453,3.1998,3.3597,3.488,3.4751,3.4431,3.4952,0.0,0.0,0.0,0.0,0.0,0.0,0.0,0.0,0.0,0.0,0.0,0.0,0.0,0.0,0.0,0.0,0.0,0.0,0.0,0.0,0.0,0.0,4.6777,4.7171,4.7885,4.8543,4.9006,4.971,4.9797,4.9205,4.9873,5.0205,5.0233,5.0692,5.0891,5.0891,5.0891,5.0891,5.0891,0.0,0.0,5.0891,5.0891,5.0891,5.0891,5.0891,5.0891,5.0891,5.0891,5.0891,5.0891,5.0891,5.0891,5.0891,5.0891,5.0891,5.0891,5.0891,5.1347,5.2032,5.2927,5.3717,5.4489,5.5297,5.5507,5.5507,5.5507,5.5507,5.5507,5.5507,5.5507,5.5507,5.5507,5.5537,5.5566,5.5566,5.5578,5.5637,5.5724,5.5706,5.5911,5.6474,5.7132,5.7753,5.8338,5.8928,5.929,5.929,5.929,5.929,5.929,5.929,5.929,5.929,5.929,5.929,5.929,5.929,5.929,5.929,5.929,5.929,5.929,5.929,5.929,3.1394,3.2666,3.3203,3.2898,3.3582,3.4178,0.0,0.0,0.0,0.0,0.0,0.0,0.0,0.0,0.0,0.0,0.0,0.0,0.0,0.0,0.0,0.0,0.0,0.0,0.0,0.0,0.0,0.0,0.0,4.7867,4.7556,4.8334,4.9006,4.947,4.9884,5.0278,5.0582,5.0737,5.0792,5.0792,5.0846,5.0891,5.0891,5.0891,5.0891,5.0891,0.0,5.0891,5.0891,5.0891,5.0891,5.0891,5.0891,5.0891,5.0891,5.0891,5.0891,5.0891,5.0891,5.0891,5.0891,5.0891,5.0891,5.0891,5.0891,5.0978,5.1365,5.2815,5.3717,5.4489,5.5297,5.5507,5.5507,5.5507,5.5507,5.5507,5.5507,5.5507,5.5507,5.5507,5.5677,5.5833,5.5833,5.6077,5.6365,5.6643,5.6696,5.6817,5.7206,5.784,5.8295,5.8381,5.8928,5.929,5.929,5.929,5.929,5.929,5.929,5.929,5.929,5.929,5.929,5.929,5.929,5.929,5.929,5.929,5.929,5.929,5.929,5.929,3.0194,3.1634,3.2713,3.2574,3.4128,3.5613,0.0,0.0,0.0,0.0,0.0,0.0,0.0,0.0,0.0,0.0,0.0,0.0,0.0,0.0,0.0,0.0,0.0,0.0,0.0,0.0,0.0,0.0,0.0,0.0,4.8303,4.908,4.9768,5.0307,5.0464,5.0665,5.0891,5.0891,5.0891,5.0891,5.0891,5.0891,5.0891,5.0891,5.0891,5.0891,0.0,5.0891,5.0891,5.0891,5.0891,5.0891,5.0891,5.0891,5.0891,5.0891,5.0891,5.0943,5.1365,5.1224,5.0961,5.1365,5.1224,5.0961,5.1365,5.1487,5.1821,5.3366,5.3752,5.398,5.5191,5.5507,5.5507,5.5507,5.5507,5.5507,5.5507,5.5507,5.5537,5.5695,5.5822,5.5975,5.6162,5.6456,5.6714,5.6861,5.7054,5.7364,5.7863,5.8212,5.8526,5.8849,5.914,5.929,5.929,5.929,5.929,5.929,5.929,5.929,5.929,5.929,5.929,5.929,5.929,5.929,5.929,5.929,5.929,5.929,5.929,5.9553,2.9675,3.1033,3.2447,3.3003,0.0,3.6458,3.6701,0.0,0.0,0.0,0.0,0.0,0.0,0.0,0.0,0.0,0.0,0.0,0.0,0.0,0.0,0.0,0.0,0.0,0.0,0.0,0.0,0.0,0.0,0.0,4.9188,4.9873,5.0464,5.0891,5.0891,5.0891,5.0891,5.0891,5.0891,5.0891,5.0891,5.0891,5.0891,5.0891,5.0891,5.0891,5.0891,5.0891,5.0891,5.0891,5.0891,5.0891,5.0891,5.0891,5.0891,5.0891,5.0891,5.0996,5.1751,5.1645,5.1277,5.2049,5.1891,5.154,5.2119,5.2295,5.2558,5.3928,5.3892,5.3752,5.5156,5.5507,5.5507,5.5507,5.5507,5.5507,5.5507,5.5566,5.5648,5.5861,5.6014,5.6209,5.6537,5.6871,5.7166,5.7303,5.7556,5.7931,5.8528,5.8609,5.8791,5.9253,5.929,5.929,5.929,5.929,5.929,5.929,5.929,5.929,5.929,5.929,5.929,5.929,5.929,5.929,5.929,5.929,5.9403,5.9591,5.9591,6.006,3.1722,3.2181,3.2643,3.4165,0.0,0.0,3.6136,0.0,0.0,0.0,0.0,0.0,0.0,0.0,0.0,0.0,0.0,0.0,0.0,0.0,0.0,0.0,0.0,0.0,0.0,0.0,0.0,0.0,0.0,0.0,5.0011,5.0537,5.0846,5.0891,5.0891,5.0891,5.0891,5.0891,5.0891,5.0891,5.0891,5.0891,5.0891,5.0891,5.0891,5.0891,5.0891,5.0891,5.0891,5.0891,5.0891,5.0891,5.0891,5.0891,5.0891,5.0891,5.0891,5.0996,5.1751,5.1979,5.2067,5.2839,5.3096,5.306,5.3113,5.3113,5.3289,5.4086,5.4261,5.4419,5.5297,5.5507,5.5507,5.5507,5.5507,5.5507,5.5507,5.5695,5.589,5.589,5.6347,5.6855,5.7184,5.7498,5.7941,5.8563,5.8688,5.8848,5.9197,5.9234,5.9253,5.9309,5.929,5.929,5.929,5.929,5.929,5.929,5.929,5.929,5.929,5.929,5.929,5.929,5.929,5.929,5.929,5.929,5.9722,6.0511,6.0511,6.0942,3.1006,3.1516,3.2197,3.3599,0.0,0.0,0.0,0.0,0.0,0.0,0.0,0.0,0.0,0.0,0.0,0.0,0.0,0.0,0.0,0.0,0.0,0.0,0.0,0.0,0.0,0.0,0.0,0.0,0.0,0.0,4.8682,4.9142,4.9416,4.9416,4.9416,4.9644,5.0162,5.0136,5.0382,5.0891,5.0891,5.0891,5.0891,5.0891,5.0891,5.0891,5.0891,5.0891,5.0891,5.0891,5.0891,5.0891,5.0891,5.0891,5.0943,5.1417,5.1593,5.1768,5.3015,5.3138,5.2857,5.3629,5.3559,5.3306,5.3734,5.3875,5.405,5.484,5.5051,5.5139,5.5437,5.5507,5.5507,5.5507,5.5507,5.5537,5.5706,5.5833,5.6014,5.6392,5.6793,5.7227,5.7565,5.806,5.8498,5.8767,5.8985,5.9159,5.9272,5.929,5.929,5.929,5.929,5.929,5.929,5.929,5.929,5.929,5.929,5.929,5.929,5.929,5.929,5.929,5.929,5.929,5.929,5.9835,6.0285,6.0623,6.1111,6.1806,3.0879,3.1446,3.2297,0.0,0.0,0.0,0.0,0.0,0.0,0.0,0.0,0.0,0.0,0.0,0.0,0.0,0.0,0.0,0.0,0.0,0.0,0.0,0.0,0.0,0.0,0.0,0.0,0.0,0.0,0.0,0.0,4.8321,4.8495,4.8538,4.8495,4.8766,4.9311,4.9556,4.9987,5.0504,5.0768,5.0891,5.0891,5.0891,5.0891,5.0891,5.0891,5.0891,5.0891,5.0891,5.0891,5.0891,5.0891,5.0891,5.0943,5.147,5.1663,5.1874,5.3418,5.3454,5.298,5.398,5.3963,5.3629,5.4156,5.4489,5.4805,5.5367,5.5507,5.5507,5.5507,5.5507,5.5507,5.5507,5.5549,5.5695,5.5861,5.606,5.6347,5.6863,5.7227,5.7618,5.8033,5.8498,5.8828,5.8927,5.914,5.929,5.929,5.929,5.929,5.929,5.929,5.929,5.929,5.929,5.929,5.929,5.929,5.929,5.929,5.929,5.929,5.929,5.929,5.944,5.9703,6.0323,6.0886,6.1412,6.1956,6.267,3.1798,3.2337,3.3153,0.0,0.0,0.0,0.0,0.0,0.0,0.0,0.0,0.0,0.0,0.0,0.0,0.0,0.0,0.0,0.0,0.0,0.0,0.0,0.0,0.0,0.0,0.0,0.0,0.0,0.0,0.0,0.0,4.8477,4.8521,4.8573,4.8521,4.8477,4.8477,4.9276,4.9688,4.9706,5.0487,5.0873,5.0891,5.0891,5.0891,5.0891,5.0891,5.0891,5.0891,5.0891,5.0891,5.0891,5.0891,5.0891,5.0891,5.0891,5.0908,5.1119,5.2674,5.2681,5.225,5.3805,5.4296,5.4314,5.4314,5.4875,5.5507,5.5507,5.5507,5.5507,5.5507,5.5507,5.5507,5.5507,5.5706,5.5918,5.5918,5.6374,5.6907,5.7241,5.7589,5.8029,5.8686,5.8808,5.8926,5.9253,5.929,5.929,5.929,5.929,5.929,5.929,5.929,5.929,5.929,5.929,5.929,5.929,5.929,5.929,5.929,5.929,5.929,5.9309,5.9309,5.9741,6.0623,6.0623,6.1487,6.3101,6.3101,6.3533,3.1219,3.1706,0.0,0.0,0.0,0.0,0.0,0.0,0.0,0.0,0.0,0.0,0.0,0.0,0.0,0.0,0.0,0.0,0.0,0.0,0.0,0.0,0.0,0.0,0.0,0.0,0.0,0.0,0.0,0.0,0.0,4.6881,4.6881,4.6898,4.6881,4.7144,4.7731,4.7959,4.8345,4.8872,4.91,4.9802,5.0891,5.0891,5.0891,5.0891,5.0891,5.0891,5.0891,5.0891,5.0891,5.0891,5.0891,5.0891,5.0943,5.1487,5.1681,5.1821,5.2867,5.306,5.2909,5.3366,5.3875,5.4314,5.4314,5.4875,5.5507,5.5507,5.5507,5.5537,5.5735,5.5793,5.5793,5.5793,5.6021,5.63,5.6501,5.6845,5.7234,5.7589,5.8105,5.8561,5.8767,5.9005,5.9197,5.929,5.929,5.929,5.929,5.929,5.929,5.929,5.929,5.929,5.929,5.929,5.929,5.929,5.929,5.929,5.929,5.929,5.9591,6.021,6.021,6.0623,6.1449,6.2069,6.2613,6.3101,6.3683,6.4059,3.1929,0.0,0.0,0.0,0.0,0.0,0.0,0.0,0.0,0.0,0.0,0.0,0.0,0.0,0.0,0.0,0.0,0.0,0.0,0.0,0.0,0.0,0.0,0.0,0.0,0.0,0.0,0.0,0.0,0.0,0.0,4.6196,4.6196,4.6196,4.6196,4.6425,4.6923,4.7239,4.7625,4.8082,4.8398,4.903,4.996,5.0276,5.0592,5.0891,5.0891,5.0891,5.0891,5.0891,5.0891,5.0891,5.0891,5.0891,5.0943,5.14,5.1558,5.1681,5.2453,5.2523,5.2312,5.2628,5.3243,5.3857,5.3857,5.463,5.5507,5.5507,5.5596,5.5695,5.5861,5.607,5.6209,5.6116,5.6429,5.6811,5.6966,5.7358,5.7789,5.8127,5.8519,5.8848,5.8985,5.9178,5.929,5.929,5.929,5.929,5.929,5.929,5.929,5.929,5.929,5.929,5.929,5.929,5.929,5.929,5.9628,5.9816,5.9816,5.9816,6.021,6.1055,6.1074,6.1487,6.2313,6.2839,6.3252,6.359,6.4059,6.4284,0.0,0.0,0.0,0.0,0.0,0.0,0.0,0.0,0.0,0.0,0.0,0.0,0.0,0.0,0.0,0.0,0.0,0.0,0.0,0.0,0.0,0.0,0.0,0.0,0.0,0.0,0.0,0.0,0.0,0.0,0.0,4.6196,4.6196,4.6196,4.6196,4.6196,4.6196,4.6941,4.7292,4.7292,4.8029,4.8398,4.8425,4.9293,5.0145,5.0891,5.0891,5.0891,5.0891,5.0891,5.0891,5.0891,5.0891,5.0891,5.0891,5.0891,5.0891,5.0996,5.1681,5.147,5.0996,5.1698,5.2435,5.3113,5.3183,5.4255,5.5449,5.5519,5.5735,5.5947,5.5975,5.6374,5.6742,5.6573,5.6966,5.7364,5.7389,5.7905,5.8431,5.8747,5.8828,5.8927,5.9253,5.929,5.929,5.929,5.929,5.929,5.929,5.929,5.929,5.929,5.929,5.929,5.929,5.9365,5.9422,5.9422,6.0229,6.0755,6.083,6.0755,6.1093,6.19,6.1919,6.2332,6.3214,6.3214,6.359,6.4284,6.4284,6.4284,0.0,0.0,0.0,0.0,0.0,0.0,0.0,0.0,0.0,0.0,0.0,0.0,0.0,0.0,0.0,0.0,0.0,0.0,0.0,0.0,0.0,0.0,0.0,0.0,0.0,0.0,0.0,0.0,0.0,0.0,4.6196,4.6196,4.6196,4.6196,4.6196,4.6196,4.6196,4.6372,4.646,4.646,4.6635,4.7046,4.7678,4.9065,5.0145,5.0891,5.0891,5.0891,5.0891,5.0891,5.0891,5.0891,5.0891,5.0891,5.0891,5.0891,5.0891,5.0908,5.1066,5.1031,5.0926,5.1084,5.1645,5.2383,5.2997,5.4039,5.5073,5.5645,5.6049,5.6355,5.6555,5.6715,5.6925,5.7406,5.7583,5.7755,5.8015,5.8394,5.8706,5.8788,5.9024,5.9215,5.929,5.929,5.929,5.929,5.929,5.929,5.929,5.929,5.929,5.929,5.929,5.929,5.929,5.9929,6.0323,6.0323,6.1093,6.1844,6.2538,6.19,6.1937,6.2801,6.282,6.3214,6.404,6.404,6.4115,6.4284,6.4284,6.4284,0.0,0.0,0.0,0.0,0.0,0.0,0.0,0.0,0.0,0.0,0.0,0.0,0.0,0.0,0.0,0.0,0.0,0.0,0.0,0.0,0.0,0.0,0.0,0.0,0.0,0.0,0.0,0.0,0.0,4.6196,4.6196,4.6196,4.6196,4.6196,4.6196,4.6196,4.6196,4.6196,4.6196,4.6196,4.6196,4.6811,4.8012,4.9153,5.0145,5.0891,5.0891,5.0891,5.0891,5.0891,5.0891,5.0891,5.0891,5.0891,5.0891,5.0891,5.0891,5.0891,5.0891,5.0891,5.0891,5.0891,5.14,5.2155,5.3112,5.4038,5.5001,5.5875,5.6355,5.6662,5.6966,5.7145,5.7461,5.8105,5.8164,5.8142,5.8474,5.8788,5.9044,5.9044,5.9178,5.929,5.929,5.929,5.929,5.929,5.929,5.929,5.929,5.929,5.9459,5.9891,5.9929,6.0079,6.0454,6.0905,6.1168,6.1168,6.1956,6.2632,6.3083,6.3026,6.3195,6.3665,6.3665,6.3871,6.4284,6.4284,6.4284,6.4284,6.4284,6.4284,0.0,0.0,0.0,0.0,0.0,0.0,0.0,0.0,0.0,0.0,0.0,0.0,0.0,0.0,0.0,0.0,0.0,0.0,0.0,0.0,0.0,0.0,0.0,0.0,0.0,0.0,0.0,0.0,0.0,4.6196,4.6196,4.6196,4.6196,4.6196,4.6196,4.6196,4.6196,4.6196,4.6196,4.6196,4.6196,4.6968,4.8415,4.9153,4.9995,5.0891,5.0891,5.0891,5.0891,5.0891,5.0891,5.0891,5.0891,5.0891,5.0891,5.0891,5.0891,5.0891,5.0891,5.0891,5.0891,5.0891,5.1339,5.2089,5.3252,5.4142,5.4989,5.6133,5.6662,5.6933,5.7284,5.7589,5.796,5.8644,5.8582,5.8495,5.8808,5.9102,5.929,5.929,5.929,5.929,5.929,5.929,5.929,5.929,5.929,5.929,5.929,5.929,5.9628,6.0511,6.0604,6.0924,6.1731,6.1937,6.2013,6.2013,6.282,6.3308,6.3308,6.3946,6.4284,6.4284,6.4284,6.4284,6.4284,6.4284,6.4284,6.4284,6.4284,6.4284,0.0,0.0,0.0,0.0,0.0,0.0,0.0,0.0,0.0,0.0,0.0,0.0,0.0,0.0,0.0,0.0,0.0,0.0,0.0,0.0,0.0,0.0,0.0,0.0,0.0,0.0,0.0,0.0,4.6196,4.6196,4.6196,4.6196,4.6196,4.6196,4.6196,4.6196,4.6196,4.6196,4.6196,4.6196,4.6196,4.667,4.7573,4.8328,4.9486,5.0891,5.0891,5.0891,5.0891,5.0891,5.0891,5.0891,5.0891,5.0891,5.0891,5.0891,5.0891,5.0891,5.0891,5.0891,5.0891,5.0891,5.1131,5.167,5.313,5.4038,5.484,5.6346,5.6951,5.7239,5.7631,5.7768,5.796,5.8644,5.8767,5.8847,5.9159,5.9272,5.929,5.929,5.929,5.929,5.929,5.929,5.929,5.929,5.929,5.929,5.929,5.929,5.9628,6.0511,6.0604,6.0924,6.1731,6.2482,6.2932,6.2932,6.3683,6.4134,6.4134,6.4228,6.4284,6.4284,6.4284,6.4284,6.4284,6.4284,6.4284,6.4284,6.4284,6.4284,0.0,0.0,0.0,0.0,0.0,0.0,0.0,0.0,0.0,0.0,0.0,0.0,0.0,0.0,0.0,0.0,0.0,0.0,0.0,0.0,0.0,0.0,0.0,0.0,0.0,0.0,0.0,0.0,4.6196,4.6196,4.6196,4.6196,4.6196,4.6196,4.6196,4.6196,4.6196,4.6196,4.6196,4.6196,4.6196,4.6618,4.7397,4.7731,4.8731,5.0241,5.0697,5.0891,5.0891,5.0891,5.0891,5.0891,5.0891,5.0891,5.0918,5.1061,5.1114,5.1141,5.1298,5.135,5.135,5.135,5.141,5.1841,5.3564,5.4297,5.4849,5.6544,5.7264,5.7607,5.7983,5.8213,5.8476,5.8966,5.9082,5.9121,5.9272,5.929,5.929,5.929,5.929,5.929,5.929,5.929,5.929,5.929,5.929,5.929,5.929,5.9722,6.036,6.1186,6.1712,6.2332,6.312,6.3552,6.3759,6.3759,6.4096,6.4284,6.4284,6.4284,6.4284,6.4284,6.4284,6.4284,6.4284,6.4284,6.4284,6.4284,6.4284,6.4284,0.0,0.0,0.0,0.0,0.0,0.0,0.0,0.0,0.0,0.0,0.0,0.0,0.0,0.0,0.0,0.0,0.0,0.0,0.0,0.0,0.0,0.0,0.0,0.0,0.0,0.0,0.0,0.0,4.6196,4.6196,4.6196,4.6196,4.6196,4.6196,4.6196,4.6196,4.6196,4.6196,4.6196,4.6196,4.6196,4.6495,4.7099,4.7309,4.8117,4.9434,5.0241,5.0697,5.0891,5.0891,5.0891,5.0891,5.0891,5.0891,5.0945,5.1193,5.1298,5.135,5.1615,5.169,5.169,5.169,5.1883,5.2412,5.4011,5.4669,5.5202,5.6758,5.7504,5.7886,5.8213,5.854,5.8868,5.9215,5.929,5.929,5.929,5.929,5.929,5.929,5.929,5.929,5.929,5.929,5.929,5.929,5.929,5.9384,5.9591,6.021,6.0999,6.2013,6.2707,6.3421,6.4228,6.4284,6.4284,6.4284,6.4284,6.4284,6.4284,6.4284,6.4284,6.4284,6.4284,6.4284,6.4284,6.4284,6.4284,6.4284,6.4284,6.4284,0.0,0.0,0.0,0.0,0.0,0.0,0.0,0.0,0.0,0.0,0.0,0.0,0.0,0.0,0.0,0.0,0.0,0.0,0.0,0.0,0.0,0.0,0.0,0.0,0.0,0.0,0.0,0.0,4.6196,4.6196,4.6196,4.6196,4.6196,4.6196,4.6196,4.6196,4.6196,4.6196,4.6196,4.6196,4.6196,4.6214,4.6284,4.7046,4.7836,4.8626,4.9398,5.0215,5.0891,5.0891,5.0891,5.0891,5.0891,5.0891,5.0945,5.1193,5.1298,5.135,5.1615,5.169,5.169,5.169,5.2384,5.3396,5.4223,5.518,5.6102,5.6953,5.7504,5.7886,5.8213,5.854,5.8868,5.9215,5.929,5.929,5.929,5.929,5.929,5.929,5.929,5.929,5.929,5.929,5.929,5.929,5.929,5.9591,6.0435,6.0567,6.1224,6.2857,6.3064,6.3421,6.4228,6.4284,6.4284,6.4284,6.4284,6.4284,6.4284,6.4284,6.4284,6.4284,6.4284,6.4284,6.4284,6.4284,6.4284,6.4284,6.4284,6.4284,0.0,0.0,0.0,0.0,0.0,0.0,0.0,0.0,0.0,0.0,0.0,0.0,0.0,0.0,0.0,0.0,0.0,0.0,0.0,0.0,0.0,0.0,0.0,0.0,0.0,0.0,0.0,0.0,0.0,4.6196,4.6196,4.6196,4.6196,4.6196,4.6196,4.6196,4.6196,4.6196,4.6196,4.6196,4.6196,4.6196,4.6214,4.6495,4.7302,4.8512,4.8819,4.9679,5.0891,5.0891,5.0891,5.0918,5.1088,5.1167,5.122,5.164,5.1815,5.184,5.2126,5.2222,5.2312,5.2834,5.3225,5.3785,5.5092,5.5702,5.6205,5.7292,5.7844,5.8209,5.8519,5.8887,5.9159,5.9272,5.929,5.929,5.929,5.929,5.929,5.929,5.929,5.929,5.929,5.929,5.929,5.929,5.9778,6.0248,6.0567,6.1543,6.2426,6.3045,6.3552,6.3984,6.4286,6.4284,6.4284,6.4284,6.4284,6.4284,6.4284,6.4284,6.4284,6.4284,6.4284,6.4284,6.4284,6.4284,6.4284,6.4284,6.4284,6.4284,0.0,0.0,0.0,0.0,0.0,0.0,0.0,0.0,0.0,0.0,0.0,0.0,0.0,0.0,0.0,0.0,0.0,0.0,0.0,0.0,0.0,0.0,0.0,0.0,0.0,0.0,0.0,0.0,0.0,0.0,4.6179,4.6196,4.6196,4.6196,4.6196,4.6196,4.6196,4.6196,4.6196,4.6196,4.6196,4.6196,4.6196,4.6196,4.7039,4.8495,4.8495,4.9416,5.0891,5.0891,5.0891,5.0918,5.1193,5.1298,5.1359,5.1889,5.2102,5.215,5.2405,5.2679,5.2987,5.353,5.4055,5.4653,5.5685,5.6273,5.677,5.7575,5.8101,5.8537,5.8747,5.9044,5.929,5.929,5.929,5.929,5.929,5.929,5.929,5.929,5.929,5.929,5.929,5.929,5.9403,5.9684,6.0229,6.0811,6.1374,6.2407,6.3195,6.3458,6.3965,6.4284,6.4284,6.4284,6.4284,6.4284,6.4284,6.4284,6.4284,6.4284,6.4284,6.4284,6.4284,6.4284,6.4284,6.4284,6.4284,6.4284,6.4284,6.4284,0.0,0.0,0.0,0.0,0.0,0.0,0.0,0.0,0.0,0.0,0.0,0.0,0.0,0.0,0.0,0.0,0.0,0.0,0.0,0.0,0.0,0.0,0.0,0.0,0.0,0.0,0.0,0.0,4.5264,4.5605,4.6116,4.6161,4.6179,4.6196,4.6196,4.6196,4.6196,4.6196,4.6196,4.6196,4.6196,4.6196,4.6196,4.6196,4.7039,4.8495,4.8495,4.9416,5.0891,5.0891,5.0918,5.0945,5.122,5.1324,5.1384,5.1914,5.2108,5.215,5.2446,5.3041,5.3711,5.3748,5.478,5.5993,5.6036,5.6867,5.7792,5.7815,5.8301,5.8808,5.8808,5.9063,5.929,5.929,5.929,5.929,5.929,5.929,5.929,5.929,5.929,5.929,5.929,5.9328,5.9628,6.0473,6.0642,6.1262,6.2895,6.312,6.3421,6.4209,6.4284,6.4284,6.4284,6.4284,6.4284,6.4284,6.4284,6.4284,6.4284,6.4284,6.4284,6.4284,6.4284,6.4284,6.4284,6.4284,6.4284,6.4284,6.4284,6.4284,2.8909,0.0,0.0,0.0,0.0,0.0,0.0,0.0,0.0,0.0,0.0,0.0,0.0,0.0,0.0,0.0,0.0,0.0,0.0,0.0,0.0,0.0,0.0,0.0,0.0,0.0,0.0,0.0,4.4653,4.4668,4.4829,4.5193,4.5635,4.6179,4.6196,4.6196,4.6196,4.6196,4.6196,4.6196,4.6196,4.6196,4.6196,4.6196,4.7039,4.8495,4.8556,4.9451,5.0891,5.0891,5.1008,5.122,5.1487,5.1715,5.1914,5.2269,5.2387,5.2477,5.3145,5.3512,5.3874,5.4997,5.5649,5.6176,5.7043,5.7538,5.7909,5.8391,5.8665,5.8848,5.9102,5.9234,5.929,5.929,5.929,5.929,5.929,5.929,5.929,5.929,5.929,5.929,5.929,5.9816,6.0323,6.0567,6.1637,6.2576,6.3045,6.3608,6.404,6.4286,6.4284,6.4284,6.4284,6.4284,6.4284,6.4284,6.4284,6.4284,6.4284,6.4284,6.4284,6.4284,6.4284,6.4284,6.4284,6.4284,6.4284,6.4284,6.4284,6.4284,0.0,0.0,0.0,0.0,0.0,0.0,0.0,3.5976,0.0,0.0,0.0,0.0,0.0,0.0,0.0,0.0,0.0,0.0,0.0,0.0,0.0,0.0,0.0,0.0,0.0,4.3234,4.3455,4.4053,4.41,4.4151,4.4289,4.4794,4.5308,4.5723,4.6039,4.6196,4.6196,4.6196,4.6196,4.6196,4.6196,4.6196,4.6196,4.6196,4.7039,4.8495,4.8573,4.9547,5.1061,5.1061,5.1167,5.135,5.1715,5.1963,5.2126,5.2387,5.2498,5.2625,5.3422,5.3929,5.4399,5.5595,5.6228,5.6647,5.7527,5.7909,5.8119,5.8644,5.8888,5.9044,5.9253,5.929,5.929,5.929,5.929,5.929,5.929,5.929,5.929,5.929,5.929,5.9422,5.9778,6.0266,6.0848,6.1543,6.2463,6.3214,6.3552,6.4003,6.4284,6.4284,6.4284,6.4284,6.4284,6.4284,6.4284,6.4284,6.4284,6.4284,6.4284,6.4284,6.4284,6.4284,6.4284,6.4284,6.4284,6.4284,6.4284,6.4284,6.4284,6.4284,0.0,0.0,0.0,0.0,0.0,0.0,3.515,3.581,3.6519,0.0,0.0,0.0,0.0,0.0,0.0,0.0,0.0,0.0,0.0,0.0,0.0,0.0,0.0,0.0,4.265,4.2805,4.3018,4.3316,4.355,4.3826,4.4174,4.4718,4.5058,4.5145,4.5835,4.6196,4.6196,4.6196,4.6196,4.6196,4.6196,4.6196,4.6196,4.6196,4.7039,4.8495,4.8599,4.966,5.1281,5.1359,5.1384,5.1436,5.1914,5.2126,5.2174,5.241,5.2498,5.2625,5.3422,5.4237,5.5015,5.5758,5.6561,5.7338,5.7745,5.8097,5.8431,5.8767,5.9063,5.929,5.929,5.929,5.929,5.929,5.929,5.929,5.929,5.929,5.929,5.929,5.929,5.9591,6.0454,6.068,6.128,6.2857,6.3177,6.3496,6.4209,6.4284,6.4284,6.4284,6.4284,6.4284,6.4284,6.4284,6.4284,6.4284,6.4284,6.4284,6.4284,6.4284,6.4284,6.4284,6.4284,6.4284,6.4284,6.4284,6.4284,6.4284,6.4284,6.4284,2.9817,3.0575,3.1214,0.0,0.0,0.0,0.0,3.3105,3.4087,0.0,0.0,0.0,0.0,0.0,0.0,0.0,0.0,0.0,0.0,0.0,0.0,0.0,0.0,0.0,4.2843,4.2881,4.2936,4.2985,4.2904,4.3046,4.354,4.4139,4.4728,4.5311,4.5914,4.6196,4.6196,4.6196,4.6196,4.6196,4.6196,4.6196,4.6196,4.6196,4.7039,4.8521,4.8786,4.9839,5.1333,5.1765,5.1938,5.1938,5.2078,5.2246,5.2428,5.2475,5.2498,5.2625,5.3422,5.4237,5.5015,5.5758,5.6758,5.7745,5.8097,5.8452,5.8767,5.9102,5.9253,5.929,5.929,5.929,5.929,5.929,5.929,5.929,5.929,5.929,5.929,5.929,5.929,5.9591,6.0454,6.113,6.19,6.2951,6.3646,6.4115,6.4286,6.4284,6.4284,6.4284,6.4284,6.4284,6.4284,6.4284,6.4284,6.4284,6.4284,6.4284,6.4284,6.4284,6.4284,6.4284,6.4284,6.4284,6.4284,6.4284,6.4284,6.4284,6.4284,6.4284,3.0518,3.1142,3.1744,3.1744,0.0,0.0,0.0,0.0,0.0,0.0,0.0,0.0,0.0,0.0,0.0,0.0,0.0,0.0,0.0,0.0,0.0,0.0,0.0,0.0,4.2882,4.2901,4.2901,4.2901,4.2709,4.2711,4.2985,4.3544,4.4196,4.4978,4.5529,4.5987,4.6398,4.6398,4.6343,4.6196,4.6343,4.6343,4.6196,4.6196,4.7114,4.8743,4.893,5.0041,5.1715,5.1987,5.2174,5.2293,5.2293,5.2364,5.2498,5.2498,5.2498,5.2625,5.3422,5.4237,5.5039,5.6,5.6992,5.789,5.8409,5.8767,5.9082,5.9253,5.929,5.929,5.929,5.929,5.929,5.929,5.929,5.929,5.929,5.929,5.929,5.929,5.929,5.9703,6.098,6.1524,6.2219,6.3496,6.404,6.4284,6.4284,6.4284,6.4284,6.4284,6.4284,6.4284,6.4284,6.4284,6.4284,6.4284,6.4284,6.4284,6.4284,6.4284,6.4284,6.4284,6.4284,6.4284,6.4284,6.4284,6.4284,6.4284,6.4284,6.4284,0.0,0.0,0.0,0.0,0.0,3.277,0.0,0.0,0.0,0.0,0.0,0.0,0.0,0.0,0.0,0.0,0.0,0.0,0.0,0.0,0.0,0.0,0.0,0.0,4.2882,4.2901,4.2901,4.2901,4.2747,4.2668,4.2668,4.3184,4.3846,4.4632,4.5196,4.5863,4.6684,4.6684,4.6566,4.6343,4.6518,4.6471,4.627,4.627,4.728,4.9004,4.9103,5.0269,5.2084,5.2174,5.2293,5.2498,5.2498,5.2498,5.2498,5.2498,5.2498,5.2589,5.3241,5.4139,5.5147,5.6076,5.7102,5.8119,5.8706,5.9082,5.929,5.929,5.929,5.929,5.929,5.929,5.929,5.929,5.929,5.929,5.929,5.929,5.929,5.929,5.929,5.9835,6.1506,6.1787,6.2369,6.404,6.4284,6.4284,6.4284,6.4284,6.4284,6.4284,6.4284,6.4284,6.4284,6.4284,6.4284,6.4284,6.4284,6.4284,6.4284,6.4284,6.4284,6.4284,6.4284,6.4284,6.4284,6.4284,6.4284,6.4284,6.4284,6.4324,0.0,0.0,0.0,0.0,3.3193,0.0,0.0,0.0,0.0,0.0,0.0,0.0,0.0,0.0,0.0,0.0,0.0,0.0,0.0,0.0,0.0,0.0,0.0,0.0,0.0,4.2901,4.2901,4.2901,4.2881,4.2881,4.2881,4.3426,4.4096,4.483,4.544,4.6132,4.6957,4.6957,4.6952,4.6929,4.6684,4.659,4.6542,4.6542,4.7451,4.9029,4.943,5.0563,5.2126,5.2364,5.2475,5.2498,5.2498,5.2498,5.2498,5.2498,5.2498,5.2516,5.2589,5.3818,5.5354,5.5491,5.698,5.8747,5.9121,5.9272,5.929,5.929,5.929,5.929,5.929,5.929,5.929,5.929,5.929,5.929,5.929,5.929,5.929,5.929,5.929,5.9835,6.1506,6.1787,6.2369,6.404,6.4284,6.4284,6.4284,6.4284,6.4284,6.4284,6.4284,6.4284,6.4284,6.4284,6.4284,6.4284,6.4284,6.4284,6.4284,6.4284,6.4284,6.4284,6.4284,6.4284,6.4284,6.4284,6.4284,6.4284,6.4284,6.4384,0.0,0.0,0.0,0.0,0.0,0.0,0.0,0.0,3.2595,0.0,0.0,0.0,0.0,0.0,0.0,0.0,0.0,0.0,0.0,0.0,0.0,0.0,0.0,0.0,0.0,0.0,0.0,0.0,4.2901,4.2901,4.2901,4.3132,4.385,4.5095,4.5228,4.5893,4.7147,4.7165,4.7116,4.6998,4.7007,4.6962,4.6842,4.6842,4.7766,4.9407,4.96,5.0703,5.234,5.2434,5.2498,5.2498,5.2498,5.2498,5.2498,5.2498,5.2498,5.2544,5.2731,5.3602,5.4858,5.6227,5.7776,5.9102,5.9253,5.929,5.929,5.929,5.929,5.929,5.929,5.929,5.929,5.929,5.929,5.929,5.929,5.929,5.929,5.929,5.929,5.9684,6.0905,6.1487,6.22,6.3421,6.4003,6.4284,6.4284,6.4284,6.4284,6.4284,6.4284,6.4284,6.4284,6.4284,6.4284,6.4284,6.4284,6.4284,6.4284,6.4284,6.4284,6.4284,6.4284,6.4284,6.4284,6.4284,6.4284,6.4284,6.4284,6.4403,3.2777,0.0,0.0,0.0,0.0,0.0,0.0,0.0,0.0,0.0,0.0,0.0,0.0,0.0,0.0,0.0,0.0,0.0,0.0,0.0,0.0,0.0,0.0,0.0,0.0,0.0,0.0,0.0,0.0,4.2901,4.2901,4.2901,4.3625,4.5254,4.5111,4.5786,4.7389,4.7407,4.7338,4.7183,4.7254,4.7232,4.7093,4.7326,4.8258,4.9711,4.9996,5.1035,5.2498,5.2498,5.2498,5.2498,5.2498,5.2498,5.2521,5.2595,5.264,5.2686,5.3002,5.3815,5.5109,5.7351,5.8615,5.929,5.929,5.929,5.929,5.929,5.929,5.929,5.929,5.929,5.929,5.929,5.929,5.929,5.929,5.929,5.929,5.929,5.929,5.9497,6.0135,6.1111,6.2088,6.297,6.3777,6.4284,6.4284,6.4284,6.4284,6.4284,6.4284,6.4284,6.4284,6.4284,6.4284,6.4284,6.4284,6.4284,6.4284,6.4284,6.4284,6.4284,6.4284,6.4284,6.4284,6.4284,6.4284,6.4284,6.4284,6.4443,0.0,0.0,0.0,3.1934,0.0,0.0,0.0,0.0,3.4202,0.0,0.0,0.0,0.0,0.0,0.0,0.0,0.0,0.0,0.0,0.0,0.0,0.0,0.0,0.0,0.0,0.0,0.0,0.0,4.3354,4.2901,4.2901,4.2901,4.3625,4.5254,4.5291,4.6049,4.7678,4.7696,4.7678,4.7657,4.7407,4.7298,4.7316,4.8088,4.892,4.9747,5.0792,5.1719,5.2498,5.2498,5.2498,5.2498,5.2498,5.2498,5.2544,5.2868,5.2999,5.3023,5.3304,5.4679,5.6647,5.8597,5.9271,5.929,5.929,5.929,5.929,5.929,5.929,5.929,5.929,5.929,5.929,5.929,5.929,5.929,5.929,5.929,5.929,5.929,5.929,5.9309,5.9347,6.0698,6.2088,6.297,6.3777,6.4284,6.4284,6.4284,6.4284,6.4284,6.4284,6.4284,6.4284,6.4284,6.4284,6.4284,6.4284,6.4284,6.4284,6.4284,6.4284,6.4284,6.4284,6.4284,6.4284,6.4284,6.4284,6.4284,6.4284,6.452,0.0,0.0,3.5521,3.3182,0.0,0.0,0.0,0.0,0.0,0.0,0.0,0.0,0.0,0.0,0.0,0.0,0.0,0.0,0.0,0.0,0.0,0.0,0.0,0.0,0.0,0.0,0.0,0.0,4.3244,0.0,4.2937,4.2901,4.3625,4.5254,4.5291,4.6069,4.7681,4.7717,4.7717,4.7717,4.7615,4.7554,4.759,4.8403,4.9197,4.9996,5.0918,5.1756,5.2498,5.2498,5.2498,5.2498,5.2498,5.264,5.2846,5.2955,5.2999,5.314,5.4231,5.5529,5.6929,5.8127,5.8877,5.929,5.929,5.929,5.929,5.929,5.929,5.929,5.929,5.929,5.929,5.929,5.929,5.929,5.929,5.929,5.929,5.929,5.929,5.929,5.929,6.0248,6.1299,6.2125,6.3421,6.4284,6.4284,6.4284,6.4284,6.4284,6.4284,6.4284,6.4284,6.4284,6.4284,6.4284,6.4284,6.4284,6.4284,6.4284,6.4284,6.4284,6.4284,6.4284,6.4284,6.4284,6.4364,6.4501,6.4501,6.4634,3.5837,3.6061,0.0,3.4115,3.3656,0.0,3.2648,0.0,0.0,0.0,0.0,0.0,0.0,0.0,0.0,0.0,0.0,0.0,0.0,0.0,0.0,0.0,0.0,0.0,0.0,0.0,4.3786,4.3044,4.3154,0.0,0.0,4.3064,4.3625,4.5254,4.5291,4.6069,4.7681,4.7717,4.7717,4.7717,4.7717,4.7862,4.8149,4.8967,4.9764,5.056,5.1375,5.2009,5.2498,5.2498,5.2498,5.2521,5.264,5.2802,5.302,5.3091,5.3465,5.4098,5.5379,5.648,5.7469,5.8276,5.8877,5.929,5.929,5.929,5.929,5.929,5.929,5.929,5.929,5.929,5.929,5.929,5.929,5.929,5.929,5.929,5.929,5.929,5.929,5.929,5.929,6.0022,6.0792,6.1299,6.2801,6.3871,6.3871,6.4115,6.4284,6.4284,6.4284,6.4284,6.4284,6.4284,6.4284,6.4284,6.4284,6.4284,6.4284,6.4284,6.4284,6.4284,6.4284,6.4284,6.4284,6.4284,6.4403,6.4596,6.4596,6.4726]}]]